<?xml version="1.0" encoding="UTF-8" standalone="no" ?>
<gpx xmlns="http://www.topografix.com/GPX/1/1" xmlns:xsi="http://www.w3.org/2001/XMLSchema-instance" xsi:schemaLocation="http://www.topografix.com/GPX/1/1 http://www.topografix.com/GPX/1/1/gpx.xsd" version="1.1" creator="VisuGPX - https://www.visugpx.com">
  <metadata>
    <name>Saint Saulve 2011 Les 3 vallées</name>
    <desc><![CDATA[Saint Saulve 2011 Les 3 vallées]]></desc>
  </metadata>
  <trk>
    <name><![CDATA[2011-12-04T07:23:40Z]]></name>
    <trkseg>
      <trkpt lat="50.36521" lon="3.55854">
        <ele>40.5128174</ele>
        <time>2011-12-04T07:23:40Z</time>
      </trkpt>
      <trkpt lat="50.36521" lon="3.55858">
        <ele>38.5900879</ele>
        <time>2011-12-04T07:23:52Z</time>
      </trkpt>
      <trkpt lat="50.36522" lon="3.55862">
        <ele>39.0706787</ele>
        <time>2011-12-04T07:24:22Z</time>
      </trkpt>
      <trkpt lat="50.36523" lon="3.55863">
        <ele>38.109375</ele>
        <time>2011-12-04T07:24:31Z</time>
      </trkpt>
      <trkpt lat="50.36524" lon="3.55868">
        <ele>36.1867676</ele>
        <time>2011-12-04T07:24:38Z</time>
      </trkpt>
      <trkpt lat="50.36524" lon="3.55868">
        <ele>36.1867676</ele>
        <time>2011-12-04T07:24:47Z</time>
      </trkpt>
      <trkpt lat="50.36524" lon="3.55867">
        <ele>37.6286621</ele>
        <time>2011-12-04T07:25:14Z</time>
      </trkpt>
      <trkpt lat="50.36525" lon="3.55873">
        <ele>36.6674805</ele>
        <time>2011-12-04T07:25:20Z</time>
      </trkpt>
      <trkpt lat="50.36535" lon="3.55878">
        <ele>37.1480713</ele>
        <time>2011-12-04T07:25:27Z</time>
      </trkpt>
      <trkpt lat="50.36538" lon="3.55888">
        <ele>37.1480713</ele>
        <time>2011-12-04T07:25:31Z</time>
      </trkpt>
      <trkpt lat="50.36538" lon="3.55894">
        <ele>36.6674805</ele>
        <time>2011-12-04T07:25:34Z</time>
      </trkpt>
      <trkpt lat="50.36538" lon="3.55897">
        <ele>36.6674805</ele>
        <time>2011-12-04T07:25:35Z</time>
      </trkpt>
      <trkpt lat="50.36536" lon="3.55905">
        <ele>37.1480713</ele>
        <time>2011-12-04T07:25:37Z</time>
      </trkpt>
      <trkpt lat="50.36529" lon="3.55931">
        <ele>37.1480713</ele>
        <time>2011-12-04T07:25:43Z</time>
      </trkpt>
      <trkpt lat="50.36538" lon="3.5595">
        <ele>39.0706787</ele>
        <time>2011-12-04T07:25:48Z</time>
      </trkpt>
      <trkpt lat="50.36557" lon="3.55978">
        <ele>39.5512695</ele>
        <time>2011-12-04T07:25:54Z</time>
      </trkpt>
      <trkpt lat="50.36574" lon="3.56018">
        <ele>37.1480713</ele>
        <time>2011-12-04T07:26:00Z</time>
      </trkpt>
      <trkpt lat="50.36602" lon="3.56067">
        <ele>39.5512695</ele>
        <time>2011-12-04T07:26:07Z</time>
      </trkpt>
      <trkpt lat="50.36624" lon="3.56092">
        <ele>43.3966064</ele>
        <time>2011-12-04T07:26:12Z</time>
      </trkpt>
      <trkpt lat="50.36664" lon="3.56121">
        <ele>45.7999268</ele>
        <time>2011-12-04T07:26:20Z</time>
      </trkpt>
      <trkpt lat="50.3667" lon="3.5614">
        <ele>45.3192139</ele>
        <time>2011-12-04T07:26:24Z</time>
      </trkpt>
      <trkpt lat="50.36665" lon="3.56193">
        <ele>38.5900879</ele>
        <time>2011-12-04T07:26:31Z</time>
      </trkpt>
      <trkpt lat="50.36664" lon="3.56214">
        <ele>37.1480713</ele>
        <time>2011-12-04T07:26:34Z</time>
      </trkpt>
      <trkpt lat="50.36653" lon="3.56233">
        <ele>36.1867676</ele>
        <time>2011-12-04T07:26:38Z</time>
      </trkpt>
      <trkpt lat="50.36649" lon="3.56237">
        <ele>35.7060547</ele>
        <time>2011-12-04T07:26:39Z</time>
      </trkpt>
      <trkpt lat="50.36612" lon="3.56259">
        <ele>35.2254639</ele>
        <time>2011-12-04T07:26:48Z</time>
      </trkpt>
      <trkpt lat="50.36603" lon="3.56263">
        <ele>35.2254639</ele>
        <time>2011-12-04T07:26:50Z</time>
      </trkpt>
      <trkpt lat="50.36564" lon="3.56283">
        <ele>32.8222656</ele>
        <time>2011-12-04T07:26:59Z</time>
      </trkpt>
      <trkpt lat="50.36525" lon="3.56304">
        <ele>30.4188232</ele>
        <time>2011-12-04T07:27:08Z</time>
      </trkpt>
      <trkpt lat="50.36482" lon="3.56332">
        <ele>29.9381104</ele>
        <time>2011-12-04T07:27:18Z</time>
      </trkpt>
      <trkpt lat="50.36452" lon="3.56356">
        <ele>29.9381104</ele>
        <time>2011-12-04T07:27:26Z</time>
      </trkpt>
      <trkpt lat="50.36415" lon="3.56385">
        <ele>31.380127</ele>
        <time>2011-12-04T07:27:35Z</time>
      </trkpt>
      <trkpt lat="50.36381" lon="3.56411">
        <ele>33.3028564</ele>
        <time>2011-12-04T07:27:43Z</time>
      </trkpt>
      <trkpt lat="50.36341" lon="3.56439">
        <ele>33.3028564</ele>
        <time>2011-12-04T07:27:52Z</time>
      </trkpt>
      <trkpt lat="50.36311" lon="3.56458">
        <ele>30.4188232</ele>
        <time>2011-12-04T07:27:59Z</time>
      </trkpt>
      <trkpt lat="50.36301" lon="3.56469">
        <ele>30.8995361</ele>
        <time>2011-12-04T07:28:01Z</time>
      </trkpt>
      <trkpt lat="50.36291" lon="3.5648">
        <ele>31.8607178</ele>
        <time>2011-12-04T07:28:03Z</time>
      </trkpt>
      <trkpt lat="50.3628" lon="3.56482">
        <ele>30.8995361</ele>
        <time>2011-12-04T07:28:05Z</time>
      </trkpt>
      <trkpt lat="50.36273" lon="3.56494">
        <ele>34.2641602</ele>
        <time>2011-12-04T07:28:09Z</time>
      </trkpt>
      <trkpt lat="50.36281" lon="3.56497">
        <ele>37.1480713</ele>
        <time>2011-12-04T07:28:12Z</time>
      </trkpt>
      <trkpt lat="50.36291" lon="3.56498">
        <ele>38.5900879</ele>
        <time>2011-12-04T07:28:15Z</time>
      </trkpt>
      <trkpt lat="50.36316" lon="3.56508">
        <ele>39.5512695</ele>
        <time>2011-12-04T07:28:21Z</time>
      </trkpt>
      <trkpt lat="50.36344" lon="3.56524">
        <ele>39.0706787</ele>
        <time>2011-12-04T07:28:27Z</time>
      </trkpt>
      <trkpt lat="50.36354" lon="3.56532">
        <ele>39.0706787</ele>
        <time>2011-12-04T07:28:29Z</time>
      </trkpt>
      <trkpt lat="50.36395" lon="3.56558">
        <ele>39.0706787</ele>
        <time>2011-12-04T07:28:37Z</time>
      </trkpt>
      <trkpt lat="50.36415" lon="3.56571">
        <ele>39.0706787</ele>
        <time>2011-12-04T07:28:41Z</time>
      </trkpt>
      <trkpt lat="50.36462" lon="3.56598">
        <ele>39.5512695</ele>
        <time>2011-12-04T07:28:50Z</time>
      </trkpt>
      <trkpt lat="50.36504" lon="3.56624">
        <ele>39.0706787</ele>
        <time>2011-12-04T07:28:58Z</time>
      </trkpt>
      <trkpt lat="50.36546" lon="3.56658">
        <ele>38.5900879</ele>
        <time>2011-12-04T07:29:06Z</time>
      </trkpt>
      <trkpt lat="50.36596" lon="3.56692">
        <ele>37.6286621</ele>
        <time>2011-12-04T07:29:15Z</time>
      </trkpt>
      <trkpt lat="50.36647" lon="3.56715">
        <ele>36.6674805</ele>
        <time>2011-12-04T07:29:24Z</time>
      </trkpt>
      <trkpt lat="50.36678" lon="3.56728">
        <ele>35.7060547</ele>
        <time>2011-12-04T07:29:30Z</time>
      </trkpt>
      <trkpt lat="50.36689" lon="3.56744">
        <ele>35.7060547</ele>
        <time>2011-12-04T07:29:34Z</time>
      </trkpt>
      <trkpt lat="50.36686" lon="3.56762">
        <ele>35.2254639</ele>
        <time>2011-12-04T07:29:37Z</time>
      </trkpt>
      <trkpt lat="50.36663" lon="3.56821">
        <ele>34.2641602</ele>
        <time>2011-12-04T07:29:45Z</time>
      </trkpt>
      <trkpt lat="50.36636" lon="3.56889">
        <ele>35.7060547</ele>
        <time>2011-12-04T07:29:54Z</time>
      </trkpt>
      <trkpt lat="50.36608" lon="3.56963">
        <ele>37.1480713</ele>
        <time>2011-12-04T07:30:04Z</time>
      </trkpt>
      <trkpt lat="50.36577" lon="3.57046">
        <ele>39.0706787</ele>
        <time>2011-12-04T07:30:15Z</time>
      </trkpt>
      <trkpt lat="50.36545" lon="3.57132">
        <ele>40.5128174</ele>
        <time>2011-12-04T07:30:26Z</time>
      </trkpt>
      <trkpt lat="50.36518" lon="3.572">
        <ele>41.473999</ele>
        <time>2011-12-04T07:30:35Z</time>
      </trkpt>
      <trkpt lat="50.36484" lon="3.57283">
        <ele>42.9160156</ele>
        <time>2011-12-04T07:30:46Z</time>
      </trkpt>
      <trkpt lat="50.36455" lon="3.57349">
        <ele>43.8773193</ele>
        <time>2011-12-04T07:30:55Z</time>
      </trkpt>
      <trkpt lat="50.36412" lon="3.57445">
        <ele>44.838623</ele>
        <time>2011-12-04T07:31:08Z</time>
      </trkpt>
      <trkpt lat="50.36383" lon="3.57511">
        <ele>45.3192139</ele>
        <time>2011-12-04T07:31:17Z</time>
      </trkpt>
      <trkpt lat="50.3635" lon="3.57587">
        <ele>45.7999268</ele>
        <time>2011-12-04T07:31:27Z</time>
      </trkpt>
      <trkpt lat="50.3632" lon="3.57655">
        <ele>46.2806396</ele>
        <time>2011-12-04T07:31:36Z</time>
      </trkpt>
      <trkpt lat="50.36295" lon="3.57727">
        <ele>46.7612305</ele>
        <time>2011-12-04T07:31:45Z</time>
      </trkpt>
      <trkpt lat="50.3627" lon="3.57804">
        <ele>46.7612305</ele>
        <time>2011-12-04T07:31:54Z</time>
      </trkpt>
      <trkpt lat="50.36238" lon="3.57893">
        <ele>47.2418213</ele>
        <time>2011-12-04T07:32:04Z</time>
      </trkpt>
      <trkpt lat="50.36202" lon="3.57991">
        <ele>47.7225342</ele>
        <time>2011-12-04T07:32:15Z</time>
      </trkpt>
      <trkpt lat="50.36169" lon="3.58081">
        <ele>47.7225342</ele>
        <time>2011-12-04T07:32:25Z</time>
      </trkpt>
      <trkpt lat="50.36142" lon="3.58147">
        <ele>48.2033691</ele>
        <time>2011-12-04T07:32:33Z</time>
      </trkpt>
      <trkpt lat="50.3611" lon="3.58232">
        <ele>48.68396</ele>
        <time>2011-12-04T07:32:44Z</time>
      </trkpt>
      <trkpt lat="50.36078" lon="3.58314">
        <ele>49.6452637</ele>
        <time>2011-12-04T07:32:55Z</time>
      </trkpt>
      <trkpt lat="50.36047" lon="3.58384">
        <ele>50.1259766</ele>
        <time>2011-12-04T07:33:05Z</time>
      </trkpt>
      <trkpt lat="50.36034" lon="3.58412">
        <ele>50.6065674</ele>
        <time>2011-12-04T07:33:09Z</time>
      </trkpt>
      <trkpt lat="50.36018" lon="3.58445">
        <ele>51.5678711</ele>
        <time>2011-12-04T07:33:14Z</time>
      </trkpt>
      <trkpt lat="50.35997" lon="3.58487">
        <ele>52.5291748</ele>
        <time>2011-12-04T07:33:21Z</time>
      </trkpt>
      <trkpt lat="50.35971" lon="3.58511">
        <ele>54.4517822</ele>
        <time>2011-12-04T07:33:28Z</time>
      </trkpt>
      <trkpt lat="50.35966" lon="3.58513">
        <ele>54.932373</ele>
        <time>2011-12-04T07:33:29Z</time>
      </trkpt>
      <trkpt lat="50.35937" lon="3.5852">
        <ele>55.8937988</ele>
        <time>2011-12-04T07:33:36Z</time>
      </trkpt>
      <trkpt lat="50.35924" lon="3.58537">
        <ele>56.3745117</ele>
        <time>2011-12-04T07:33:41Z</time>
      </trkpt>
      <trkpt lat="50.35923" lon="3.5855">
        <ele>56.3745117</ele>
        <time>2011-12-04T07:33:43Z</time>
      </trkpt>
      <trkpt lat="50.35921" lon="3.58588">
        <ele>56.3745117</ele>
        <time>2011-12-04T07:33:49Z</time>
      </trkpt>
      <trkpt lat="50.35914" lon="3.58662">
        <ele>55.8937988</ele>
        <time>2011-12-04T07:33:59Z</time>
      </trkpt>
      <trkpt lat="50.35912" lon="3.58685">
        <ele>55.8937988</ele>
        <time>2011-12-04T07:34:02Z</time>
      </trkpt>
      <trkpt lat="50.35908" lon="3.58732">
        <ele>55.8937988</ele>
        <time>2011-12-04T07:34:08Z</time>
      </trkpt>
      <trkpt lat="50.35914" lon="3.58759">
        <ele>55.4130859</ele>
        <time>2011-12-04T07:34:12Z</time>
      </trkpt>
      <trkpt lat="50.35917" lon="3.58765">
        <ele>55.4130859</ele>
        <time>2011-12-04T07:34:13Z</time>
      </trkpt>
      <trkpt lat="50.35929" lon="3.58779">
        <ele>54.932373</ele>
        <time>2011-12-04T07:34:16Z</time>
      </trkpt>
      <trkpt lat="50.35965" lon="3.58829">
        <ele>53.9711914</ele>
        <time>2011-12-04T07:34:23Z</time>
      </trkpt>
      <trkpt lat="50.35993" lon="3.58866">
        <ele>54.932373</ele>
        <time>2011-12-04T07:34:29Z</time>
      </trkpt>
      <trkpt lat="50.36024" lon="3.58908">
        <ele>54.4517822</ele>
        <time>2011-12-04T07:34:36Z</time>
      </trkpt>
      <trkpt lat="50.36062" lon="3.58958">
        <ele>53.0097656</ele>
        <time>2011-12-04T07:34:44Z</time>
      </trkpt>
      <trkpt lat="50.36116" lon="3.59027">
        <ele>52.048584</ele>
        <time>2011-12-04T07:34:55Z</time>
      </trkpt>
      <trkpt lat="50.36145" lon="3.59067">
        <ele>51.5678711</ele>
        <time>2011-12-04T07:35:01Z</time>
      </trkpt>
      <trkpt lat="50.36154" lon="3.5908">
        <ele>51.5678711</ele>
        <time>2011-12-04T07:35:03Z</time>
      </trkpt>
      <trkpt lat="50.36163" lon="3.59094">
        <ele>51.0871582</ele>
        <time>2011-12-04T07:35:05Z</time>
      </trkpt>
      <trkpt lat="50.36202" lon="3.59145">
        <ele>50.1259766</ele>
        <time>2011-12-04T07:35:13Z</time>
      </trkpt>
      <trkpt lat="50.3622" lon="3.59172">
        <ele>49.6452637</ele>
        <time>2011-12-04T07:35:17Z</time>
      </trkpt>
      <trkpt lat="50.36227" lon="3.59186">
        <ele>49.6452637</ele>
        <time>2011-12-04T07:35:19Z</time>
      </trkpt>
      <trkpt lat="50.36261" lon="3.5923">
        <ele>49.1645508</ele>
        <time>2011-12-04T07:35:27Z</time>
      </trkpt>
      <trkpt lat="50.36287" lon="3.59263">
        <ele>49.1645508</ele>
        <time>2011-12-04T07:35:33Z</time>
      </trkpt>
      <trkpt lat="50.36323" lon="3.59312">
        <ele>48.68396</ele>
        <time>2011-12-04T07:35:41Z</time>
      </trkpt>
      <trkpt lat="50.36327" lon="3.59319">
        <ele>48.68396</ele>
        <time>2011-12-04T07:35:42Z</time>
      </trkpt>
      <trkpt lat="50.36369" lon="3.59372">
        <ele>47.2418213</ele>
        <time>2011-12-04T07:35:51Z</time>
      </trkpt>
      <trkpt lat="50.36407" lon="3.59418">
        <ele>46.2806396</ele>
        <time>2011-12-04T07:35:59Z</time>
      </trkpt>
      <trkpt lat="50.3643" lon="3.59447">
        <ele>45.7999268</ele>
        <time>2011-12-04T07:36:05Z</time>
      </trkpt>
      <trkpt lat="50.36444" lon="3.59473">
        <ele>46.2806396</ele>
        <time>2011-12-04T07:36:11Z</time>
      </trkpt>
      <trkpt lat="50.3646" lon="3.59503">
        <ele>47.2418213</ele>
        <time>2011-12-04T07:36:17Z</time>
      </trkpt>
      <trkpt lat="50.36479" lon="3.59538">
        <ele>48.68396</ele>
        <time>2011-12-04T07:36:23Z</time>
      </trkpt>
      <trkpt lat="50.36511" lon="3.59593">
        <ele>50.1259766</ele>
        <time>2011-12-04T07:36:32Z</time>
      </trkpt>
      <trkpt lat="50.36525" lon="3.59618">
        <ele>50.1259766</ele>
        <time>2011-12-04T07:36:36Z</time>
      </trkpt>
      <trkpt lat="50.3657" lon="3.59681">
        <ele>49.1645508</ele>
        <time>2011-12-04T07:36:47Z</time>
      </trkpt>
      <trkpt lat="50.36578" lon="3.59692">
        <ele>49.1645508</ele>
        <time>2011-12-04T07:36:49Z</time>
      </trkpt>
      <trkpt lat="50.36584" lon="3.59717">
        <ele>49.1645508</ele>
        <time>2011-12-04T07:36:53Z</time>
      </trkpt>
      <trkpt lat="50.3658" lon="3.59729">
        <ele>49.1645508</ele>
        <time>2011-12-04T07:36:55Z</time>
      </trkpt>
      <trkpt lat="50.3655" lon="3.59782">
        <ele>49.6452637</ele>
        <time>2011-12-04T07:37:04Z</time>
      </trkpt>
      <trkpt lat="50.36526" lon="3.59825">
        <ele>50.1259766</ele>
        <time>2011-12-04T07:37:11Z</time>
      </trkpt>
      <trkpt lat="50.36497" lon="3.59876">
        <ele>50.6065674</ele>
        <time>2011-12-04T07:37:19Z</time>
      </trkpt>
      <trkpt lat="50.36471" lon="3.59924">
        <ele>50.1259766</ele>
        <time>2011-12-04T07:37:26Z</time>
      </trkpt>
      <trkpt lat="50.36451" lon="3.59961">
        <ele>50.6065674</ele>
        <time>2011-12-04T07:37:32Z</time>
      </trkpt>
      <trkpt lat="50.36415" lon="3.60027">
        <ele>51.0871582</ele>
        <time>2011-12-04T07:37:42Z</time>
      </trkpt>
      <trkpt lat="50.36374" lon="3.60101">
        <ele>52.048584</ele>
        <time>2011-12-04T07:37:53Z</time>
      </trkpt>
      <trkpt lat="50.36338" lon="3.60167">
        <ele>53.4904785</ele>
        <time>2011-12-04T07:38:03Z</time>
      </trkpt>
      <trkpt lat="50.363" lon="3.60238">
        <ele>54.4517822</ele>
        <time>2011-12-04T07:38:14Z</time>
      </trkpt>
      <trkpt lat="50.36268" lon="3.60295">
        <ele>54.932373</ele>
        <time>2011-12-04T07:38:23Z</time>
      </trkpt>
      <trkpt lat="50.36246" lon="3.60338">
        <ele>54.4517822</ele>
        <time>2011-12-04T07:38:29Z</time>
      </trkpt>
      <trkpt lat="50.36243" lon="3.60346">
        <ele>54.4517822</ele>
        <time>2011-12-04T07:38:30Z</time>
      </trkpt>
      <trkpt lat="50.3623" lon="3.60409">
        <ele>52.5291748</ele>
        <time>2011-12-04T07:38:37Z</time>
      </trkpt>
      <trkpt lat="50.36222" lon="3.60455">
        <ele>50.6065674</ele>
        <time>2011-12-04T07:38:41Z</time>
      </trkpt>
      <trkpt lat="50.36217" lon="3.60491">
        <ele>50.1259766</ele>
        <time>2011-12-04T07:38:45Z</time>
      </trkpt>
      <trkpt lat="50.36211" lon="3.60532">
        <ele>52.048584</ele>
        <time>2011-12-04T07:38:51Z</time>
      </trkpt>
      <trkpt lat="50.36202" lon="3.60595">
        <ele>55.4130859</ele>
        <time>2011-12-04T07:39:01Z</time>
      </trkpt>
      <trkpt lat="50.36194" lon="3.60648">
        <ele>58.2971191</ele>
        <time>2011-12-04T07:39:09Z</time>
      </trkpt>
      <trkpt lat="50.36188" lon="3.60696">
        <ele>60.2197266</ele>
        <time>2011-12-04T07:39:16Z</time>
      </trkpt>
      <trkpt lat="50.3618" lon="3.60749">
        <ele>62.6229248</ele>
        <time>2011-12-04T07:39:24Z</time>
      </trkpt>
      <trkpt lat="50.36172" lon="3.60807">
        <ele>64.0650635</ele>
        <time>2011-12-04T07:39:32Z</time>
      </trkpt>
      <trkpt lat="50.3616" lon="3.60886">
        <ele>64.5456543</ele>
        <time>2011-12-04T07:39:43Z</time>
      </trkpt>
      <trkpt lat="50.36155" lon="3.6092">
        <ele>64.5456543</ele>
        <time>2011-12-04T07:39:50Z</time>
      </trkpt>
      <trkpt lat="50.36156" lon="3.60953">
        <ele>64.5456543</ele>
        <time>2011-12-04T07:39:57Z</time>
      </trkpt>
      <trkpt lat="50.36144" lon="3.60968">
        <ele>64.5456543</ele>
        <time>2011-12-04T07:40:01Z</time>
      </trkpt>
      <trkpt lat="50.36103" lon="3.60995">
        <ele>65.0263672</ele>
        <time>2011-12-04T07:40:10Z</time>
      </trkpt>
      <trkpt lat="50.36065" lon="3.61015">
        <ele>65.0263672</ele>
        <time>2011-12-04T07:40:17Z</time>
      </trkpt>
      <trkpt lat="50.36015" lon="3.61041">
        <ele>65.5070801</ele>
        <time>2011-12-04T07:40:27Z</time>
      </trkpt>
      <trkpt lat="50.35956" lon="3.61059">
        <ele>65.9876709</ele>
        <time>2011-12-04T07:40:38Z</time>
      </trkpt>
      <trkpt lat="50.35902" lon="3.61064">
        <ele>66.4682617</ele>
        <time>2011-12-04T07:40:48Z</time>
      </trkpt>
      <trkpt lat="50.35854" lon="3.61063">
        <ele>66.9489746</ele>
        <time>2011-12-04T07:40:57Z</time>
      </trkpt>
      <trkpt lat="50.35834" lon="3.61063">
        <ele>67.4296875</ele>
        <time>2011-12-04T07:41:01Z</time>
      </trkpt>
      <trkpt lat="50.35823" lon="3.61076">
        <ele>66.9489746</ele>
        <time>2011-12-04T07:41:05Z</time>
      </trkpt>
      <trkpt lat="50.35822" lon="3.61092">
        <ele>65.9876709</ele>
        <time>2011-12-04T07:41:07Z</time>
      </trkpt>
      <trkpt lat="50.35828" lon="3.61163">
        <ele>64.0650635</ele>
        <time>2011-12-04T07:41:14Z</time>
      </trkpt>
      <trkpt lat="50.35831" lon="3.61193">
        <ele>63.5843506</ele>
        <time>2011-12-04T07:41:17Z</time>
      </trkpt>
      <trkpt lat="50.35833" lon="3.61236">
        <ele>63.1036377</ele>
        <time>2011-12-04T07:41:22Z</time>
      </trkpt>
      <trkpt lat="50.35834" lon="3.61246">
        <ele>63.1036377</ele>
        <time>2011-12-04T07:41:24Z</time>
      </trkpt>
      <trkpt lat="50.35838" lon="3.61271">
        <ele>62.6229248</ele>
        <time>2011-12-04T07:41:32Z</time>
      </trkpt>
      <trkpt lat="50.35843" lon="3.61293">
        <ele>62.142334</ele>
        <time>2011-12-04T07:41:39Z</time>
      </trkpt>
      <trkpt lat="50.35847" lon="3.61327">
        <ele>62.142334</ele>
        <time>2011-12-04T07:41:45Z</time>
      </trkpt>
      <trkpt lat="50.35854" lon="3.61384">
        <ele>62.6229248</ele>
        <time>2011-12-04T07:41:52Z</time>
      </trkpt>
      <trkpt lat="50.35864" lon="3.61468">
        <ele>63.5843506</ele>
        <time>2011-12-04T07:42:01Z</time>
      </trkpt>
      <trkpt lat="50.35877" lon="3.61555">
        <ele>63.5843506</ele>
        <time>2011-12-04T07:42:11Z</time>
      </trkpt>
      <trkpt lat="50.35893" lon="3.61638">
        <ele>64.5456543</ele>
        <time>2011-12-04T07:42:21Z</time>
      </trkpt>
      <trkpt lat="50.3591" lon="3.6172">
        <ele>63.5843506</ele>
        <time>2011-12-04T07:42:30Z</time>
      </trkpt>
      <trkpt lat="50.35932" lon="3.61805">
        <ele>61.1810303</ele>
        <time>2011-12-04T07:42:38Z</time>
      </trkpt>
      <trkpt lat="50.3595" lon="3.61884">
        <ele>60.2197266</ele>
        <time>2011-12-04T07:42:45Z</time>
      </trkpt>
      <trkpt lat="50.35962" lon="3.61937">
        <ele>60.2197266</ele>
        <time>2011-12-04T07:42:50Z</time>
      </trkpt>
      <trkpt lat="50.3598" lon="3.62012">
        <ele>60.7003174</ele>
        <time>2011-12-04T07:42:58Z</time>
      </trkpt>
      <trkpt lat="50.35989" lon="3.62052">
        <ele>61.1810303</ele>
        <time>2011-12-04T07:43:02Z</time>
      </trkpt>
      <trkpt lat="50.36014" lon="3.62117">
        <ele>61.1810303</ele>
        <time>2011-12-04T07:43:09Z</time>
      </trkpt>
      <trkpt lat="50.36044" lon="3.62186">
        <ele>61.6617432</ele>
        <time>2011-12-04T07:43:17Z</time>
      </trkpt>
      <trkpt lat="50.36065" lon="3.62238">
        <ele>61.6617432</ele>
        <time>2011-12-04T07:43:23Z</time>
      </trkpt>
      <trkpt lat="50.3608" lon="3.62297">
        <ele>59.7391357</ele>
        <time>2011-12-04T07:43:29Z</time>
      </trkpt>
      <trkpt lat="50.36089" lon="3.62343">
        <ele>58.77771</ele>
        <time>2011-12-04T07:43:34Z</time>
      </trkpt>
      <trkpt lat="50.36093" lon="3.62362">
        <ele>58.2971191</ele>
        <time>2011-12-04T07:43:36Z</time>
      </trkpt>
      <trkpt lat="50.36106" lon="3.62399">
        <ele>57.3358154</ele>
        <time>2011-12-04T07:43:40Z</time>
      </trkpt>
      <trkpt lat="50.36123" lon="3.62429">
        <ele>55.4130859</ele>
        <time>2011-12-04T07:43:44Z</time>
      </trkpt>
      <trkpt lat="50.36148" lon="3.62494">
        <ele>51.5678711</ele>
        <time>2011-12-04T07:43:51Z</time>
      </trkpt>
      <trkpt lat="50.36152" lon="3.62503">
        <ele>51.0871582</ele>
        <time>2011-12-04T07:43:52Z</time>
      </trkpt>
      <trkpt lat="50.36175" lon="3.62572">
        <ele>50.1259766</ele>
        <time>2011-12-04T07:43:59Z</time>
      </trkpt>
      <trkpt lat="50.36189" lon="3.62624">
        <ele>50.1259766</ele>
        <time>2011-12-04T07:44:04Z</time>
      </trkpt>
      <trkpt lat="50.36214" lon="3.62693">
        <ele>49.6452637</ele>
        <time>2011-12-04T07:44:11Z</time>
      </trkpt>
      <trkpt lat="50.36231" lon="3.62737">
        <ele>51.5678711</ele>
        <time>2011-12-04T07:44:16Z</time>
      </trkpt>
      <trkpt lat="50.36242" lon="3.62762">
        <ele>51.5678711</ele>
        <time>2011-12-04T07:44:19Z</time>
      </trkpt>
      <trkpt lat="50.36259" lon="3.62829">
        <ele>50.6065674</ele>
        <time>2011-12-04T07:44:26Z</time>
      </trkpt>
      <trkpt lat="50.36266" lon="3.62867">
        <ele>50.1259766</ele>
        <time>2011-12-04T07:44:30Z</time>
      </trkpt>
      <trkpt lat="50.36294" lon="3.62974">
        <ele>51.0871582</ele>
        <time>2011-12-04T07:44:42Z</time>
      </trkpt>
      <trkpt lat="50.36314" lon="3.63023">
        <ele>51.5678711</ele>
        <time>2011-12-04T07:44:48Z</time>
      </trkpt>
      <trkpt lat="50.36341" lon="3.63079">
        <ele>51.5678711</ele>
        <time>2011-12-04T07:44:55Z</time>
      </trkpt>
      <trkpt lat="50.36354" lon="3.63133">
        <ele>52.048584</ele>
        <time>2011-12-04T07:45:01Z</time>
      </trkpt>
      <trkpt lat="50.36366" lon="3.63201">
        <ele>54.932373</ele>
        <time>2011-12-04T07:45:09Z</time>
      </trkpt>
      <trkpt lat="50.36378" lon="3.63281">
        <ele>55.8937988</ele>
        <time>2011-12-04T07:45:19Z</time>
      </trkpt>
      <trkpt lat="50.36388" lon="3.63352">
        <ele>54.932373</ele>
        <time>2011-12-04T07:45:27Z</time>
      </trkpt>
      <trkpt lat="50.36397" lon="3.63432">
        <ele>53.9711914</ele>
        <time>2011-12-04T07:45:35Z</time>
      </trkpt>
      <trkpt lat="50.36404" lon="3.63533">
        <ele>52.5291748</ele>
        <time>2011-12-04T07:45:46Z</time>
      </trkpt>
      <trkpt lat="50.36407" lon="3.63602">
        <ele>52.5291748</ele>
        <time>2011-12-04T07:45:54Z</time>
      </trkpt>
      <trkpt lat="50.36407" lon="3.63611">
        <ele>52.5291748</ele>
        <time>2011-12-04T07:45:55Z</time>
      </trkpt>
      <trkpt lat="50.36417" lon="3.63633">
        <ele>52.5291748</ele>
        <time>2011-12-04T07:45:59Z</time>
      </trkpt>
      <trkpt lat="50.36428" lon="3.63627">
        <ele>52.048584</ele>
        <time>2011-12-04T07:46:02Z</time>
      </trkpt>
      <trkpt lat="50.36436" lon="3.6362">
        <ele>52.048584</ele>
        <time>2011-12-04T07:46:04Z</time>
      </trkpt>
      <trkpt lat="50.36467" lon="3.63589">
        <ele>50.6065674</ele>
        <time>2011-12-04T07:46:11Z</time>
      </trkpt>
      <trkpt lat="50.36509" lon="3.63547">
        <ele>50.1259766</ele>
        <time>2011-12-04T07:46:20Z</time>
      </trkpt>
      <trkpt lat="50.36525" lon="3.6353">
        <ele>50.1259766</ele>
        <time>2011-12-04T07:46:24Z</time>
      </trkpt>
      <trkpt lat="50.36541" lon="3.63528">
        <ele>50.6065674</ele>
        <time>2011-12-04T07:46:28Z</time>
      </trkpt>
      <trkpt lat="50.36548" lon="3.63543">
        <ele>50.6065674</ele>
        <time>2011-12-04T07:46:31Z</time>
      </trkpt>
      <trkpt lat="50.36549" lon="3.63549">
        <ele>51.0871582</ele>
        <time>2011-12-04T07:46:32Z</time>
      </trkpt>
      <trkpt lat="50.36562" lon="3.63621">
        <ele>51.5678711</ele>
        <time>2011-12-04T07:46:42Z</time>
      </trkpt>
      <trkpt lat="50.36574" lon="3.63695">
        <ele>52.5291748</ele>
        <time>2011-12-04T07:46:51Z</time>
      </trkpt>
      <trkpt lat="50.36587" lon="3.6377">
        <ele>52.048584</ele>
        <time>2011-12-04T07:47:00Z</time>
      </trkpt>
      <trkpt lat="50.36596" lon="3.63823">
        <ele>52.5291748</ele>
        <time>2011-12-04T07:47:06Z</time>
      </trkpt>
      <trkpt lat="50.36606" lon="3.63885">
        <ele>52.5291748</ele>
        <time>2011-12-04T07:47:13Z</time>
      </trkpt>
      <trkpt lat="50.3662" lon="3.63955">
        <ele>53.0097656</ele>
        <time>2011-12-04T07:47:21Z</time>
      </trkpt>
      <trkpt lat="50.36638" lon="3.64026">
        <ele>54.932373</ele>
        <time>2011-12-04T07:47:30Z</time>
      </trkpt>
      <trkpt lat="50.36644" lon="3.6405">
        <ele>54.932373</ele>
        <time>2011-12-04T07:47:33Z</time>
      </trkpt>
      <trkpt lat="50.36668" lon="3.64118">
        <ele>55.8937988</ele>
        <time>2011-12-04T07:47:42Z</time>
      </trkpt>
      <trkpt lat="50.36693" lon="3.64185">
        <ele>58.2971191</ele>
        <time>2011-12-04T07:47:51Z</time>
      </trkpt>
      <trkpt lat="50.36708" lon="3.64224">
        <ele>58.2971191</ele>
        <time>2011-12-04T07:47:57Z</time>
      </trkpt>
      <trkpt lat="50.36722" lon="3.64273">
        <ele>58.2971191</ele>
        <time>2011-12-04T07:48:04Z</time>
      </trkpt>
      <trkpt lat="50.36728" lon="3.64313">
        <ele>58.2971191</ele>
        <time>2011-12-04T07:48:09Z</time>
      </trkpt>
      <trkpt lat="50.36741" lon="3.64402">
        <ele>57.8165283</ele>
        <time>2011-12-04T07:48:20Z</time>
      </trkpt>
      <trkpt lat="50.36743" lon="3.64409">
        <ele>57.8165283</ele>
        <time>2011-12-04T07:48:21Z</time>
      </trkpt>
      <trkpt lat="50.36761" lon="3.64436">
        <ele>57.8165283</ele>
        <time>2011-12-04T07:48:26Z</time>
      </trkpt>
      <trkpt lat="50.36783" lon="3.64456">
        <ele>58.2971191</ele>
        <time>2011-12-04T07:48:32Z</time>
      </trkpt>
      <trkpt lat="50.36816" lon="3.64494">
        <ele>58.2971191</ele>
        <time>2011-12-04T07:48:40Z</time>
      </trkpt>
      <trkpt lat="50.36855" lon="3.64542">
        <ele>58.2971191</ele>
        <time>2011-12-04T07:48:49Z</time>
      </trkpt>
      <trkpt lat="50.36887" lon="3.64589">
        <ele>58.2971191</ele>
        <time>2011-12-04T07:48:57Z</time>
      </trkpt>
      <trkpt lat="50.36929" lon="3.64638">
        <ele>58.2971191</ele>
        <time>2011-12-04T07:49:06Z</time>
      </trkpt>
      <trkpt lat="50.36963" lon="3.64674">
        <ele>58.2971191</ele>
        <time>2011-12-04T07:49:13Z</time>
      </trkpt>
      <trkpt lat="50.37004" lon="3.6472">
        <ele>57.8165283</ele>
        <time>2011-12-04T07:49:21Z</time>
      </trkpt>
      <trkpt lat="50.37054" lon="3.64784">
        <ele>56.8551025</ele>
        <time>2011-12-04T07:49:31Z</time>
      </trkpt>
      <trkpt lat="50.37097" lon="3.64856">
        <ele>56.3745117</ele>
        <time>2011-12-04T07:49:40Z</time>
      </trkpt>
      <trkpt lat="50.37138" lon="3.64933">
        <ele>55.8937988</ele>
        <time>2011-12-04T07:49:49Z</time>
      </trkpt>
      <trkpt lat="50.3717" lon="3.64998">
        <ele>55.4130859</ele>
        <time>2011-12-04T07:49:57Z</time>
      </trkpt>
      <trkpt lat="50.37192" lon="3.65051">
        <ele>53.9711914</ele>
        <time>2011-12-04T07:50:04Z</time>
      </trkpt>
      <trkpt lat="50.37205" lon="3.65075">
        <ele>53.0097656</ele>
        <time>2011-12-04T07:50:08Z</time>
      </trkpt>
      <trkpt lat="50.3721" lon="3.65079">
        <ele>53.0097656</ele>
        <time>2011-12-04T07:50:09Z</time>
      </trkpt>
      <trkpt lat="50.37235" lon="3.65102">
        <ele>52.5291748</ele>
        <time>2011-12-04T07:50:14Z</time>
      </trkpt>
      <trkpt lat="50.37251" lon="3.65105">
        <ele>52.5291748</ele>
        <time>2011-12-04T07:50:17Z</time>
      </trkpt>
      <trkpt lat="50.37291" lon="3.65094">
        <ele>52.5291748</ele>
        <time>2011-12-04T07:50:24Z</time>
      </trkpt>
      <trkpt lat="50.37343" lon="3.65081">
        <ele>51.5678711</ele>
        <time>2011-12-04T07:50:32Z</time>
      </trkpt>
      <trkpt lat="50.37404" lon="3.65072">
        <ele>50.6065674</ele>
        <time>2011-12-04T07:50:41Z</time>
      </trkpt>
      <trkpt lat="50.37482" lon="3.65072">
        <ele>49.6452637</ele>
        <time>2011-12-04T07:50:52Z</time>
      </trkpt>
      <trkpt lat="50.37547" lon="3.65072">
        <ele>48.68396</ele>
        <time>2011-12-04T07:51:01Z</time>
      </trkpt>
      <trkpt lat="50.37615" lon="3.65078">
        <ele>47.7225342</ele>
        <time>2011-12-04T07:51:10Z</time>
      </trkpt>
      <trkpt lat="50.3769" lon="3.65096">
        <ele>47.2418213</ele>
        <time>2011-12-04T07:51:20Z</time>
      </trkpt>
      <trkpt lat="50.37751" lon="3.6511">
        <ele>46.7612305</ele>
        <time>2011-12-04T07:51:28Z</time>
      </trkpt>
      <trkpt lat="50.37816" lon="3.65125">
        <ele>46.7612305</ele>
        <time>2011-12-04T07:51:37Z</time>
      </trkpt>
      <trkpt lat="50.37881" lon="3.65141">
        <ele>46.7612305</ele>
        <time>2011-12-04T07:51:46Z</time>
      </trkpt>
      <trkpt lat="50.37939" lon="3.65154">
        <ele>46.2806396</ele>
        <time>2011-12-04T07:51:54Z</time>
      </trkpt>
      <trkpt lat="50.37992" lon="3.65166">
        <ele>46.2806396</ele>
        <time>2011-12-04T07:52:02Z</time>
      </trkpt>
      <trkpt lat="50.3801" lon="3.65171">
        <ele>45.7999268</ele>
        <time>2011-12-04T07:52:05Z</time>
      </trkpt>
      <trkpt lat="50.38022" lon="3.65192">
        <ele>45.7999268</ele>
        <time>2011-12-04T07:52:09Z</time>
      </trkpt>
      <trkpt lat="50.38023" lon="3.652">
        <ele>45.7999268</ele>
        <time>2011-12-04T07:52:10Z</time>
      </trkpt>
      <trkpt lat="50.38027" lon="3.6526">
        <ele>45.3192139</ele>
        <time>2011-12-04T07:52:17Z</time>
      </trkpt>
      <trkpt lat="50.38037" lon="3.65347">
        <ele>45.7999268</ele>
        <time>2011-12-04T07:52:26Z</time>
      </trkpt>
      <trkpt lat="50.38052" lon="3.65471">
        <ele>45.7999268</ele>
        <time>2011-12-04T07:52:38Z</time>
      </trkpt>
      <trkpt lat="50.38057" lon="3.65578">
        <ele>46.2806396</ele>
        <time>2011-12-04T07:52:48Z</time>
      </trkpt>
      <trkpt lat="50.3806" lon="3.65704">
        <ele>46.7612305</ele>
        <time>2011-12-04T07:53:00Z</time>
      </trkpt>
      <trkpt lat="50.3806" lon="3.65753">
        <ele>46.7612305</ele>
        <time>2011-12-04T07:53:06Z</time>
      </trkpt>
      <trkpt lat="50.3806" lon="3.6577">
        <ele>46.2806396</ele>
        <time>2011-12-04T07:53:10Z</time>
      </trkpt>
      <trkpt lat="50.3806" lon="3.65773">
        <ele>46.7612305</ele>
        <time>2011-12-04T07:53:14Z</time>
      </trkpt>
      <trkpt lat="50.38059" lon="3.65779">
        <ele>45.7999268</ele>
        <time>2011-12-04T07:53:37Z</time>
      </trkpt>
      <trkpt lat="50.38058" lon="3.658">
        <ele>45.3192139</ele>
        <time>2011-12-04T07:53:41Z</time>
      </trkpt>
      <trkpt lat="50.38055" lon="3.65845">
        <ele>44.838623</ele>
        <time>2011-12-04T07:53:47Z</time>
      </trkpt>
      <trkpt lat="50.38049" lon="3.65899">
        <ele>41.473999</ele>
        <time>2011-12-04T07:53:52Z</time>
      </trkpt>
      <trkpt lat="50.38048" lon="3.65911">
        <ele>41.473999</ele>
        <time>2011-12-04T07:53:53Z</time>
      </trkpt>
      <trkpt lat="50.38043" lon="3.65956">
        <ele>41.473999</ele>
        <time>2011-12-04T07:53:57Z</time>
      </trkpt>
      <trkpt lat="50.38035" lon="3.65993">
        <ele>42.4354248</ele>
        <time>2011-12-04T07:54:00Z</time>
      </trkpt>
      <trkpt lat="50.38028" lon="3.66025">
        <ele>41.9547119</ele>
        <time>2011-12-04T07:54:03Z</time>
      </trkpt>
      <trkpt lat="50.38025" lon="3.66048">
        <ele>41.9547119</ele>
        <time>2011-12-04T07:54:05Z</time>
      </trkpt>
      <trkpt lat="50.38007" lon="3.66105">
        <ele>42.9160156</ele>
        <time>2011-12-04T07:54:10Z</time>
      </trkpt>
      <trkpt lat="50.37993" lon="3.66139">
        <ele>41.473999</ele>
        <time>2011-12-04T07:54:13Z</time>
      </trkpt>
      <trkpt lat="50.3797" lon="3.66229">
        <ele>42.4354248</ele>
        <time>2011-12-04T07:54:20Z</time>
      </trkpt>
      <trkpt lat="50.37962" lon="3.66261">
        <ele>40.0321045</ele>
        <time>2011-12-04T07:54:23Z</time>
      </trkpt>
      <trkpt lat="50.37942" lon="3.66319">
        <ele>36.6674805</ele>
        <time>2011-12-04T07:54:28Z</time>
      </trkpt>
      <trkpt lat="50.37931" lon="3.66347">
        <ele>36.6674805</ele>
        <time>2011-12-04T07:54:31Z</time>
      </trkpt>
      <trkpt lat="50.37906" lon="3.664">
        <ele>34.2641602</ele>
        <time>2011-12-04T07:54:37Z</time>
      </trkpt>
      <trkpt lat="50.37879" lon="3.66443">
        <ele>32.8222656</ele>
        <time>2011-12-04T07:54:42Z</time>
      </trkpt>
      <trkpt lat="50.37842" lon="3.66507">
        <ele>32.3415527</ele>
        <time>2011-12-04T07:54:49Z</time>
      </trkpt>
      <trkpt lat="50.37837" lon="3.66514">
        <ele>32.8222656</ele>
        <time>2011-12-04T07:54:50Z</time>
      </trkpt>
      <trkpt lat="50.37825" lon="3.66553">
        <ele>32.8222656</ele>
        <time>2011-12-04T07:54:54Z</time>
      </trkpt>
      <trkpt lat="50.37824" lon="3.66565">
        <ele>32.8222656</ele>
        <time>2011-12-04T07:54:55Z</time>
      </trkpt>
      <trkpt lat="50.37814" lon="3.66658">
        <ele>33.3028564</ele>
        <time>2011-12-04T07:55:04Z</time>
      </trkpt>
      <trkpt lat="50.3781" lon="3.66688">
        <ele>33.7834473</ele>
        <time>2011-12-04T07:55:07Z</time>
      </trkpt>
      <trkpt lat="50.37794" lon="3.66715">
        <ele>33.7834473</ele>
        <time>2011-12-04T07:55:11Z</time>
      </trkpt>
      <trkpt lat="50.37781" lon="3.66718">
        <ele>33.7834473</ele>
        <time>2011-12-04T07:55:13Z</time>
      </trkpt>
      <trkpt lat="50.37757" lon="3.66719">
        <ele>33.3028564</ele>
        <time>2011-12-04T07:55:17Z</time>
      </trkpt>
      <trkpt lat="50.3773" lon="3.66737">
        <ele>33.3028564</ele>
        <time>2011-12-04T07:55:22Z</time>
      </trkpt>
      <trkpt lat="50.37692" lon="3.66789">
        <ele>34.2641602</ele>
        <time>2011-12-04T07:55:31Z</time>
      </trkpt>
      <trkpt lat="50.37689" lon="3.66795">
        <ele>34.2641602</ele>
        <time>2011-12-04T07:55:32Z</time>
      </trkpt>
      <trkpt lat="50.37675" lon="3.6684">
        <ele>35.7060547</ele>
        <time>2011-12-04T07:55:38Z</time>
      </trkpt>
      <trkpt lat="50.37668" lon="3.66897">
        <ele>37.6286621</ele>
        <time>2011-12-04T07:55:45Z</time>
      </trkpt>
      <trkpt lat="50.37654" lon="3.66954">
        <ele>38.5900879</ele>
        <time>2011-12-04T07:55:52Z</time>
      </trkpt>
      <trkpt lat="50.37634" lon="3.67002">
        <ele>40.0321045</ele>
        <time>2011-12-04T07:55:59Z</time>
      </trkpt>
      <trkpt lat="50.37621" lon="3.67037">
        <ele>41.9547119</ele>
        <time>2011-12-04T07:56:04Z</time>
      </trkpt>
      <trkpt lat="50.37597" lon="3.67089">
        <ele>44.3580322</ele>
        <time>2011-12-04T07:56:12Z</time>
      </trkpt>
      <trkpt lat="50.37563" lon="3.67149">
        <ele>46.2806396</ele>
        <time>2011-12-04T07:56:22Z</time>
      </trkpt>
      <trkpt lat="50.37529" lon="3.67209">
        <ele>47.2418213</ele>
        <time>2011-12-04T07:56:32Z</time>
      </trkpt>
      <trkpt lat="50.37517" lon="3.67232">
        <ele>47.7225342</ele>
        <time>2011-12-04T07:56:36Z</time>
      </trkpt>
      <trkpt lat="50.37503" lon="3.67242">
        <ele>47.7225342</ele>
        <time>2011-12-04T07:56:40Z</time>
      </trkpt>
      <trkpt lat="50.37494" lon="3.67231">
        <ele>47.2418213</ele>
        <time>2011-12-04T07:56:43Z</time>
      </trkpt>
      <trkpt lat="50.37486" lon="3.67215">
        <ele>46.7612305</ele>
        <time>2011-12-04T07:56:46Z</time>
      </trkpt>
      <trkpt lat="50.3747" lon="3.67177">
        <ele>47.2418213</ele>
        <time>2011-12-04T07:56:52Z</time>
      </trkpt>
      <trkpt lat="50.37443" lon="3.67109">
        <ele>47.7225342</ele>
        <time>2011-12-04T07:57:02Z</time>
      </trkpt>
      <trkpt lat="50.37421" lon="3.67045">
        <ele>48.2033691</ele>
        <time>2011-12-04T07:57:11Z</time>
      </trkpt>
      <trkpt lat="50.37398" lon="3.67004">
        <ele>48.68396</ele>
        <time>2011-12-04T07:57:18Z</time>
      </trkpt>
      <trkpt lat="50.37359" lon="3.66944">
        <ele>49.1645508</ele>
        <time>2011-12-04T07:57:29Z</time>
      </trkpt>
      <trkpt lat="50.37326" lon="3.66892">
        <ele>49.1645508</ele>
        <time>2011-12-04T07:57:38Z</time>
      </trkpt>
      <trkpt lat="50.37294" lon="3.66843">
        <ele>48.2033691</ele>
        <time>2011-12-04T07:57:46Z</time>
      </trkpt>
      <trkpt lat="50.37264" lon="3.66798">
        <ele>47.2418213</ele>
        <time>2011-12-04T07:57:53Z</time>
      </trkpt>
      <trkpt lat="50.37242" lon="3.66738">
        <ele>46.7612305</ele>
        <time>2011-12-04T07:58:00Z</time>
      </trkpt>
      <trkpt lat="50.37216" lon="3.66672">
        <ele>47.2418213</ele>
        <time>2011-12-04T07:58:08Z</time>
      </trkpt>
      <trkpt lat="50.37176" lon="3.66611">
        <ele>46.7612305</ele>
        <time>2011-12-04T07:58:17Z</time>
      </trkpt>
      <trkpt lat="50.37117" lon="3.66552">
        <ele>45.3192139</ele>
        <time>2011-12-04T07:58:28Z</time>
      </trkpt>
      <trkpt lat="50.3707" lon="3.66503">
        <ele>44.3580322</ele>
        <time>2011-12-04T07:58:37Z</time>
      </trkpt>
      <trkpt lat="50.37037" lon="3.66455">
        <ele>43.3966064</ele>
        <time>2011-12-04T07:58:44Z</time>
      </trkpt>
      <trkpt lat="50.37004" lon="3.66418">
        <ele>42.9160156</ele>
        <time>2011-12-04T07:58:50Z</time>
      </trkpt>
      <trkpt lat="50.36958" lon="3.66379">
        <ele>43.3966064</ele>
        <time>2011-12-04T07:58:58Z</time>
      </trkpt>
      <trkpt lat="50.36917" lon="3.66336">
        <ele>44.3580322</ele>
        <time>2011-12-04T07:59:06Z</time>
      </trkpt>
      <trkpt lat="50.36881" lon="3.66291">
        <ele>45.7999268</ele>
        <time>2011-12-04T07:59:14Z</time>
      </trkpt>
      <trkpt lat="50.36862" lon="3.66273">
        <ele>45.7999268</ele>
        <time>2011-12-04T07:59:18Z</time>
      </trkpt>
      <trkpt lat="50.36849" lon="3.66257">
        <ele>46.2806396</ele>
        <time>2011-12-04T07:59:21Z</time>
      </trkpt>
      <trkpt lat="50.36821" lon="3.66228">
        <ele>45.3192139</ele>
        <time>2011-12-04T07:59:28Z</time>
      </trkpt>
      <trkpt lat="50.36795" lon="3.66204">
        <ele>46.2806396</ele>
        <time>2011-12-04T07:59:34Z</time>
      </trkpt>
      <trkpt lat="50.36758" lon="3.66179">
        <ele>47.7225342</ele>
        <time>2011-12-04T07:59:42Z</time>
      </trkpt>
      <trkpt lat="50.36753" lon="3.66175">
        <ele>47.7225342</ele>
        <time>2011-12-04T07:59:43Z</time>
      </trkpt>
      <trkpt lat="50.36716" lon="3.66155">
        <ele>50.6065674</ele>
        <time>2011-12-04T07:59:51Z</time>
      </trkpt>
      <trkpt lat="50.36693" lon="3.66143">
        <ele>51.5678711</ele>
        <time>2011-12-04T07:59:56Z</time>
      </trkpt>
      <trkpt lat="50.36659" lon="3.66122">
        <ele>53.9711914</ele>
        <time>2011-12-04T08:00:04Z</time>
      </trkpt>
      <trkpt lat="50.36629" lon="3.66104">
        <ele>55.8937988</ele>
        <time>2011-12-04T08:00:11Z</time>
      </trkpt>
      <trkpt lat="50.36623" lon="3.66083">
        <ele>56.8551025</ele>
        <time>2011-12-04T08:00:15Z</time>
      </trkpt>
      <trkpt lat="50.36627" lon="3.6607">
        <ele>56.3745117</ele>
        <time>2011-12-04T08:00:17Z</time>
      </trkpt>
      <trkpt lat="50.36646" lon="3.66014">
        <ele>53.9711914</ele>
        <time>2011-12-04T08:00:24Z</time>
      </trkpt>
      <trkpt lat="50.36668" lon="3.65949">
        <ele>52.5291748</ele>
        <time>2011-12-04T08:00:31Z</time>
      </trkpt>
      <trkpt lat="50.36696" lon="3.65868">
        <ele>51.0871582</ele>
        <time>2011-12-04T08:00:39Z</time>
      </trkpt>
      <trkpt lat="50.36736" lon="3.65755">
        <ele>50.1259766</ele>
        <time>2011-12-04T08:00:50Z</time>
      </trkpt>
      <trkpt lat="50.36763" lon="3.65677">
        <ele>49.1645508</ele>
        <time>2011-12-04T08:00:58Z</time>
      </trkpt>
      <trkpt lat="50.36766" lon="3.65667">
        <ele>49.1645508</ele>
        <time>2011-12-04T08:00:59Z</time>
      </trkpt>
      <trkpt lat="50.36772" lon="3.6565">
        <ele>48.68396</ele>
        <time>2011-12-04T08:01:01Z</time>
      </trkpt>
      <trkpt lat="50.36782" lon="3.65616">
        <ele>47.2418213</ele>
        <time>2011-12-04T08:01:05Z</time>
      </trkpt>
      <trkpt lat="50.36776" lon="3.65599">
        <ele>46.7612305</ele>
        <time>2011-12-04T08:01:07Z</time>
      </trkpt>
      <trkpt lat="50.36768" lon="3.65584">
        <ele>45.7999268</ele>
        <time>2011-12-04T08:01:09Z</time>
      </trkpt>
      <trkpt lat="50.36738" lon="3.65543">
        <ele>44.3580322</ele>
        <time>2011-12-04T08:01:15Z</time>
      </trkpt>
      <trkpt lat="50.36692" lon="3.65507">
        <ele>41.9547119</ele>
        <time>2011-12-04T08:01:22Z</time>
      </trkpt>
      <trkpt lat="50.36671" lon="3.65495">
        <ele>40.5128174</ele>
        <time>2011-12-04T08:01:25Z</time>
      </trkpt>
      <trkpt lat="50.36649" lon="3.65488">
        <ele>39.0706787</ele>
        <time>2011-12-04T08:01:28Z</time>
      </trkpt>
      <trkpt lat="50.36631" lon="3.65482">
        <ele>37.6286621</ele>
        <time>2011-12-04T08:01:31Z</time>
      </trkpt>
      <trkpt lat="50.36599" lon="3.6546">
        <ele>37.1480713</ele>
        <time>2011-12-04T08:01:38Z</time>
      </trkpt>
      <trkpt lat="50.36563" lon="3.65434">
        <ele>38.5900879</ele>
        <time>2011-12-04T08:01:46Z</time>
      </trkpt>
      <trkpt lat="50.36519" lon="3.65407">
        <ele>40.0321045</ele>
        <time>2011-12-04T08:01:55Z</time>
      </trkpt>
      <trkpt lat="50.36488" lon="3.65389">
        <ele>40.0321045</ele>
        <time>2011-12-04T08:02:01Z</time>
      </trkpt>
      <trkpt lat="50.36433" lon="3.65364">
        <ele>40.5128174</ele>
        <time>2011-12-04T08:02:11Z</time>
      </trkpt>
      <trkpt lat="50.36394" lon="3.65349">
        <ele>40.0321045</ele>
        <time>2011-12-04T08:02:18Z</time>
      </trkpt>
      <trkpt lat="50.36341" lon="3.65327">
        <ele>39.5512695</ele>
        <time>2011-12-04T08:02:28Z</time>
      </trkpt>
      <trkpt lat="50.36293" lon="3.65313">
        <ele>40.0321045</ele>
        <time>2011-12-04T08:02:37Z</time>
      </trkpt>
      <trkpt lat="50.36257" lon="3.6531">
        <ele>40.5128174</ele>
        <time>2011-12-04T08:02:44Z</time>
      </trkpt>
      <trkpt lat="50.36223" lon="3.65305">
        <ele>41.473999</ele>
        <time>2011-12-04T08:02:51Z</time>
      </trkpt>
      <trkpt lat="50.36191" lon="3.6529">
        <ele>42.4354248</ele>
        <time>2011-12-04T08:02:58Z</time>
      </trkpt>
      <trkpt lat="50.36168" lon="3.65278">
        <ele>42.9160156</ele>
        <time>2011-12-04T08:03:03Z</time>
      </trkpt>
      <trkpt lat="50.36118" lon="3.65253">
        <ele>43.3966064</ele>
        <time>2011-12-04T08:03:13Z</time>
      </trkpt>
      <trkpt lat="50.36067" lon="3.65232">
        <ele>43.3966064</ele>
        <time>2011-12-04T08:03:23Z</time>
      </trkpt>
      <trkpt lat="50.36026" lon="3.65216">
        <ele>43.3966064</ele>
        <time>2011-12-04T08:03:31Z</time>
      </trkpt>
      <trkpt lat="50.35984" lon="3.652">
        <ele>43.3966064</ele>
        <time>2011-12-04T08:03:39Z</time>
      </trkpt>
      <trkpt lat="50.35938" lon="3.6518">
        <ele>43.3966064</ele>
        <time>2011-12-04T08:03:48Z</time>
      </trkpt>
      <trkpt lat="50.35894" lon="3.65157">
        <ele>42.4354248</ele>
        <time>2011-12-04T08:03:56Z</time>
      </trkpt>
      <trkpt lat="50.35854" lon="3.6513">
        <ele>42.9160156</ele>
        <time>2011-12-04T08:04:04Z</time>
      </trkpt>
      <trkpt lat="50.35817" lon="3.65122">
        <ele>43.3966064</ele>
        <time>2011-12-04T08:04:11Z</time>
      </trkpt>
      <trkpt lat="50.35769" lon="3.65111">
        <ele>43.3966064</ele>
        <time>2011-12-04T08:04:20Z</time>
      </trkpt>
      <trkpt lat="50.35722" lon="3.65107">
        <ele>43.3966064</ele>
        <time>2011-12-04T08:04:29Z</time>
      </trkpt>
      <trkpt lat="50.35676" lon="3.6511">
        <ele>44.838623</ele>
        <time>2011-12-04T08:04:38Z</time>
      </trkpt>
      <trkpt lat="50.35641" lon="3.65117">
        <ele>45.7999268</ele>
        <time>2011-12-04T08:04:45Z</time>
      </trkpt>
      <trkpt lat="50.35627" lon="3.65132">
        <ele>46.7612305</ele>
        <time>2011-12-04T08:04:49Z</time>
      </trkpt>
      <trkpt lat="50.3562" lon="3.65156">
        <ele>47.7225342</ele>
        <time>2011-12-04T08:04:53Z</time>
      </trkpt>
      <trkpt lat="50.35618" lon="3.65172">
        <ele>48.2033691</ele>
        <time>2011-12-04T08:04:56Z</time>
      </trkpt>
      <trkpt lat="50.35611" lon="3.652">
        <ele>49.6452637</ele>
        <time>2011-12-04T08:05:02Z</time>
      </trkpt>
      <trkpt lat="50.35606" lon="3.65222">
        <ele>51.0871582</ele>
        <time>2011-12-04T08:05:07Z</time>
      </trkpt>
      <trkpt lat="50.35597" lon="3.65248">
        <ele>52.048584</ele>
        <time>2011-12-04T08:05:13Z</time>
      </trkpt>
      <trkpt lat="50.35593" lon="3.65257">
        <ele>52.048584</ele>
        <time>2011-12-04T08:05:16Z</time>
      </trkpt>
      <trkpt lat="50.35583" lon="3.65278">
        <ele>53.0097656</ele>
        <time>2011-12-04T08:05:23Z</time>
      </trkpt>
      <trkpt lat="50.35576" lon="3.65294">
        <ele>53.4904785</ele>
        <time>2011-12-04T08:05:28Z</time>
      </trkpt>
      <trkpt lat="50.3557" lon="3.65307">
        <ele>53.4904785</ele>
        <time>2011-12-04T08:05:33Z</time>
      </trkpt>
      <trkpt lat="50.35565" lon="3.65321">
        <ele>53.0097656</ele>
        <time>2011-12-04T08:05:38Z</time>
      </trkpt>
      <trkpt lat="50.35559" lon="3.65333">
        <ele>55.4130859</ele>
        <time>2011-12-04T08:05:42Z</time>
      </trkpt>
      <trkpt lat="50.35553" lon="3.65349">
        <ele>57.8165283</ele>
        <time>2011-12-04T08:05:47Z</time>
      </trkpt>
      <trkpt lat="50.35551" lon="3.65365">
        <ele>60.7003174</ele>
        <time>2011-12-04T08:05:52Z</time>
      </trkpt>
      <trkpt lat="50.35549" lon="3.65385">
        <ele>65.5070801</ele>
        <time>2011-12-04T08:05:58Z</time>
      </trkpt>
      <trkpt lat="50.35547" lon="3.65403">
        <ele>65.0263672</ele>
        <time>2011-12-04T08:06:04Z</time>
      </trkpt>
      <trkpt lat="50.35545" lon="3.65419">
        <ele>63.1036377</ele>
        <time>2011-12-04T08:06:09Z</time>
      </trkpt>
      <trkpt lat="50.35541" lon="3.65443">
        <ele>63.1036377</ele>
        <time>2011-12-04T08:06:16Z</time>
      </trkpt>
      <trkpt lat="50.35537" lon="3.65463">
        <ele>65.0263672</ele>
        <time>2011-12-04T08:06:22Z</time>
      </trkpt>
      <trkpt lat="50.35533" lon="3.65479">
        <ele>65.9876709</ele>
        <time>2011-12-04T08:06:28Z</time>
      </trkpt>
      <trkpt lat="50.35527" lon="3.65485">
        <ele>66.9489746</ele>
        <time>2011-12-04T08:06:33Z</time>
      </trkpt>
      <trkpt lat="50.35519" lon="3.65485">
        <ele>67.9102783</ele>
        <time>2011-12-04T08:06:38Z</time>
      </trkpt>
      <trkpt lat="50.35499" lon="3.65472">
        <ele>68.3908691</ele>
        <time>2011-12-04T08:06:46Z</time>
      </trkpt>
      <trkpt lat="50.35476" lon="3.65459">
        <ele>68.3908691</ele>
        <time>2011-12-04T08:06:53Z</time>
      </trkpt>
      <trkpt lat="50.3544" lon="3.65439">
        <ele>67.9102783</ele>
        <time>2011-12-04T08:07:03Z</time>
      </trkpt>
      <trkpt lat="50.35404" lon="3.65422">
        <ele>67.4296875</ele>
        <time>2011-12-04T08:07:12Z</time>
      </trkpt>
      <trkpt lat="50.3536" lon="3.65402">
        <ele>66.4682617</ele>
        <time>2011-12-04T08:07:23Z</time>
      </trkpt>
      <trkpt lat="50.35318" lon="3.65382">
        <ele>66.4682617</ele>
        <time>2011-12-04T08:07:33Z</time>
      </trkpt>
      <trkpt lat="50.35302" lon="3.65373">
        <ele>66.4682617</ele>
        <time>2011-12-04T08:07:37Z</time>
      </trkpt>
      <trkpt lat="50.35292" lon="3.65381">
        <ele>66.4682617</ele>
        <time>2011-12-04T08:07:41Z</time>
      </trkpt>
      <trkpt lat="50.35296" lon="3.65396">
        <ele>65.9876709</ele>
        <time>2011-12-04T08:07:44Z</time>
      </trkpt>
      <trkpt lat="50.35317" lon="3.6545">
        <ele>65.0263672</ele>
        <time>2011-12-04T08:07:54Z</time>
      </trkpt>
      <trkpt lat="50.35337" lon="3.65502">
        <ele>65.0263672</ele>
        <time>2011-12-04T08:08:03Z</time>
      </trkpt>
      <trkpt lat="50.3535" lon="3.65554">
        <ele>65.9876709</ele>
        <time>2011-12-04T08:08:11Z</time>
      </trkpt>
      <trkpt lat="50.35353" lon="3.65567">
        <ele>65.9876709</ele>
        <time>2011-12-04T08:08:13Z</time>
      </trkpt>
      <trkpt lat="50.35359" lon="3.65601">
        <ele>66.9489746</ele>
        <time>2011-12-04T08:08:18Z</time>
      </trkpt>
      <trkpt lat="50.35371" lon="3.65663">
        <ele>68.871582</ele>
        <time>2011-12-04T08:08:27Z</time>
      </trkpt>
      <trkpt lat="50.3538" lon="3.65719">
        <ele>69.8328857</ele>
        <time>2011-12-04T08:08:35Z</time>
      </trkpt>
      <trkpt lat="50.35388" lon="3.65745">
        <ele>70.3134766</ele>
        <time>2011-12-04T08:08:39Z</time>
      </trkpt>
      <trkpt lat="50.35395" lon="3.65771">
        <ele>69.8328857</ele>
        <time>2011-12-04T08:08:43Z</time>
      </trkpt>
      <trkpt lat="50.35403" lon="3.65791">
        <ele>69.8328857</ele>
        <time>2011-12-04T08:08:46Z</time>
      </trkpt>
      <trkpt lat="50.35413" lon="3.65837">
        <ele>70.3134766</ele>
        <time>2011-12-04T08:08:53Z</time>
      </trkpt>
      <trkpt lat="50.35415" lon="3.65885">
        <ele>71.7554932</ele>
        <time>2011-12-04T08:09:00Z</time>
      </trkpt>
      <trkpt lat="50.35415" lon="3.65892">
        <ele>71.7554932</ele>
        <time>2011-12-04T08:09:01Z</time>
      </trkpt>
      <trkpt lat="50.35415" lon="3.65926">
        <ele>72.7169189</ele>
        <time>2011-12-04T08:09:06Z</time>
      </trkpt>
      <trkpt lat="50.35412" lon="3.65973">
        <ele>74.1588135</ele>
        <time>2011-12-04T08:09:13Z</time>
      </trkpt>
      <trkpt lat="50.35409" lon="3.66042">
        <ele>76.0814209</ele>
        <time>2011-12-04T08:09:23Z</time>
      </trkpt>
      <trkpt lat="50.35406" lon="3.66103">
        <ele>78.0040283</ele>
        <time>2011-12-04T08:09:32Z</time>
      </trkpt>
      <trkpt lat="50.354" lon="3.66164">
        <ele>79.4460449</ele>
        <time>2011-12-04T08:09:41Z</time>
      </trkpt>
      <trkpt lat="50.35394" lon="3.66233">
        <ele>81.8493652</ele>
        <time>2011-12-04T08:09:51Z</time>
      </trkpt>
      <trkpt lat="50.3539" lon="3.66298">
        <ele>81.8493652</ele>
        <time>2011-12-04T08:10:00Z</time>
      </trkpt>
      <trkpt lat="50.35386" lon="3.66356">
        <ele>79.4460449</ele>
        <time>2011-12-04T08:10:06Z</time>
      </trkpt>
      <trkpt lat="50.35381" lon="3.66457">
        <ele>77.5234375</ele>
        <time>2011-12-04T08:10:15Z</time>
      </trkpt>
      <trkpt lat="50.35377" lon="3.66563">
        <ele>76.0814209</ele>
        <time>2011-12-04T08:10:25Z</time>
      </trkpt>
      <trkpt lat="50.35374" lon="3.66651">
        <ele>76.0814209</ele>
        <time>2011-12-04T08:10:34Z</time>
      </trkpt>
      <trkpt lat="50.35373" lon="3.66698">
        <ele>76.0814209</ele>
        <time>2011-12-04T08:10:39Z</time>
      </trkpt>
      <trkpt lat="50.35377" lon="3.66724">
        <ele>76.0814209</ele>
        <time>2011-12-04T08:10:42Z</time>
      </trkpt>
      <trkpt lat="50.35393" lon="3.6674">
        <ele>76.0814209</ele>
        <time>2011-12-04T08:10:46Z</time>
      </trkpt>
      <trkpt lat="50.35408" lon="3.6674">
        <ele>75.6008301</ele>
        <time>2011-12-04T08:10:49Z</time>
      </trkpt>
      <trkpt lat="50.35418" lon="3.6674">
        <ele>75.6008301</ele>
        <time>2011-12-04T08:10:51Z</time>
      </trkpt>
      <trkpt lat="50.35451" lon="3.66741">
        <ele>75.1202393</ele>
        <time>2011-12-04T08:10:59Z</time>
      </trkpt>
      <trkpt lat="50.35478" lon="3.66744">
        <ele>74.6395264</ele>
        <time>2011-12-04T08:11:06Z</time>
      </trkpt>
      <trkpt lat="50.35487" lon="3.66756">
        <ele>74.6395264</ele>
        <time>2011-12-04T08:11:09Z</time>
      </trkpt>
      <trkpt lat="50.35504" lon="3.66793">
        <ele>74.1588135</ele>
        <time>2011-12-04T08:11:16Z</time>
      </trkpt>
      <trkpt lat="50.35514" lon="3.6682">
        <ele>75.1202393</ele>
        <time>2011-12-04T08:11:21Z</time>
      </trkpt>
      <trkpt lat="50.35528" lon="3.66856">
        <ele>75.6008301</ele>
        <time>2011-12-04T08:11:28Z</time>
      </trkpt>
      <trkpt lat="50.35537" lon="3.66879">
        <ele>76.0814209</ele>
        <time>2011-12-04T08:11:33Z</time>
      </trkpt>
      <trkpt lat="50.35546" lon="3.66901">
        <ele>77.0428467</ele>
        <time>2011-12-04T08:11:38Z</time>
      </trkpt>
      <trkpt lat="50.35558" lon="3.66946">
        <ele>77.5234375</ele>
        <time>2011-12-04T08:11:47Z</time>
      </trkpt>
      <trkpt lat="50.35567" lon="3.66996">
        <ele>78.4847412</ele>
        <time>2011-12-04T08:11:56Z</time>
      </trkpt>
      <trkpt lat="50.35572" lon="3.67034">
        <ele>79.9266357</ele>
        <time>2011-12-04T08:12:04Z</time>
      </trkpt>
      <trkpt lat="50.35577" lon="3.67071">
        <ele>80.4074707</ele>
        <time>2011-12-04T08:12:12Z</time>
      </trkpt>
      <trkpt lat="50.35579" lon="3.67099">
        <ele>80.8881836</ele>
        <time>2011-12-04T08:12:19Z</time>
      </trkpt>
      <trkpt lat="50.35576" lon="3.67148">
        <ele>81.3687744</ele>
        <time>2011-12-04T08:12:29Z</time>
      </trkpt>
      <trkpt lat="50.35571" lon="3.67201">
        <ele>80.8881836</ele>
        <time>2011-12-04T08:12:39Z</time>
      </trkpt>
      <trkpt lat="50.35568" lon="3.67221">
        <ele>80.4074707</ele>
        <time>2011-12-04T08:12:44Z</time>
      </trkpt>
      <trkpt lat="50.35567" lon="3.67235">
        <ele>80.4074707</ele>
        <time>2011-12-04T08:12:47Z</time>
      </trkpt>
      <trkpt lat="50.35564" lon="3.67266">
        <ele>79.9266357</ele>
        <time>2011-12-04T08:12:53Z</time>
      </trkpt>
      <trkpt lat="50.35558" lon="3.6731">
        <ele>80.4074707</ele>
        <time>2011-12-04T08:13:01Z</time>
      </trkpt>
      <trkpt lat="50.35548" lon="3.67365">
        <ele>79.9266357</ele>
        <time>2011-12-04T08:13:10Z</time>
      </trkpt>
      <trkpt lat="50.35537" lon="3.67416">
        <ele>79.4460449</ele>
        <time>2011-12-04T08:13:18Z</time>
      </trkpt>
      <trkpt lat="50.35525" lon="3.67467">
        <ele>78.4847412</ele>
        <time>2011-12-04T08:13:26Z</time>
      </trkpt>
      <trkpt lat="50.35516" lon="3.67504">
        <ele>78.4847412</ele>
        <time>2011-12-04T08:13:32Z</time>
      </trkpt>
      <trkpt lat="50.35507" lon="3.6754">
        <ele>78.4847412</ele>
        <time>2011-12-04T08:13:38Z</time>
      </trkpt>
      <trkpt lat="50.35495" lon="3.67604">
        <ele>78.0040283</ele>
        <time>2011-12-04T08:13:48Z</time>
      </trkpt>
      <trkpt lat="50.35489" lon="3.6764">
        <ele>78.0040283</ele>
        <time>2011-12-04T08:13:55Z</time>
      </trkpt>
      <trkpt lat="50.35475" lon="3.67677">
        <ele>77.5234375</ele>
        <time>2011-12-04T08:14:01Z</time>
      </trkpt>
      <trkpt lat="50.35472" lon="3.67683">
        <ele>77.5234375</ele>
        <time>2011-12-04T08:14:02Z</time>
      </trkpt>
      <trkpt lat="50.35462" lon="3.67723">
        <ele>78.0040283</ele>
        <time>2011-12-04T08:14:08Z</time>
      </trkpt>
      <trkpt lat="50.35445" lon="3.67774">
        <ele>79.4460449</ele>
        <time>2011-12-04T08:14:17Z</time>
      </trkpt>
      <trkpt lat="50.35428" lon="3.67825">
        <ele>79.9266357</ele>
        <time>2011-12-04T08:14:26Z</time>
      </trkpt>
      <trkpt lat="50.35412" lon="3.67888">
        <ele>79.9266357</ele>
        <time>2011-12-04T08:14:35Z</time>
      </trkpt>
      <trkpt lat="50.35396" lon="3.67945">
        <ele>78.9654541</ele>
        <time>2011-12-04T08:14:42Z</time>
      </trkpt>
      <trkpt lat="50.35371" lon="3.68012">
        <ele>77.5234375</ele>
        <time>2011-12-04T08:14:50Z</time>
      </trkpt>
      <trkpt lat="50.35348" lon="3.68072">
        <ele>76.0814209</ele>
        <time>2011-12-04T08:14:57Z</time>
      </trkpt>
      <trkpt lat="50.35326" lon="3.6814">
        <ele>72.2362061</ele>
        <time>2011-12-04T08:15:03Z</time>
      </trkpt>
      <trkpt lat="50.35298" lon="3.68208">
        <ele>68.3908691</ele>
        <time>2011-12-04T08:15:08Z</time>
      </trkpt>
      <trkpt lat="50.35276" lon="3.6825">
        <ele>65.9876709</ele>
        <time>2011-12-04T08:15:11Z</time>
      </trkpt>
      <trkpt lat="50.35254" lon="3.6831">
        <ele>63.1036377</ele>
        <time>2011-12-04T08:15:15Z</time>
      </trkpt>
      <trkpt lat="50.35235" lon="3.68386">
        <ele>59.2584229</ele>
        <time>2011-12-04T08:15:20Z</time>
      </trkpt>
      <trkpt lat="50.35231" lon="3.68413">
        <ele>58.2971191</ele>
        <time>2011-12-04T08:15:23Z</time>
      </trkpt>
      <trkpt lat="50.3523" lon="3.68418">
        <ele>58.2971191</ele>
        <time>2011-12-04T08:15:24Z</time>
      </trkpt>
      <trkpt lat="50.35222" lon="3.6842">
        <ele>57.3358154</ele>
        <time>2011-12-04T08:15:28Z</time>
      </trkpt>
      <trkpt lat="50.35202" lon="3.68397">
        <ele>57.8165283</ele>
        <time>2011-12-04T08:15:35Z</time>
      </trkpt>
      <trkpt lat="50.35181" lon="3.68376">
        <ele>58.2971191</ele>
        <time>2011-12-04T08:15:41Z</time>
      </trkpt>
      <trkpt lat="50.35171" lon="3.68364">
        <ele>58.2971191</ele>
        <time>2011-12-04T08:15:44Z</time>
      </trkpt>
      <trkpt lat="50.35149" lon="3.68346">
        <ele>59.7391357</ele>
        <time>2011-12-04T08:15:50Z</time>
      </trkpt>
      <trkpt lat="50.35134" lon="3.68337">
        <ele>60.2197266</ele>
        <time>2011-12-04T08:15:54Z</time>
      </trkpt>
      <trkpt lat="50.35103" lon="3.68329">
        <ele>61.1810303</ele>
        <time>2011-12-04T08:16:02Z</time>
      </trkpt>
      <trkpt lat="50.35085" lon="3.68324">
        <ele>61.6617432</ele>
        <time>2011-12-04T08:16:07Z</time>
      </trkpt>
      <trkpt lat="50.35067" lon="3.68308">
        <ele>62.142334</ele>
        <time>2011-12-04T08:16:13Z</time>
      </trkpt>
      <trkpt lat="50.3505" lon="3.68297">
        <ele>62.142334</ele>
        <time>2011-12-04T08:16:18Z</time>
      </trkpt>
      <trkpt lat="50.35038" lon="3.68301">
        <ele>62.142334</ele>
        <time>2011-12-04T08:16:22Z</time>
      </trkpt>
      <trkpt lat="50.35017" lon="3.68304">
        <ele>62.142334</ele>
        <time>2011-12-04T08:16:28Z</time>
      </trkpt>
      <trkpt lat="50.34995" lon="3.68294">
        <ele>62.142334</ele>
        <time>2011-12-04T08:16:35Z</time>
      </trkpt>
      <trkpt lat="50.34973" lon="3.68292">
        <ele>63.1036377</ele>
        <time>2011-12-04T08:16:42Z</time>
      </trkpt>
      <trkpt lat="50.34954" lon="3.68302">
        <ele>63.5843506</ele>
        <time>2011-12-04T08:16:48Z</time>
      </trkpt>
      <trkpt lat="50.34933" lon="3.68308">
        <ele>64.0650635</ele>
        <time>2011-12-04T08:16:55Z</time>
      </trkpt>
      <trkpt lat="50.34916" lon="3.68306">
        <ele>64.5456543</ele>
        <time>2011-12-04T08:17:02Z</time>
      </trkpt>
      <trkpt lat="50.34911" lon="3.68305">
        <ele>65.5070801</ele>
        <time>2011-12-04T08:17:06Z</time>
      </trkpt>
      <trkpt lat="50.3491" lon="3.68304">
        <ele>65.5070801</ele>
        <time>2011-12-04T08:17:08Z</time>
      </trkpt>
      <trkpt lat="50.34898" lon="3.68298">
        <ele>65.0263672</ele>
        <time>2011-12-04T08:17:14Z</time>
      </trkpt>
      <trkpt lat="50.34878" lon="3.68291">
        <ele>64.0650635</ele>
        <time>2011-12-04T08:17:21Z</time>
      </trkpt>
      <trkpt lat="50.34865" lon="3.68282">
        <ele>64.5456543</ele>
        <time>2011-12-04T08:17:27Z</time>
      </trkpt>
      <trkpt lat="50.34848" lon="3.68271">
        <ele>65.0263672</ele>
        <time>2011-12-04T08:17:35Z</time>
      </trkpt>
      <trkpt lat="50.34835" lon="3.68264">
        <ele>65.9876709</ele>
        <time>2011-12-04T08:17:41Z</time>
      </trkpt>
      <trkpt lat="50.34827" lon="3.68261">
        <ele>66.4682617</ele>
        <time>2011-12-04T08:17:46Z</time>
      </trkpt>
      <trkpt lat="50.34815" lon="3.68259">
        <ele>67.9102783</ele>
        <time>2011-12-04T08:17:52Z</time>
      </trkpt>
      <trkpt lat="50.348" lon="3.68258">
        <ele>67.9102783</ele>
        <time>2011-12-04T08:17:58Z</time>
      </trkpt>
      <trkpt lat="50.34798" lon="3.68265">
        <ele>67.9102783</ele>
        <time>2011-12-04T08:18:03Z</time>
      </trkpt>
      <trkpt lat="50.34798" lon="3.68282">
        <ele>68.871582</ele>
        <time>2011-12-04T08:18:09Z</time>
      </trkpt>
      <trkpt lat="50.34794" lon="3.68306">
        <ele>69.3522949</ele>
        <time>2011-12-04T08:18:15Z</time>
      </trkpt>
      <trkpt lat="50.34791" lon="3.68335">
        <ele>71.2749023</ele>
        <time>2011-12-04T08:18:22Z</time>
      </trkpt>
      <trkpt lat="50.34786" lon="3.6836">
        <ele>72.7169189</ele>
        <time>2011-12-04T08:18:28Z</time>
      </trkpt>
      <trkpt lat="50.34779" lon="3.68399">
        <ele>73.6782227</ele>
        <time>2011-12-04T08:18:37Z</time>
      </trkpt>
      <trkpt lat="50.34773" lon="3.6844">
        <ele>74.6395264</ele>
        <time>2011-12-04T08:18:46Z</time>
      </trkpt>
      <trkpt lat="50.34769" lon="3.68479">
        <ele>73.6782227</ele>
        <time>2011-12-04T08:18:53Z</time>
      </trkpt>
      <trkpt lat="50.34768" lon="3.68523">
        <ele>72.2362061</ele>
        <time>2011-12-04T08:18:58Z</time>
      </trkpt>
      <trkpt lat="50.34765" lon="3.68584">
        <ele>69.8328857</ele>
        <time>2011-12-04T08:19:03Z</time>
      </trkpt>
      <trkpt lat="50.34767" lon="3.68654">
        <ele>66.4682617</ele>
        <time>2011-12-04T08:19:08Z</time>
      </trkpt>
      <trkpt lat="50.34777" lon="3.68735">
        <ele>63.1036377</ele>
        <time>2011-12-04T08:19:14Z</time>
      </trkpt>
      <trkpt lat="50.3479" lon="3.68801">
        <ele>61.6617432</ele>
        <time>2011-12-04T08:19:20Z</time>
      </trkpt>
      <trkpt lat="50.34795" lon="3.68834">
        <ele>60.7003174</ele>
        <time>2011-12-04T08:19:24Z</time>
      </trkpt>
      <trkpt lat="50.34795" lon="3.68839">
        <ele>60.7003174</ele>
        <time>2011-12-04T08:19:25Z</time>
      </trkpt>
      <trkpt lat="50.34804" lon="3.68864">
        <ele>60.2197266</ele>
        <time>2011-12-04T08:19:30Z</time>
      </trkpt>
      <trkpt lat="50.34827" lon="3.68916">
        <ele>59.2584229</ele>
        <time>2011-12-04T08:19:38Z</time>
      </trkpt>
      <trkpt lat="50.34848" lon="3.68974">
        <ele>59.2584229</ele>
        <time>2011-12-04T08:19:46Z</time>
      </trkpt>
      <trkpt lat="50.34858" lon="3.68989">
        <ele>59.2584229</ele>
        <time>2011-12-04T08:19:49Z</time>
      </trkpt>
      <trkpt lat="50.34878" lon="3.69006">
        <ele>61.1810303</ele>
        <time>2011-12-04T08:19:56Z</time>
      </trkpt>
      <trkpt lat="50.34891" lon="3.69024">
        <ele>64.0650635</ele>
        <time>2011-12-04T08:20:03Z</time>
      </trkpt>
      <trkpt lat="50.34903" lon="3.69039">
        <ele>65.9876709</ele>
        <time>2011-12-04T08:20:09Z</time>
      </trkpt>
      <trkpt lat="50.34917" lon="3.69058">
        <ele>67.4296875</ele>
        <time>2011-12-04T08:20:16Z</time>
      </trkpt>
      <trkpt lat="50.3493" lon="3.6907">
        <ele>69.3522949</ele>
        <time>2011-12-04T08:20:22Z</time>
      </trkpt>
      <trkpt lat="50.34947" lon="3.69078">
        <ele>70.7941895</ele>
        <time>2011-12-04T08:20:28Z</time>
      </trkpt>
      <trkpt lat="50.34967" lon="3.69087">
        <ele>70.7941895</ele>
        <time>2011-12-04T08:20:34Z</time>
      </trkpt>
      <trkpt lat="50.34994" lon="3.69099">
        <ele>69.8328857</ele>
        <time>2011-12-04T08:20:40Z</time>
      </trkpt>
      <trkpt lat="50.35003" lon="3.69116">
        <ele>68.871582</ele>
        <time>2011-12-04T08:20:44Z</time>
      </trkpt>
      <trkpt lat="50.35002" lon="3.69132">
        <ele>68.3908691</ele>
        <time>2011-12-04T08:20:47Z</time>
      </trkpt>
      <trkpt lat="50.34994" lon="3.69179">
        <ele>69.3522949</ele>
        <time>2011-12-04T08:20:55Z</time>
      </trkpt>
      <trkpt lat="50.34991" lon="3.69216">
        <ele>71.2749023</ele>
        <time>2011-12-04T08:21:01Z</time>
      </trkpt>
      <trkpt lat="50.34984" lon="3.69251">
        <ele>72.2362061</ele>
        <time>2011-12-04T08:21:07Z</time>
      </trkpt>
      <trkpt lat="50.34971" lon="3.69263">
        <ele>73.1976318</ele>
        <time>2011-12-04T08:21:11Z</time>
      </trkpt>
      <trkpt lat="50.34951" lon="3.6927">
        <ele>73.6782227</ele>
        <time>2011-12-04T08:21:16Z</time>
      </trkpt>
      <trkpt lat="50.34929" lon="3.69278">
        <ele>75.1202393</ele>
        <time>2011-12-04T08:21:22Z</time>
      </trkpt>
      <trkpt lat="50.3491" lon="3.69283">
        <ele>75.6008301</ele>
        <time>2011-12-04T08:21:27Z</time>
      </trkpt>
      <trkpt lat="50.34888" lon="3.6929">
        <ele>76.5621338</ele>
        <time>2011-12-04T08:21:33Z</time>
      </trkpt>
      <trkpt lat="50.34881" lon="3.69297">
        <ele>77.0428467</ele>
        <time>2011-12-04T08:21:35Z</time>
      </trkpt>
      <trkpt lat="50.34876" lon="3.69318">
        <ele>78.0040283</ele>
        <time>2011-12-04T08:21:39Z</time>
      </trkpt>
      <trkpt lat="50.34878" lon="3.69364">
        <ele>79.9266357</ele>
        <time>2011-12-04T08:21:47Z</time>
      </trkpt>
      <trkpt lat="50.34879" lon="3.69411">
        <ele>80.4074707</ele>
        <time>2011-12-04T08:21:55Z</time>
      </trkpt>
      <trkpt lat="50.34881" lon="3.69471">
        <ele>81.3687744</ele>
        <time>2011-12-04T08:22:05Z</time>
      </trkpt>
      <trkpt lat="50.34884" lon="3.69508">
        <ele>81.8493652</ele>
        <time>2011-12-04T08:22:12Z</time>
      </trkpt>
      <trkpt lat="50.34884" lon="3.69542">
        <ele>82.3300781</ele>
        <time>2011-12-04T08:22:18Z</time>
      </trkpt>
      <trkpt lat="50.34886" lon="3.69576">
        <ele>82.810791</ele>
        <time>2011-12-04T08:22:24Z</time>
      </trkpt>
      <trkpt lat="50.34886" lon="3.69617">
        <ele>83.2913818</ele>
        <time>2011-12-04T08:22:31Z</time>
      </trkpt>
      <trkpt lat="50.34889" lon="3.69651">
        <ele>83.2913818</ele>
        <time>2011-12-04T08:22:37Z</time>
      </trkpt>
      <trkpt lat="50.34897" lon="3.69702">
        <ele>83.2913818</ele>
        <time>2011-12-04T08:22:46Z</time>
      </trkpt>
      <trkpt lat="50.34907" lon="3.6976">
        <ele>81.3687744</ele>
        <time>2011-12-04T08:22:55Z</time>
      </trkpt>
      <trkpt lat="50.34909" lon="3.69774">
        <ele>80.8881836</ele>
        <time>2011-12-04T08:22:57Z</time>
      </trkpt>
      <trkpt lat="50.34912" lon="3.69824">
        <ele>78.4847412</ele>
        <time>2011-12-04T08:23:03Z</time>
      </trkpt>
      <trkpt lat="50.34915" lon="3.69864">
        <ele>76.5621338</ele>
        <time>2011-12-04T08:23:08Z</time>
      </trkpt>
      <trkpt lat="50.34914" lon="3.69876">
        <ele>76.0814209</ele>
        <time>2011-12-04T08:23:12Z</time>
      </trkpt>
      <trkpt lat="50.34914" lon="3.69878">
        <ele>75.6008301</ele>
        <time>2011-12-04T08:23:16Z</time>
      </trkpt>
      <trkpt lat="50.34913" lon="3.69883">
        <ele>74.6395264</ele>
        <time>2011-12-04T08:23:21Z</time>
      </trkpt>
      <trkpt lat="50.34913" lon="3.69886">
        <ele>74.1588135</ele>
        <time>2011-12-04T08:23:22Z</time>
      </trkpt>
      <trkpt lat="50.3491" lon="3.69914">
        <ele>71.7554932</ele>
        <time>2011-12-04T08:23:29Z</time>
      </trkpt>
      <trkpt lat="50.34905" lon="3.69951">
        <ele>68.871582</ele>
        <time>2011-12-04T08:23:35Z</time>
      </trkpt>
      <trkpt lat="50.34899" lon="3.69988">
        <ele>66.9489746</ele>
        <time>2011-12-04T08:23:41Z</time>
      </trkpt>
      <trkpt lat="50.34897" lon="3.70009">
        <ele>65.9876709</ele>
        <time>2011-12-04T08:23:46Z</time>
      </trkpt>
      <trkpt lat="50.34898" lon="3.70031">
        <ele>65.0263672</ele>
        <time>2011-12-04T08:23:53Z</time>
      </trkpt>
      <trkpt lat="50.34898" lon="3.70056">
        <ele>63.5843506</ele>
        <time>2011-12-04T08:23:59Z</time>
      </trkpt>
      <trkpt lat="50.34899" lon="3.70076">
        <ele>62.142334</ele>
        <time>2011-12-04T08:24:04Z</time>
      </trkpt>
      <trkpt lat="50.34899" lon="3.70093">
        <ele>60.7003174</ele>
        <time>2011-12-04T08:24:09Z</time>
      </trkpt>
      <trkpt lat="50.34899" lon="3.70106">
        <ele>59.2584229</ele>
        <time>2011-12-04T08:24:13Z</time>
      </trkpt>
      <trkpt lat="50.349" lon="3.70117">
        <ele>58.2971191</ele>
        <time>2011-12-04T08:24:18Z</time>
      </trkpt>
      <trkpt lat="50.34901" lon="3.70141">
        <ele>56.8551025</ele>
        <time>2011-12-04T08:24:24Z</time>
      </trkpt>
      <trkpt lat="50.34902" lon="3.70155">
        <ele>56.3745117</ele>
        <time>2011-12-04T08:24:27Z</time>
      </trkpt>
      <trkpt lat="50.34902" lon="3.7017">
        <ele>56.8551025</ele>
        <time>2011-12-04T08:24:32Z</time>
      </trkpt>
      <trkpt lat="50.34897" lon="3.70197">
        <ele>55.8937988</ele>
        <time>2011-12-04T08:24:37Z</time>
      </trkpt>
      <trkpt lat="50.34897" lon="3.70222">
        <ele>56.3745117</ele>
        <time>2011-12-04T08:24:41Z</time>
      </trkpt>
      <trkpt lat="50.34899" lon="3.70235">
        <ele>56.8551025</ele>
        <time>2011-12-04T08:24:43Z</time>
      </trkpt>
      <trkpt lat="50.3492" lon="3.70272">
        <ele>57.8165283</ele>
        <time>2011-12-04T08:24:48Z</time>
      </trkpt>
      <trkpt lat="50.34938" lon="3.70295">
        <ele>59.2584229</ele>
        <time>2011-12-04T08:24:52Z</time>
      </trkpt>
      <trkpt lat="50.34948" lon="3.70322">
        <ele>63.1036377</ele>
        <time>2011-12-04T08:24:56Z</time>
      </trkpt>
      <trkpt lat="50.34957" lon="3.70361">
        <ele>64.0650635</ele>
        <time>2011-12-04T08:25:01Z</time>
      </trkpt>
      <trkpt lat="50.34955" lon="3.70392">
        <ele>54.4517822</ele>
        <time>2011-12-04T08:25:04Z</time>
      </trkpt>
      <trkpt lat="50.34953" lon="3.70435">
        <ele>47.7225342</ele>
        <time>2011-12-04T08:25:09Z</time>
      </trkpt>
      <trkpt lat="50.3495" lon="3.70442">
        <ele>46.2806396</ele>
        <time>2011-12-04T08:25:11Z</time>
      </trkpt>
      <trkpt lat="50.34933" lon="3.70446">
        <ele>41.9547119</ele>
        <time>2011-12-04T08:25:16Z</time>
      </trkpt>
      <trkpt lat="50.34929" lon="3.70446">
        <ele>41.473999</ele>
        <time>2011-12-04T08:25:17Z</time>
      </trkpt>
      <trkpt lat="50.34907" lon="3.70455">
        <ele>40.5128174</ele>
        <time>2011-12-04T08:25:22Z</time>
      </trkpt>
      <trkpt lat="50.34903" lon="3.70458">
        <ele>40.5128174</ele>
        <time>2011-12-04T08:25:23Z</time>
      </trkpt>
      <trkpt lat="50.34892" lon="3.70464">
        <ele>41.9547119</ele>
        <time>2011-12-04T08:25:26Z</time>
      </trkpt>
      <trkpt lat="50.34885" lon="3.7047">
        <ele>43.8773193</ele>
        <time>2011-12-04T08:25:28Z</time>
      </trkpt>
      <trkpt lat="50.34879" lon="3.70475">
        <ele>46.7612305</ele>
        <time>2011-12-04T08:25:30Z</time>
      </trkpt>
      <trkpt lat="50.34856" lon="3.70496">
        <ele>51.0871582</ele>
        <time>2011-12-04T08:25:36Z</time>
      </trkpt>
      <trkpt lat="50.34852" lon="3.70499">
        <ele>51.0871582</ele>
        <time>2011-12-04T08:25:37Z</time>
      </trkpt>
      <trkpt lat="50.34835" lon="3.70517">
        <ele>53.9711914</ele>
        <time>2011-12-04T08:25:42Z</time>
      </trkpt>
      <trkpt lat="50.34826" lon="3.70528">
        <ele>55.4130859</ele>
        <time>2011-12-04T08:25:45Z</time>
      </trkpt>
      <trkpt lat="50.34811" lon="3.7054">
        <ele>53.4904785</ele>
        <time>2011-12-04T08:25:50Z</time>
      </trkpt>
      <trkpt lat="50.34792" lon="3.70568">
        <ele>54.4517822</ele>
        <time>2011-12-04T08:25:57Z</time>
      </trkpt>
      <trkpt lat="50.34781" lon="3.70582">
        <ele>56.3745117</ele>
        <time>2011-12-04T08:26:01Z</time>
      </trkpt>
      <trkpt lat="50.34767" lon="3.70578">
        <ele>54.4517822</ele>
        <time>2011-12-04T08:26:07Z</time>
      </trkpt>
      <trkpt lat="50.34759" lon="3.70565">
        <ele>56.3745117</ele>
        <time>2011-12-04T08:26:12Z</time>
      </trkpt>
      <trkpt lat="50.34748" lon="3.70541">
        <ele>58.77771</ele>
        <time>2011-12-04T08:26:19Z</time>
      </trkpt>
      <trkpt lat="50.34739" lon="3.70526">
        <ele>64.0650635</ele>
        <time>2011-12-04T08:26:23Z</time>
      </trkpt>
      <trkpt lat="50.34738" lon="3.70517">
        <ele>66.9489746</ele>
        <time>2011-12-04T08:26:27Z</time>
      </trkpt>
      <trkpt lat="50.34732" lon="3.70497">
        <ele>73.6782227</ele>
        <time>2011-12-04T08:26:34Z</time>
      </trkpt>
      <trkpt lat="50.3473" lon="3.70494">
        <ele>74.1588135</ele>
        <time>2011-12-04T08:26:35Z</time>
      </trkpt>
      <trkpt lat="50.34729" lon="3.70482">
        <ele>76.5621338</ele>
        <time>2011-12-04T08:26:39Z</time>
      </trkpt>
      <trkpt lat="50.34729" lon="3.70477">
        <ele>77.5234375</ele>
        <time>2011-12-04T08:26:41Z</time>
      </trkpt>
      <trkpt lat="50.34722" lon="3.70463">
        <ele>76.0814209</ele>
        <time>2011-12-04T08:26:45Z</time>
      </trkpt>
      <trkpt lat="50.3471" lon="3.70441">
        <ele>74.1588135</ele>
        <time>2011-12-04T08:26:52Z</time>
      </trkpt>
      <trkpt lat="50.34699" lon="3.70425">
        <ele>74.6395264</ele>
        <time>2011-12-04T08:26:58Z</time>
      </trkpt>
      <trkpt lat="50.34686" lon="3.70413">
        <ele>76.0814209</ele>
        <time>2011-12-04T08:27:03Z</time>
      </trkpt>
      <trkpt lat="50.34678" lon="3.70408">
        <ele>77.0428467</ele>
        <time>2011-12-04T08:27:07Z</time>
      </trkpt>
      <trkpt lat="50.34662" lon="3.70402">
        <ele>76.0814209</ele>
        <time>2011-12-04T08:27:14Z</time>
      </trkpt>
      <trkpt lat="50.34648" lon="3.704">
        <ele>76.0814209</ele>
        <time>2011-12-04T08:27:20Z</time>
      </trkpt>
      <trkpt lat="50.34635" lon="3.70396">
        <ele>75.6008301</ele>
        <time>2011-12-04T08:27:26Z</time>
      </trkpt>
      <trkpt lat="50.34629" lon="3.70397">
        <ele>75.6008301</ele>
        <time>2011-12-04T08:27:29Z</time>
      </trkpt>
      <trkpt lat="50.34619" lon="3.70396">
        <ele>74.1588135</ele>
        <time>2011-12-04T08:27:33Z</time>
      </trkpt>
      <trkpt lat="50.34601" lon="3.7039">
        <ele>74.6395264</ele>
        <time>2011-12-04T08:27:40Z</time>
      </trkpt>
      <trkpt lat="50.34588" lon="3.70378">
        <ele>75.6008301</ele>
        <time>2011-12-04T08:27:46Z</time>
      </trkpt>
      <trkpt lat="50.34574" lon="3.70356">
        <ele>77.0428467</ele>
        <time>2011-12-04T08:27:54Z</time>
      </trkpt>
      <trkpt lat="50.3455" lon="3.70348">
        <ele>76.0814209</ele>
        <time>2011-12-04T08:28:03Z</time>
      </trkpt>
      <trkpt lat="50.34526" lon="3.70342">
        <ele>75.1202393</ele>
        <time>2011-12-04T08:28:12Z</time>
      </trkpt>
      <trkpt lat="50.34502" lon="3.70337">
        <ele>73.6782227</ele>
        <time>2011-12-04T08:28:20Z</time>
      </trkpt>
      <trkpt lat="50.34476" lon="3.70332">
        <ele>73.6782227</ele>
        <time>2011-12-04T08:28:28Z</time>
      </trkpt>
      <trkpt lat="50.3445" lon="3.70325">
        <ele>74.6395264</ele>
        <time>2011-12-04T08:28:36Z</time>
      </trkpt>
      <trkpt lat="50.34421" lon="3.70312">
        <ele>77.5234375</ele>
        <time>2011-12-04T08:28:45Z</time>
      </trkpt>
      <trkpt lat="50.34393" lon="3.70289">
        <ele>81.3687744</ele>
        <time>2011-12-04T08:28:54Z</time>
      </trkpt>
      <trkpt lat="50.34366" lon="3.70257">
        <ele>82.810791</ele>
        <time>2011-12-04T08:29:04Z</time>
      </trkpt>
      <trkpt lat="50.34344" lon="3.70228">
        <ele>83.7719727</ele>
        <time>2011-12-04T08:29:13Z</time>
      </trkpt>
      <trkpt lat="50.34317" lon="3.70192">
        <ele>85.6945801</ele>
        <time>2011-12-04T08:29:24Z</time>
      </trkpt>
      <trkpt lat="50.34299" lon="3.70164">
        <ele>87.6171875</ele>
        <time>2011-12-04T08:29:32Z</time>
      </trkpt>
      <trkpt lat="50.34291" lon="3.70136">
        <ele>89.0593262</ele>
        <time>2011-12-04T08:29:38Z</time>
      </trkpt>
      <trkpt lat="50.34288" lon="3.7009">
        <ele>90.9819336</ele>
        <time>2011-12-04T08:29:47Z</time>
      </trkpt>
      <trkpt lat="50.34286" lon="3.70043">
        <ele>92.904541</ele>
        <time>2011-12-04T08:29:56Z</time>
      </trkpt>
      <trkpt lat="50.34283" lon="3.69986">
        <ele>93.3851318</ele>
        <time>2011-12-04T08:30:06Z</time>
      </trkpt>
      <trkpt lat="50.34279" lon="3.69923">
        <ele>93.8658447</ele>
        <time>2011-12-04T08:30:16Z</time>
      </trkpt>
      <trkpt lat="50.34273" lon="3.69854">
        <ele>92.904541</ele>
        <time>2011-12-04T08:30:26Z</time>
      </trkpt>
      <trkpt lat="50.34267" lon="3.69792">
        <ele>91.9432373</ele>
        <time>2011-12-04T08:30:34Z</time>
      </trkpt>
      <trkpt lat="50.34262" lon="3.69727">
        <ele>90.5013428</ele>
        <time>2011-12-04T08:30:42Z</time>
      </trkpt>
      <trkpt lat="50.3425" lon="3.69655">
        <ele>89.0593262</ele>
        <time>2011-12-04T08:30:51Z</time>
      </trkpt>
      <trkpt lat="50.3423" lon="3.69591">
        <ele>88.0980225</ele>
        <time>2011-12-04T08:30:59Z</time>
      </trkpt>
      <trkpt lat="50.34222" lon="3.69567">
        <ele>87.1365967</ele>
        <time>2011-12-04T08:31:02Z</time>
      </trkpt>
      <trkpt lat="50.34215" lon="3.69509">
        <ele>85.6945801</ele>
        <time>2011-12-04T08:31:08Z</time>
      </trkpt>
      <trkpt lat="50.34215" lon="3.69418">
        <ele>82.810791</ele>
        <time>2011-12-04T08:31:17Z</time>
      </trkpt>
      <trkpt lat="50.34214" lon="3.69337">
        <ele>79.9266357</ele>
        <time>2011-12-04T08:31:25Z</time>
      </trkpt>
      <trkpt lat="50.34203" lon="3.69305">
        <ele>78.4847412</ele>
        <time>2011-12-04T08:31:29Z</time>
      </trkpt>
      <trkpt lat="50.34185" lon="3.69278">
        <ele>78.0040283</ele>
        <time>2011-12-04T08:31:34Z</time>
      </trkpt>
      <trkpt lat="50.34158" lon="3.69236">
        <ele>76.5621338</ele>
        <time>2011-12-04T08:31:41Z</time>
      </trkpt>
      <trkpt lat="50.34122" lon="3.6918">
        <ele>76.5621338</ele>
        <time>2011-12-04T08:31:50Z</time>
      </trkpt>
      <trkpt lat="50.34111" lon="3.69165">
        <ele>76.5621338</ele>
        <time>2011-12-04T08:31:53Z</time>
      </trkpt>
      <trkpt lat="50.34099" lon="3.69153">
        <ele>76.5621338</ele>
        <time>2011-12-04T08:31:56Z</time>
      </trkpt>
      <trkpt lat="50.34085" lon="3.69148">
        <ele>76.5621338</ele>
        <time>2011-12-04T08:31:59Z</time>
      </trkpt>
      <trkpt lat="50.34054" lon="3.69134">
        <ele>76.5621338</ele>
        <time>2011-12-04T08:32:06Z</time>
      </trkpt>
      <trkpt lat="50.34024" lon="3.69119">
        <ele>76.0814209</ele>
        <time>2011-12-04T08:32:13Z</time>
      </trkpt>
      <trkpt lat="50.34006" lon="3.6911">
        <ele>75.6008301</ele>
        <time>2011-12-04T08:32:17Z</time>
      </trkpt>
      <trkpt lat="50.33974" lon="3.69096">
        <ele>75.6008301</ele>
        <time>2011-12-04T08:32:25Z</time>
      </trkpt>
      <trkpt lat="50.33938" lon="3.6908">
        <ele>75.1202393</ele>
        <time>2011-12-04T08:32:34Z</time>
      </trkpt>
      <trkpt lat="50.33903" lon="3.69064">
        <ele>75.6008301</ele>
        <time>2011-12-04T08:32:43Z</time>
      </trkpt>
      <trkpt lat="50.33872" lon="3.69051">
        <ele>75.6008301</ele>
        <time>2011-12-04T08:32:51Z</time>
      </trkpt>
      <trkpt lat="50.33853" lon="3.69045">
        <ele>76.0814209</ele>
        <time>2011-12-04T08:32:57Z</time>
      </trkpt>
      <trkpt lat="50.33834" lon="3.69042">
        <ele>77.0428467</ele>
        <time>2011-12-04T08:33:03Z</time>
      </trkpt>
      <trkpt lat="50.33817" lon="3.69033">
        <ele>77.0428467</ele>
        <time>2011-12-04T08:33:08Z</time>
      </trkpt>
      <trkpt lat="50.33805" lon="3.69016">
        <ele>77.0428467</ele>
        <time>2011-12-04T08:33:12Z</time>
      </trkpt>
      <trkpt lat="50.33795" lon="3.69003">
        <ele>76.5621338</ele>
        <time>2011-12-04T08:33:16Z</time>
      </trkpt>
      <trkpt lat="50.33776" lon="3.6898">
        <ele>76.5621338</ele>
        <time>2011-12-04T08:33:22Z</time>
      </trkpt>
      <trkpt lat="50.33756" lon="3.68958">
        <ele>76.5621338</ele>
        <time>2011-12-04T08:33:28Z</time>
      </trkpt>
      <trkpt lat="50.33737" lon="3.68941">
        <ele>76.5621338</ele>
        <time>2011-12-04T08:33:33Z</time>
      </trkpt>
      <trkpt lat="50.33712" lon="3.68911">
        <ele>77.0428467</ele>
        <time>2011-12-04T08:33:40Z</time>
      </trkpt>
      <trkpt lat="50.33679" lon="3.68884">
        <ele>78.4847412</ele>
        <time>2011-12-04T08:33:48Z</time>
      </trkpt>
      <trkpt lat="50.33638" lon="3.68855">
        <ele>79.9266357</ele>
        <time>2011-12-04T08:33:58Z</time>
      </trkpt>
      <trkpt lat="50.33605" lon="3.68833">
        <ele>80.4074707</ele>
        <time>2011-12-04T08:34:06Z</time>
      </trkpt>
      <trkpt lat="50.33564" lon="3.68805">
        <ele>80.4074707</ele>
        <time>2011-12-04T08:34:16Z</time>
      </trkpt>
      <trkpt lat="50.3356" lon="3.68803">
        <ele>80.4074707</ele>
        <time>2011-12-04T08:34:17Z</time>
      </trkpt>
      <trkpt lat="50.33534" lon="3.68788">
        <ele>80.8881836</ele>
        <time>2011-12-04T08:34:23Z</time>
      </trkpt>
      <trkpt lat="50.33515" lon="3.68772">
        <ele>80.4074707</ele>
        <time>2011-12-04T08:34:28Z</time>
      </trkpt>
      <trkpt lat="50.33496" lon="3.68763">
        <ele>80.4074707</ele>
        <time>2011-12-04T08:34:33Z</time>
      </trkpt>
      <trkpt lat="50.33466" lon="3.68748">
        <ele>80.8881836</ele>
        <time>2011-12-04T08:34:41Z</time>
      </trkpt>
      <trkpt lat="50.33434" lon="3.68734">
        <ele>81.8493652</ele>
        <time>2011-12-04T08:34:49Z</time>
      </trkpt>
      <trkpt lat="50.33406" lon="3.68732">
        <ele>82.3300781</ele>
        <time>2011-12-04T08:34:56Z</time>
      </trkpt>
      <trkpt lat="50.33389" lon="3.68723">
        <ele>82.810791</ele>
        <time>2011-12-04T08:35:01Z</time>
      </trkpt>
      <trkpt lat="50.33381" lon="3.687">
        <ele>83.2913818</ele>
        <time>2011-12-04T08:35:06Z</time>
      </trkpt>
      <trkpt lat="50.33374" lon="3.68659">
        <ele>85.2139893</ele>
        <time>2011-12-04T08:35:14Z</time>
      </trkpt>
      <trkpt lat="50.33374" lon="3.68611">
        <ele>86.6560059</ele>
        <time>2011-12-04T08:35:23Z</time>
      </trkpt>
      <trkpt lat="50.3338" lon="3.68559">
        <ele>89.0593262</ele>
        <time>2011-12-04T08:35:33Z</time>
      </trkpt>
      <trkpt lat="50.33386" lon="3.68517">
        <ele>90.9819336</ele>
        <time>2011-12-04T08:35:41Z</time>
      </trkpt>
      <trkpt lat="50.33388" lon="3.68474">
        <ele>92.4239502</ele>
        <time>2011-12-04T08:35:49Z</time>
      </trkpt>
      <trkpt lat="50.33387" lon="3.68425">
        <ele>93.8658447</ele>
        <time>2011-12-04T08:35:58Z</time>
      </trkpt>
      <trkpt lat="50.33383" lon="3.68372">
        <ele>93.8658447</ele>
        <time>2011-12-04T08:36:07Z</time>
      </trkpt>
      <trkpt lat="50.33377" lon="3.68312">
        <ele>93.3851318</ele>
        <time>2011-12-04T08:36:16Z</time>
      </trkpt>
      <trkpt lat="50.33366" lon="3.6824">
        <ele>92.904541</ele>
        <time>2011-12-04T08:36:26Z</time>
      </trkpt>
      <trkpt lat="50.33355" lon="3.68187">
        <ele>92.904541</ele>
        <time>2011-12-04T08:36:34Z</time>
      </trkpt>
      <trkpt lat="50.33345" lon="3.68145">
        <ele>93.3851318</ele>
        <time>2011-12-04T08:36:41Z</time>
      </trkpt>
      <trkpt lat="50.33333" lon="3.68088">
        <ele>93.8658447</ele>
        <time>2011-12-04T08:36:50Z</time>
      </trkpt>
      <trkpt lat="50.33319" lon="3.68032">
        <ele>94.3465576</ele>
        <time>2011-12-04T08:36:59Z</time>
      </trkpt>
      <trkpt lat="50.33314" lon="3.68007">
        <ele>94.8271484</ele>
        <time>2011-12-04T08:37:03Z</time>
      </trkpt>
      <trkpt lat="50.33313" lon="3.67949">
        <ele>96.2692871</ele>
        <time>2011-12-04T08:37:12Z</time>
      </trkpt>
      <trkpt lat="50.33314" lon="3.67889">
        <ele>97.2304688</ele>
        <time>2011-12-04T08:37:21Z</time>
      </trkpt>
      <trkpt lat="50.33308" lon="3.67845">
        <ele>97.7111816</ele>
        <time>2011-12-04T08:37:28Z</time>
      </trkpt>
      <trkpt lat="50.33298" lon="3.67796">
        <ele>99.1530762</ele>
        <time>2011-12-04T08:37:36Z</time>
      </trkpt>
      <trkpt lat="50.3329" lon="3.67742">
        <ele>100.5950928</ele>
        <time>2011-12-04T08:37:45Z</time>
      </trkpt>
      <trkpt lat="50.3328" lon="3.67695">
        <ele>99.6337891</ele>
        <time>2011-12-04T08:37:53Z</time>
      </trkpt>
      <trkpt lat="50.33274" lon="3.67657">
        <ele>99.1530762</ele>
        <time>2011-12-04T08:37:59Z</time>
      </trkpt>
      <trkpt lat="50.33273" lon="3.67629">
        <ele>98.6724854</ele>
        <time>2011-12-04T08:38:03Z</time>
      </trkpt>
      <trkpt lat="50.33279" lon="3.6755">
        <ele>97.2304688</ele>
        <time>2011-12-04T08:38:13Z</time>
      </trkpt>
      <trkpt lat="50.33287" lon="3.67479">
        <ele>95.7884521</ele>
        <time>2011-12-04T08:38:22Z</time>
      </trkpt>
      <trkpt lat="50.33295" lon="3.6743">
        <ele>95.3077393</ele>
        <time>2011-12-04T08:38:29Z</time>
      </trkpt>
      <trkpt lat="50.33303" lon="3.67383">
        <ele>94.8271484</ele>
        <time>2011-12-04T08:38:36Z</time>
      </trkpt>
      <trkpt lat="50.33305" lon="3.67372">
        <ele>94.3465576</ele>
        <time>2011-12-04T08:38:38Z</time>
      </trkpt>
      <trkpt lat="50.33307" lon="3.67353">
        <ele>94.3465576</ele>
        <time>2011-12-04T08:38:42Z</time>
      </trkpt>
      <trkpt lat="50.33313" lon="3.67322">
        <ele>93.8658447</ele>
        <time>2011-12-04T08:38:50Z</time>
      </trkpt>
      <trkpt lat="50.33321" lon="3.67283">
        <ele>94.3465576</ele>
        <time>2011-12-04T08:38:58Z</time>
      </trkpt>
      <trkpt lat="50.33328" lon="3.67242">
        <ele>94.3465576</ele>
        <time>2011-12-04T08:39:06Z</time>
      </trkpt>
      <trkpt lat="50.33333" lon="3.6721">
        <ele>94.8271484</ele>
        <time>2011-12-04T08:39:12Z</time>
      </trkpt>
      <trkpt lat="50.33342" lon="3.67165">
        <ele>95.7884521</ele>
        <time>2011-12-04T08:39:20Z</time>
      </trkpt>
      <trkpt lat="50.33353" lon="3.67101">
        <ele>97.7111816</ele>
        <time>2011-12-04T08:39:32Z</time>
      </trkpt>
      <trkpt lat="50.33358" lon="3.67056">
        <ele>98.1918945</ele>
        <time>2011-12-04T08:39:40Z</time>
      </trkpt>
      <trkpt lat="50.33359" lon="3.67001">
        <ele>97.7111816</ele>
        <time>2011-12-04T08:39:49Z</time>
      </trkpt>
      <trkpt lat="50.33361" lon="3.66947">
        <ele>97.7111816</ele>
        <time>2011-12-04T08:39:58Z</time>
      </trkpt>
      <trkpt lat="50.33364" lon="3.66888">
        <ele>98.6724854</ele>
        <time>2011-12-04T08:40:08Z</time>
      </trkpt>
      <trkpt lat="50.33365" lon="3.66831">
        <ele>99.1530762</ele>
        <time>2011-12-04T08:40:18Z</time>
      </trkpt>
      <trkpt lat="50.33366" lon="3.6678">
        <ele>99.6337891</ele>
        <time>2011-12-04T08:40:27Z</time>
      </trkpt>
      <trkpt lat="50.33371" lon="3.66729">
        <ele>100.114502</ele>
        <time>2011-12-04T08:40:36Z</time>
      </trkpt>
      <trkpt lat="50.3338" lon="3.66687">
        <ele>99.1530762</ele>
        <time>2011-12-04T08:40:43Z</time>
      </trkpt>
      <trkpt lat="50.33396" lon="3.66635">
        <ele>97.7111816</ele>
        <time>2011-12-04T08:40:52Z</time>
      </trkpt>
      <trkpt lat="50.3341" lon="3.66586">
        <ele>96.7498779</ele>
        <time>2011-12-04T08:41:00Z</time>
      </trkpt>
      <trkpt lat="50.33415" lon="3.66572">
        <ele>96.2692871</ele>
        <time>2011-12-04T08:41:02Z</time>
      </trkpt>
      <trkpt lat="50.33439" lon="3.66516">
        <ele>93.8658447</ele>
        <time>2011-12-04T08:41:10Z</time>
      </trkpt>
      <trkpt lat="50.33458" lon="3.66462">
        <ele>91.9432373</ele>
        <time>2011-12-04T08:41:18Z</time>
      </trkpt>
      <trkpt lat="50.33475" lon="3.66408">
        <ele>89.0593262</ele>
        <time>2011-12-04T08:41:25Z</time>
      </trkpt>
      <trkpt lat="50.33483" lon="3.66372">
        <ele>87.6171875</ele>
        <time>2011-12-04T08:41:29Z</time>
      </trkpt>
      <trkpt lat="50.33492" lon="3.66301">
        <ele>87.1365967</ele>
        <time>2011-12-04T08:41:36Z</time>
      </trkpt>
      <trkpt lat="50.33491" lon="3.66289">
        <ele>87.6171875</ele>
        <time>2011-12-04T08:41:37Z</time>
      </trkpt>
      <trkpt lat="50.33487" lon="3.6622">
        <ele>86.6560059</ele>
        <time>2011-12-04T08:41:45Z</time>
      </trkpt>
      <trkpt lat="50.33485" lon="3.66162">
        <ele>85.6945801</ele>
        <time>2011-12-04T08:41:52Z</time>
      </trkpt>
      <trkpt lat="50.33486" lon="3.66105">
        <ele>85.2139893</ele>
        <time>2011-12-04T08:41:59Z</time>
      </trkpt>
      <trkpt lat="50.33488" lon="3.66039">
        <ele>84.7333984</ele>
        <time>2011-12-04T08:42:07Z</time>
      </trkpt>
      <trkpt lat="50.33491" lon="3.65972">
        <ele>84.7333984</ele>
        <time>2011-12-04T08:42:15Z</time>
      </trkpt>
      <trkpt lat="50.33497" lon="3.65897">
        <ele>84.2526855</ele>
        <time>2011-12-04T08:42:24Z</time>
      </trkpt>
      <trkpt lat="50.33513" lon="3.65791">
        <ele>83.7719727</ele>
        <time>2011-12-04T08:42:37Z</time>
      </trkpt>
      <trkpt lat="50.33522" lon="3.65742">
        <ele>83.7719727</ele>
        <time>2011-12-04T08:42:44Z</time>
      </trkpt>
      <trkpt lat="50.33522" lon="3.65737">
        <ele>83.7719727</ele>
        <time>2011-12-04T08:42:45Z</time>
      </trkpt>
      <trkpt lat="50.33525" lon="3.65719">
        <ele>83.7719727</ele>
        <time>2011-12-04T08:42:48Z</time>
      </trkpt>
      <trkpt lat="50.33528" lon="3.65707">
        <ele>83.2913818</ele>
        <time>2011-12-04T08:42:50Z</time>
      </trkpt>
      <trkpt lat="50.33539" lon="3.65647">
        <ele>83.2913818</ele>
        <time>2011-12-04T08:42:59Z</time>
      </trkpt>
      <trkpt lat="50.33554" lon="3.65575">
        <ele>83.2913818</ele>
        <time>2011-12-04T08:43:09Z</time>
      </trkpt>
      <trkpt lat="50.33557" lon="3.65554">
        <ele>83.2913818</ele>
        <time>2011-12-04T08:43:12Z</time>
      </trkpt>
      <trkpt lat="50.33554" lon="3.65518">
        <ele>82.810791</ele>
        <time>2011-12-04T08:43:17Z</time>
      </trkpt>
      <trkpt lat="50.33549" lon="3.65473">
        <ele>82.3300781</ele>
        <time>2011-12-04T08:43:23Z</time>
      </trkpt>
      <trkpt lat="50.33544" lon="3.65413">
        <ele>81.8493652</ele>
        <time>2011-12-04T08:43:30Z</time>
      </trkpt>
      <trkpt lat="50.33537" lon="3.65343">
        <ele>80.4074707</ele>
        <time>2011-12-04T08:43:37Z</time>
      </trkpt>
      <trkpt lat="50.33531" lon="3.6528">
        <ele>78.4847412</ele>
        <time>2011-12-04T08:43:43Z</time>
      </trkpt>
      <trkpt lat="50.33529" lon="3.6526">
        <ele>77.5234375</ele>
        <time>2011-12-04T08:43:45Z</time>
      </trkpt>
      <trkpt lat="50.33515" lon="3.65241">
        <ele>76.0814209</ele>
        <time>2011-12-04T08:43:49Z</time>
      </trkpt>
      <trkpt lat="50.3351" lon="3.65241">
        <ele>76.0814209</ele>
        <time>2011-12-04T08:43:50Z</time>
      </trkpt>
      <trkpt lat="50.33489" lon="3.65244">
        <ele>75.6008301</ele>
        <time>2011-12-04T08:43:55Z</time>
      </trkpt>
      <trkpt lat="50.33462" lon="3.65245">
        <ele>75.6008301</ele>
        <time>2011-12-04T08:44:02Z</time>
      </trkpt>
      <trkpt lat="50.33456" lon="3.65242">
        <ele>75.6008301</ele>
        <time>2011-12-04T08:44:04Z</time>
      </trkpt>
      <trkpt lat="50.33453" lon="3.65243">
        <ele>75.6008301</ele>
        <time>2011-12-04T08:44:09Z</time>
      </trkpt>
      <trkpt lat="50.33452" lon="3.65244">
        <ele>76.0814209</ele>
        <time>2011-12-04T08:44:15Z</time>
      </trkpt>
      <trkpt lat="50.33448" lon="3.65243">
        <ele>76.0814209</ele>
        <time>2011-12-04T08:44:21Z</time>
      </trkpt>
      <trkpt lat="50.33443" lon="3.65241">
        <ele>75.1202393</ele>
        <time>2011-12-04T08:44:29Z</time>
      </trkpt>
      <trkpt lat="50.33441" lon="3.65241">
        <ele>80.8881836</ele>
        <time>2011-12-04T08:44:51Z</time>
      </trkpt>
      <trkpt lat="50.33449" lon="3.6525">
        <ele>82.810791</ele>
        <time>2011-12-04T08:44:59Z</time>
      </trkpt>
      <trkpt lat="50.3345" lon="3.65251">
        <ele>84.2526855</ele>
        <time>2011-12-04T08:45:06Z</time>
      </trkpt>
      <trkpt lat="50.33451" lon="3.65253">
        <ele>84.2526855</ele>
        <time>2011-12-04T08:45:11Z</time>
      </trkpt>
      <trkpt lat="50.33451" lon="3.65256">
        <ele>84.7333984</ele>
        <time>2011-12-04T08:45:19Z</time>
      </trkpt>
      <trkpt lat="50.3345" lon="3.65256">
        <ele>85.2139893</ele>
        <time>2011-12-04T08:45:28Z</time>
      </trkpt>
      <trkpt lat="50.3345" lon="3.65256">
        <ele>86.6560059</ele>
        <time>2011-12-04T08:45:42Z</time>
      </trkpt>
      <trkpt lat="50.33449" lon="3.65253">
        <ele>84.7333984</ele>
        <time>2011-12-04T08:45:59Z</time>
      </trkpt>
      <trkpt lat="50.33448" lon="3.65252">
        <ele>84.7333984</ele>
        <time>2011-12-04T08:46:07Z</time>
      </trkpt>
      <trkpt lat="50.33448" lon="3.65251">
        <ele>82.3300781</ele>
        <time>2011-12-04T08:46:18Z</time>
      </trkpt>
      <trkpt lat="50.33448" lon="3.65251">
        <ele>80.4074707</ele>
        <time>2011-12-04T08:46:32Z</time>
      </trkpt>
      <trkpt lat="50.33449" lon="3.65251">
        <ele>78.9654541</ele>
        <time>2011-12-04T08:46:43Z</time>
      </trkpt>
      <trkpt lat="50.33448" lon="3.65254">
        <ele>82.3300781</ele>
        <time>2011-12-04T08:47:03Z</time>
      </trkpt>
      <trkpt lat="50.33448" lon="3.65256">
        <ele>81.8493652</ele>
        <time>2011-12-04T08:47:21Z</time>
      </trkpt>
      <trkpt lat="50.33448" lon="3.65254">
        <ele>76.5621338</ele>
        <time>2011-12-04T08:47:45Z</time>
      </trkpt>
      <trkpt lat="50.33448" lon="3.65251">
        <ele>76.5621338</ele>
        <time>2011-12-04T08:47:52Z</time>
      </trkpt>
      <trkpt lat="50.33448" lon="3.65251">
        <ele>75.6008301</ele>
        <time>2011-12-04T08:48:01Z</time>
      </trkpt>
      <trkpt lat="50.33448" lon="3.6525">
        <ele>75.6008301</ele>
        <time>2011-12-04T08:48:11Z</time>
      </trkpt>
      <trkpt lat="50.33448" lon="3.65251">
        <ele>75.6008301</ele>
        <time>2011-12-04T08:48:28Z</time>
      </trkpt>
      <trkpt lat="50.33448" lon="3.65252">
        <ele>76.0814209</ele>
        <time>2011-12-04T08:48:33Z</time>
      </trkpt>
      <trkpt lat="50.33448" lon="3.6525">
        <ele>74.6395264</ele>
        <time>2011-12-04T08:48:40Z</time>
      </trkpt>
      <trkpt lat="50.33449" lon="3.65251">
        <ele>75.6008301</ele>
        <time>2011-12-04T08:48:46Z</time>
      </trkpt>
      <trkpt lat="50.3345" lon="3.65249">
        <ele>76.5621338</ele>
        <time>2011-12-04T08:48:55Z</time>
      </trkpt>
      <trkpt lat="50.33449" lon="3.6525">
        <ele>77.0428467</ele>
        <time>2011-12-04T08:48:59Z</time>
      </trkpt>
      <trkpt lat="50.33449" lon="3.6525">
        <ele>77.0428467</ele>
        <time>2011-12-04T08:49:05Z</time>
      </trkpt>
      <trkpt lat="50.33449" lon="3.65249">
        <ele>77.5234375</ele>
        <time>2011-12-04T08:49:11Z</time>
      </trkpt>
      <trkpt lat="50.33451" lon="3.65245">
        <ele>76.0814209</ele>
        <time>2011-12-04T08:49:17Z</time>
      </trkpt>
      <trkpt lat="50.33451" lon="3.65245">
        <ele>76.0814209</ele>
        <time>2011-12-04T08:49:22Z</time>
      </trkpt>
      <trkpt lat="50.33452" lon="3.65246">
        <ele>76.0814209</ele>
        <time>2011-12-04T08:49:30Z</time>
      </trkpt>
      <trkpt lat="50.33452" lon="3.65246">
        <ele>75.1202393</ele>
        <time>2011-12-04T08:49:40Z</time>
      </trkpt>
      <trkpt lat="50.33451" lon="3.65243">
        <ele>80.8881836</ele>
        <time>2011-12-04T08:50:01Z</time>
      </trkpt>
      <trkpt lat="50.33451" lon="3.65244">
        <ele>80.8881836</ele>
        <time>2011-12-04T08:50:15Z</time>
      </trkpt>
      <trkpt lat="50.3345" lon="3.65244">
        <ele>78.9654541</ele>
        <time>2011-12-04T08:50:20Z</time>
      </trkpt>
      <trkpt lat="50.33449" lon="3.65247">
        <ele>78.4847412</ele>
        <time>2011-12-04T08:50:26Z</time>
      </trkpt>
      <trkpt lat="50.3345" lon="3.65247">
        <ele>78.4847412</ele>
        <time>2011-12-04T08:50:36Z</time>
      </trkpt>
      <trkpt lat="50.3345" lon="3.65247">
        <ele>78.4847412</ele>
        <time>2011-12-04T08:50:46Z</time>
      </trkpt>
      <trkpt lat="50.33448" lon="3.6525">
        <ele>78.4847412</ele>
        <time>2011-12-04T08:50:54Z</time>
      </trkpt>
      <trkpt lat="50.33449" lon="3.65249">
        <ele>77.0428467</ele>
        <time>2011-12-04T08:51:03Z</time>
      </trkpt>
      <trkpt lat="50.3345" lon="3.6525">
        <ele>75.6008301</ele>
        <time>2011-12-04T08:51:10Z</time>
      </trkpt>
      <trkpt lat="50.3345" lon="3.65252">
        <ele>75.1202393</ele>
        <time>2011-12-04T08:51:15Z</time>
      </trkpt>
      <trkpt lat="50.33452" lon="3.65251">
        <ele>75.1202393</ele>
        <time>2011-12-04T08:51:22Z</time>
      </trkpt>
      <trkpt lat="50.33451" lon="3.65252">
        <ele>75.1202393</ele>
        <time>2011-12-04T08:51:28Z</time>
      </trkpt>
      <trkpt lat="50.3345" lon="3.65252">
        <ele>75.1202393</ele>
        <time>2011-12-04T08:51:35Z</time>
      </trkpt>
      <trkpt lat="50.3345" lon="3.65252">
        <ele>75.6008301</ele>
        <time>2011-12-04T08:51:41Z</time>
      </trkpt>
      <trkpt lat="50.33449" lon="3.65252">
        <ele>76.0814209</ele>
        <time>2011-12-04T08:51:50Z</time>
      </trkpt>
      <trkpt lat="50.3345" lon="3.6525">
        <ele>77.0428467</ele>
        <time>2011-12-04T08:51:59Z</time>
      </trkpt>
      <trkpt lat="50.33449" lon="3.65252">
        <ele>78.4847412</ele>
        <time>2011-12-04T08:52:04Z</time>
      </trkpt>
      <trkpt lat="50.3345" lon="3.65251">
        <ele>78.4847412</ele>
        <time>2011-12-04T08:52:08Z</time>
      </trkpt>
      <trkpt lat="50.3345" lon="3.65253">
        <ele>79.4460449</ele>
        <time>2011-12-04T08:52:16Z</time>
      </trkpt>
      <trkpt lat="50.3345" lon="3.65252">
        <ele>80.4074707</ele>
        <time>2011-12-04T08:52:21Z</time>
      </trkpt>
      <trkpt lat="50.33451" lon="3.65252">
        <ele>81.8493652</ele>
        <time>2011-12-04T08:52:31Z</time>
      </trkpt>
      <trkpt lat="50.33451" lon="3.65252">
        <ele>81.8493652</ele>
        <time>2011-12-04T08:52:38Z</time>
      </trkpt>
      <trkpt lat="50.3345" lon="3.65253">
        <ele>82.3300781</ele>
        <time>2011-12-04T08:52:46Z</time>
      </trkpt>
      <trkpt lat="50.3345" lon="3.65254">
        <ele>80.8881836</ele>
        <time>2011-12-04T08:52:52Z</time>
      </trkpt>
      <trkpt lat="50.33449" lon="3.65253">
        <ele>79.9266357</ele>
        <time>2011-12-04T08:53:00Z</time>
      </trkpt>
      <trkpt lat="50.33449" lon="3.65252">
        <ele>80.8881836</ele>
        <time>2011-12-04T08:53:09Z</time>
      </trkpt>
      <trkpt lat="50.33448" lon="3.65252">
        <ele>81.8493652</ele>
        <time>2011-12-04T08:53:17Z</time>
      </trkpt>
      <trkpt lat="50.33448" lon="3.65253">
        <ele>82.3300781</ele>
        <time>2011-12-04T08:53:24Z</time>
      </trkpt>
      <trkpt lat="50.33447" lon="3.65252">
        <ele>82.810791</ele>
        <time>2011-12-04T08:53:32Z</time>
      </trkpt>
      <trkpt lat="50.33446" lon="3.65251">
        <ele>82.810791</ele>
        <time>2011-12-04T08:53:42Z</time>
      </trkpt>
      <trkpt lat="50.33446" lon="3.65252">
        <ele>81.8493652</ele>
        <time>2011-12-04T08:53:55Z</time>
      </trkpt>
      <trkpt lat="50.33445" lon="3.65251">
        <ele>84.2526855</ele>
        <time>2011-12-04T08:54:10Z</time>
      </trkpt>
      <trkpt lat="50.33445" lon="3.6525">
        <ele>82.810791</ele>
        <time>2011-12-04T08:54:18Z</time>
      </trkpt>
      <trkpt lat="50.33446" lon="3.65249">
        <ele>85.6945801</ele>
        <time>2011-12-04T08:54:38Z</time>
      </trkpt>
      <trkpt lat="50.33447" lon="3.65248">
        <ele>87.1365967</ele>
        <time>2011-12-04T08:55:10Z</time>
      </trkpt>
      <trkpt lat="50.33448" lon="3.65248">
        <ele>86.175293</ele>
        <time>2011-12-04T08:55:19Z</time>
      </trkpt>
      <trkpt lat="50.3345" lon="3.65249">
        <ele>85.6945801</ele>
        <time>2011-12-04T08:55:33Z</time>
      </trkpt>
      <trkpt lat="50.3345" lon="3.6525">
        <ele>85.2139893</ele>
        <time>2011-12-04T08:55:40Z</time>
      </trkpt>
      <trkpt lat="50.33449" lon="3.65249">
        <ele>84.7333984</ele>
        <time>2011-12-04T08:55:45Z</time>
      </trkpt>
      <trkpt lat="50.33449" lon="3.65251">
        <ele>84.2526855</ele>
        <time>2011-12-04T08:55:52Z</time>
      </trkpt>
      <trkpt lat="50.3345" lon="3.65253">
        <ele>83.7719727</ele>
        <time>2011-12-04T08:56:06Z</time>
      </trkpt>
      <trkpt lat="50.33451" lon="3.65253">
        <ele>83.2913818</ele>
        <time>2011-12-04T08:56:15Z</time>
      </trkpt>
      <trkpt lat="50.33448" lon="3.6525">
        <ele>79.4460449</ele>
        <time>2011-12-04T08:56:28Z</time>
      </trkpt>
      <trkpt lat="50.33449" lon="3.6525">
        <ele>78.9654541</ele>
        <time>2011-12-04T08:56:33Z</time>
      </trkpt>
      <trkpt lat="50.33449" lon="3.65248">
        <ele>78.9654541</ele>
        <time>2011-12-04T08:56:47Z</time>
      </trkpt>
      <trkpt lat="50.33451" lon="3.65246">
        <ele>78.0040283</ele>
        <time>2011-12-04T08:56:51Z</time>
      </trkpt>
      <trkpt lat="50.33451" lon="3.65246">
        <ele>77.5234375</ele>
        <time>2011-12-04T08:56:58Z</time>
      </trkpt>
      <trkpt lat="50.33453" lon="3.65246">
        <ele>78.0040283</ele>
        <time>2011-12-04T08:57:07Z</time>
      </trkpt>
      <trkpt lat="50.33454" lon="3.65249">
        <ele>77.0428467</ele>
        <time>2011-12-04T08:57:17Z</time>
      </trkpt>
      <trkpt lat="50.33457" lon="3.6525">
        <ele>72.7169189</ele>
        <time>2011-12-04T08:58:00Z</time>
      </trkpt>
      <trkpt lat="50.33462" lon="3.65249">
        <ele>72.2362061</ele>
        <time>2011-12-04T08:58:05Z</time>
      </trkpt>
      <trkpt lat="50.33475" lon="3.65247">
        <ele>71.7554932</ele>
        <time>2011-12-04T08:58:11Z</time>
      </trkpt>
      <trkpt lat="50.33494" lon="3.65247">
        <ele>72.2362061</ele>
        <time>2011-12-04T08:58:18Z</time>
      </trkpt>
      <trkpt lat="50.33496" lon="3.65247">
        <ele>72.7169189</ele>
        <time>2011-12-04T08:58:21Z</time>
      </trkpt>
      <trkpt lat="50.3351" lon="3.65243">
        <ele>72.7169189</ele>
        <time>2011-12-04T08:58:26Z</time>
      </trkpt>
      <trkpt lat="50.33527" lon="3.65241">
        <ele>73.1976318</ele>
        <time>2011-12-04T08:58:31Z</time>
      </trkpt>
      <trkpt lat="50.33553" lon="3.65237">
        <ele>72.2362061</ele>
        <time>2011-12-04T08:58:37Z</time>
      </trkpt>
      <trkpt lat="50.33591" lon="3.65238">
        <ele>71.2749023</ele>
        <time>2011-12-04T08:58:44Z</time>
      </trkpt>
      <trkpt lat="50.33647" lon="3.65242">
        <ele>70.7941895</ele>
        <time>2011-12-04T08:58:54Z</time>
      </trkpt>
      <trkpt lat="50.33694" lon="3.65247">
        <ele>70.3134766</ele>
        <time>2011-12-04T08:59:02Z</time>
      </trkpt>
      <trkpt lat="50.33713" lon="3.65248">
        <ele>68.871582</ele>
        <time>2011-12-04T08:59:05Z</time>
      </trkpt>
      <trkpt lat="50.33741" lon="3.65234">
        <ele>67.4296875</ele>
        <time>2011-12-04T08:59:09Z</time>
      </trkpt>
      <trkpt lat="50.33753" lon="3.65216">
        <ele>65.5070801</ele>
        <time>2011-12-04T08:59:11Z</time>
      </trkpt>
      <trkpt lat="50.3378" lon="3.65187">
        <ele>64.0650635</ele>
        <time>2011-12-04T08:59:16Z</time>
      </trkpt>
      <trkpt lat="50.33792" lon="3.65165">
        <ele>61.6617432</ele>
        <time>2011-12-04T08:59:20Z</time>
      </trkpt>
      <trkpt lat="50.33804" lon="3.65129">
        <ele>60.7003174</ele>
        <time>2011-12-04T08:59:25Z</time>
      </trkpt>
      <trkpt lat="50.33818" lon="3.65104">
        <ele>58.77771</ele>
        <time>2011-12-04T08:59:28Z</time>
      </trkpt>
      <trkpt lat="50.3382" lon="3.6509">
        <ele>58.2971191</ele>
        <time>2011-12-04T08:59:29Z</time>
      </trkpt>
      <trkpt lat="50.33825" lon="3.65">
        <ele>56.3745117</ele>
        <time>2011-12-04T08:59:36Z</time>
      </trkpt>
      <trkpt lat="50.33822" lon="3.64962">
        <ele>55.8937988</ele>
        <time>2011-12-04T08:59:40Z</time>
      </trkpt>
      <trkpt lat="50.33822" lon="3.64957">
        <ele>55.4130859</ele>
        <time>2011-12-04T08:59:41Z</time>
      </trkpt>
      <trkpt lat="50.33821" lon="3.64943">
        <ele>52.5291748</ele>
        <time>2011-12-04T08:59:47Z</time>
      </trkpt>
      <trkpt lat="50.33829" lon="3.64919">
        <ele>55.8937988</ele>
        <time>2011-12-04T08:59:54Z</time>
      </trkpt>
      <trkpt lat="50.33844" lon="3.64905">
        <ele>55.8937988</ele>
        <time>2011-12-04T08:59:59Z</time>
      </trkpt>
      <trkpt lat="50.33868" lon="3.64893">
        <ele>53.9711914</ele>
        <time>2011-12-04T09:00:05Z</time>
      </trkpt>
      <trkpt lat="50.33889" lon="3.64885">
        <ele>55.4130859</ele>
        <time>2011-12-04T09:00:10Z</time>
      </trkpt>
      <trkpt lat="50.33901" lon="3.64884">
        <ele>55.8937988</ele>
        <time>2011-12-04T09:00:14Z</time>
      </trkpt>
      <trkpt lat="50.3391" lon="3.64883">
        <ele>54.4517822</ele>
        <time>2011-12-04T09:00:17Z</time>
      </trkpt>
      <trkpt lat="50.33934" lon="3.64892">
        <ele>53.9711914</ele>
        <time>2011-12-04T09:00:23Z</time>
      </trkpt>
      <trkpt lat="50.3396" lon="3.64906">
        <ele>55.4130859</ele>
        <time>2011-12-04T09:00:29Z</time>
      </trkpt>
      <trkpt lat="50.33971" lon="3.64913">
        <ele>55.4130859</ele>
        <time>2011-12-04T09:00:32Z</time>
      </trkpt>
      <trkpt lat="50.3398" lon="3.64909">
        <ele>55.4130859</ele>
        <time>2011-12-04T09:00:36Z</time>
      </trkpt>
      <trkpt lat="50.33981" lon="3.64901">
        <ele>54.932373</ele>
        <time>2011-12-04T09:00:38Z</time>
      </trkpt>
      <trkpt lat="50.33984" lon="3.64853">
        <ele>54.4517822</ele>
        <time>2011-12-04T09:00:46Z</time>
      </trkpt>
      <trkpt lat="50.33993" lon="3.64797">
        <ele>54.4517822</ele>
        <time>2011-12-04T09:00:55Z</time>
      </trkpt>
      <trkpt lat="50.34" lon="3.64759">
        <ele>56.8551025</ele>
        <time>2011-12-04T09:01:01Z</time>
      </trkpt>
      <trkpt lat="50.33997" lon="3.6474">
        <ele>57.8165283</ele>
        <time>2011-12-04T09:01:05Z</time>
      </trkpt>
      <trkpt lat="50.3399" lon="3.64737">
        <ele>58.2971191</ele>
        <time>2011-12-04T09:01:07Z</time>
      </trkpt>
      <trkpt lat="50.33956" lon="3.64729">
        <ele>59.7391357</ele>
        <time>2011-12-04T09:01:16Z</time>
      </trkpt>
      <trkpt lat="50.33943" lon="3.64731">
        <ele>59.7391357</ele>
        <time>2011-12-04T09:01:19Z</time>
      </trkpt>
      <trkpt lat="50.33923" lon="3.64761">
        <ele>58.2971191</ele>
        <time>2011-12-04T09:01:24Z</time>
      </trkpt>
      <trkpt lat="50.33908" lon="3.64762">
        <ele>57.8165283</ele>
        <time>2011-12-04T09:01:27Z</time>
      </trkpt>
      <trkpt lat="50.33874" lon="3.64744">
        <ele>57.3358154</ele>
        <time>2011-12-04T09:01:34Z</time>
      </trkpt>
      <trkpt lat="50.3385" lon="3.64732">
        <ele>60.7003174</ele>
        <time>2011-12-04T09:01:39Z</time>
      </trkpt>
      <trkpt lat="50.33821" lon="3.64724">
        <ele>63.1036377</ele>
        <time>2011-12-04T09:01:45Z</time>
      </trkpt>
      <trkpt lat="50.33809" lon="3.64709">
        <ele>64.0650635</ele>
        <time>2011-12-04T09:01:49Z</time>
      </trkpt>
      <trkpt lat="50.33809" lon="3.64694">
        <ele>63.5843506</ele>
        <time>2011-12-04T09:01:52Z</time>
      </trkpt>
      <trkpt lat="50.33817" lon="3.64647">
        <ele>65.0263672</ele>
        <time>2011-12-04T09:02:01Z</time>
      </trkpt>
      <trkpt lat="50.33824" lon="3.64598">
        <ele>67.9102783</ele>
        <time>2011-12-04T09:02:10Z</time>
      </trkpt>
      <trkpt lat="50.3383" lon="3.6455">
        <ele>70.3134766</ele>
        <time>2011-12-04T09:02:19Z</time>
      </trkpt>
      <trkpt lat="50.33834" lon="3.64507">
        <ele>72.2362061</ele>
        <time>2011-12-04T09:02:27Z</time>
      </trkpt>
      <trkpt lat="50.3384" lon="3.64454">
        <ele>75.1202393</ele>
        <time>2011-12-04T09:02:37Z</time>
      </trkpt>
      <trkpt lat="50.33841" lon="3.6442">
        <ele>76.5621338</ele>
        <time>2011-12-04T09:02:44Z</time>
      </trkpt>
      <trkpt lat="50.33842" lon="3.64393">
        <ele>77.0428467</ele>
        <time>2011-12-04T09:02:51Z</time>
      </trkpt>
      <trkpt lat="50.33844" lon="3.64361">
        <ele>80.4074707</ele>
        <time>2011-12-04T09:02:59Z</time>
      </trkpt>
      <trkpt lat="50.33845" lon="3.64335">
        <ele>80.8881836</ele>
        <time>2011-12-04T09:03:05Z</time>
      </trkpt>
      <trkpt lat="50.33848" lon="3.64313">
        <ele>80.8881836</ele>
        <time>2011-12-04T09:03:11Z</time>
      </trkpt>
      <trkpt lat="50.33849" lon="3.64302">
        <ele>80.8881836</ele>
        <time>2011-12-04T09:03:14Z</time>
      </trkpt>
      <trkpt lat="50.33837" lon="3.64299">
        <ele>82.3300781</ele>
        <time>2011-12-04T09:03:19Z</time>
      </trkpt>
      <trkpt lat="50.33818" lon="3.64299">
        <ele>83.2913818</ele>
        <time>2011-12-04T09:03:26Z</time>
      </trkpt>
      <trkpt lat="50.33793" lon="3.64288">
        <ele>83.7719727</ele>
        <time>2011-12-04T09:03:34Z</time>
      </trkpt>
      <trkpt lat="50.33768" lon="3.64284">
        <ele>84.2526855</ele>
        <time>2011-12-04T09:03:41Z</time>
      </trkpt>
      <trkpt lat="50.33737" lon="3.64284">
        <ele>83.7719727</ele>
        <time>2011-12-04T09:03:49Z</time>
      </trkpt>
      <trkpt lat="50.33709" lon="3.64282">
        <ele>83.2913818</ele>
        <time>2011-12-04T09:03:56Z</time>
      </trkpt>
      <trkpt lat="50.33677" lon="3.64274">
        <ele>81.3687744</ele>
        <time>2011-12-04T09:04:02Z</time>
      </trkpt>
      <trkpt lat="50.33655" lon="3.64267">
        <ele>78.9654541</ele>
        <time>2011-12-04T09:04:06Z</time>
      </trkpt>
      <trkpt lat="50.33628" lon="3.64275">
        <ele>75.6008301</ele>
        <time>2011-12-04T09:04:10Z</time>
      </trkpt>
      <trkpt lat="50.33582" lon="3.64295">
        <ele>74.1588135</ele>
        <time>2011-12-04T09:04:16Z</time>
      </trkpt>
      <trkpt lat="50.33556" lon="3.64303">
        <ele>73.1976318</ele>
        <time>2011-12-04T09:04:20Z</time>
      </trkpt>
      <trkpt lat="50.33527" lon="3.64296">
        <ele>74.1588135</ele>
        <time>2011-12-04T09:04:26Z</time>
      </trkpt>
      <trkpt lat="50.33499" lon="3.64291">
        <ele>76.5621338</ele>
        <time>2011-12-04T09:04:33Z</time>
      </trkpt>
      <trkpt lat="50.33489" lon="3.64292">
        <ele>77.0428467</ele>
        <time>2011-12-04T09:04:38Z</time>
      </trkpt>
      <trkpt lat="50.33485" lon="3.64295">
        <ele>77.0428467</ele>
        <time>2011-12-04T09:04:43Z</time>
      </trkpt>
      <trkpt lat="50.33484" lon="3.64296">
        <ele>77.0428467</ele>
        <time>2011-12-04T09:04:45Z</time>
      </trkpt>
      <trkpt lat="50.33483" lon="3.64314">
        <ele>74.1588135</ele>
        <time>2011-12-04T09:04:50Z</time>
      </trkpt>
      <trkpt lat="50.33483" lon="3.64321">
        <ele>73.6782227</ele>
        <time>2011-12-04T09:04:51Z</time>
      </trkpt>
      <trkpt lat="50.3349" lon="3.64369">
        <ele>72.7169189</ele>
        <time>2011-12-04T09:04:56Z</time>
      </trkpt>
      <trkpt lat="50.33491" lon="3.64394">
        <ele>71.2749023</ele>
        <time>2011-12-04T09:04:58Z</time>
      </trkpt>
      <trkpt lat="50.33486" lon="3.64481">
        <ele>67.4296875</ele>
        <time>2011-12-04T09:05:04Z</time>
      </trkpt>
      <trkpt lat="50.33479" lon="3.64567">
        <ele>63.5843506</ele>
        <time>2011-12-04T09:05:09Z</time>
      </trkpt>
      <trkpt lat="50.3347" lon="3.64671">
        <ele>61.6617432</ele>
        <time>2011-12-04T09:05:15Z</time>
      </trkpt>
      <trkpt lat="50.33467" lon="3.64746">
        <ele>59.7391357</ele>
        <time>2011-12-04T09:05:20Z</time>
      </trkpt>
      <trkpt lat="50.33463" lon="3.648">
        <ele>59.2584229</ele>
        <time>2011-12-04T09:05:24Z</time>
      </trkpt>
      <trkpt lat="50.33459" lon="3.64825">
        <ele>58.2971191</ele>
        <time>2011-12-04T09:05:26Z</time>
      </trkpt>
      <trkpt lat="50.33453" lon="3.6491">
        <ele>57.3358154</ele>
        <time>2011-12-04T09:05:34Z</time>
      </trkpt>
      <trkpt lat="50.33447" lon="3.64991">
        <ele>57.8165283</ele>
        <time>2011-12-04T09:05:42Z</time>
      </trkpt>
      <trkpt lat="50.33442" lon="3.65043">
        <ele>58.77771</ele>
        <time>2011-12-04T09:05:48Z</time>
      </trkpt>
      <trkpt lat="50.33437" lon="3.65095">
        <ele>60.2197266</ele>
        <time>2011-12-04T09:05:55Z</time>
      </trkpt>
      <trkpt lat="50.33428" lon="3.65134">
        <ele>62.142334</ele>
        <time>2011-12-04T09:06:01Z</time>
      </trkpt>
      <trkpt lat="50.33417" lon="3.65185">
        <ele>64.0650635</ele>
        <time>2011-12-04T09:06:09Z</time>
      </trkpt>
      <trkpt lat="50.33412" lon="3.65204">
        <ele>65.0263672</ele>
        <time>2011-12-04T09:06:12Z</time>
      </trkpt>
      <trkpt lat="50.33399" lon="3.65216">
        <ele>64.0650635</ele>
        <time>2011-12-04T09:06:16Z</time>
      </trkpt>
      <trkpt lat="50.33373" lon="3.65229">
        <ele>63.1036377</ele>
        <time>2011-12-04T09:06:21Z</time>
      </trkpt>
      <trkpt lat="50.33334" lon="3.65275">
        <ele>60.7003174</ele>
        <time>2011-12-04T09:06:28Z</time>
      </trkpt>
      <trkpt lat="50.33313" lon="3.65301">
        <ele>59.2584229</ele>
        <time>2011-12-04T09:06:32Z</time>
      </trkpt>
      <trkpt lat="50.33289" lon="3.65303">
        <ele>58.77771</ele>
        <time>2011-12-04T09:06:36Z</time>
      </trkpt>
      <trkpt lat="50.33279" lon="3.65296">
        <ele>58.2971191</ele>
        <time>2011-12-04T09:06:38Z</time>
      </trkpt>
      <trkpt lat="50.3324" lon="3.65261">
        <ele>60.7003174</ele>
        <time>2011-12-04T09:06:46Z</time>
      </trkpt>
      <trkpt lat="50.33194" lon="3.65235">
        <ele>62.6229248</ele>
        <time>2011-12-04T09:06:55Z</time>
      </trkpt>
      <trkpt lat="50.33162" lon="3.65214">
        <ele>64.0650635</ele>
        <time>2011-12-04T09:07:02Z</time>
      </trkpt>
      <trkpt lat="50.33133" lon="3.65188">
        <ele>65.5070801</ele>
        <time>2011-12-04T09:07:09Z</time>
      </trkpt>
      <trkpt lat="50.33111" lon="3.65167">
        <ele>67.4296875</ele>
        <time>2011-12-04T09:07:16Z</time>
      </trkpt>
      <trkpt lat="50.33089" lon="3.65151">
        <ele>67.9102783</ele>
        <time>2011-12-04T09:07:23Z</time>
      </trkpt>
      <trkpt lat="50.33061" lon="3.65137">
        <ele>66.9489746</ele>
        <time>2011-12-04T09:07:31Z</time>
      </trkpt>
      <trkpt lat="50.33038" lon="3.65124">
        <ele>66.9489746</ele>
        <time>2011-12-04T09:07:38Z</time>
      </trkpt>
      <trkpt lat="50.33016" lon="3.6511">
        <ele>67.4296875</ele>
        <time>2011-12-04T09:07:45Z</time>
      </trkpt>
      <trkpt lat="50.32995" lon="3.65096">
        <ele>69.3522949</ele>
        <time>2011-12-04T09:07:52Z</time>
      </trkpt>
      <trkpt lat="50.32976" lon="3.65085">
        <ele>73.1976318</ele>
        <time>2011-12-04T09:07:58Z</time>
      </trkpt>
      <trkpt lat="50.32951" lon="3.65075">
        <ele>75.1202393</ele>
        <time>2011-12-04T09:08:06Z</time>
      </trkpt>
      <trkpt lat="50.32928" lon="3.65068">
        <ele>77.0428467</ele>
        <time>2011-12-04T09:08:14Z</time>
      </trkpt>
      <trkpt lat="50.32911" lon="3.65062">
        <ele>78.0040283</ele>
        <time>2011-12-04T09:08:20Z</time>
      </trkpt>
      <trkpt lat="50.32885" lon="3.65052">
        <ele>79.4460449</ele>
        <time>2011-12-04T09:08:29Z</time>
      </trkpt>
      <trkpt lat="50.32865" lon="3.65043">
        <ele>80.4074707</ele>
        <time>2011-12-04T09:08:37Z</time>
      </trkpt>
      <trkpt lat="50.32847" lon="3.65036">
        <ele>82.3300781</ele>
        <time>2011-12-04T09:08:44Z</time>
      </trkpt>
      <trkpt lat="50.32829" lon="3.6503">
        <ele>84.2526855</ele>
        <time>2011-12-04T09:08:51Z</time>
      </trkpt>
      <trkpt lat="50.32808" lon="3.65025">
        <ele>85.6945801</ele>
        <time>2011-12-04T09:08:59Z</time>
      </trkpt>
      <trkpt lat="50.32786" lon="3.65024">
        <ele>86.6560059</ele>
        <time>2011-12-04T09:09:07Z</time>
      </trkpt>
      <trkpt lat="50.32762" lon="3.65023">
        <ele>87.6171875</ele>
        <time>2011-12-04T09:09:15Z</time>
      </trkpt>
      <trkpt lat="50.32737" lon="3.65022">
        <ele>87.1365967</ele>
        <time>2011-12-04T09:09:24Z</time>
      </trkpt>
      <trkpt lat="50.32713" lon="3.65017">
        <ele>87.6171875</ele>
        <time>2011-12-04T09:09:32Z</time>
      </trkpt>
      <trkpt lat="50.32691" lon="3.65004">
        <ele>90.0206299</ele>
        <time>2011-12-04T09:09:40Z</time>
      </trkpt>
      <trkpt lat="50.32672" lon="3.64992">
        <ele>90.9819336</ele>
        <time>2011-12-04T09:09:47Z</time>
      </trkpt>
      <trkpt lat="50.32647" lon="3.64979">
        <ele>90.9819336</ele>
        <time>2011-12-04T09:09:56Z</time>
      </trkpt>
      <trkpt lat="50.32618" lon="3.64966">
        <ele>90.9819336</ele>
        <time>2011-12-04T09:10:06Z</time>
      </trkpt>
      <trkpt lat="50.326" lon="3.64958">
        <ele>90.9819336</ele>
        <time>2011-12-04T09:10:13Z</time>
      </trkpt>
      <trkpt lat="50.32586" lon="3.64951">
        <ele>90.5013428</ele>
        <time>2011-12-04T09:10:18Z</time>
      </trkpt>
      <trkpt lat="50.32565" lon="3.64943">
        <ele>90.5013428</ele>
        <time>2011-12-04T09:10:24Z</time>
      </trkpt>
      <trkpt lat="50.3253" lon="3.64925">
        <ele>89.0593262</ele>
        <time>2011-12-04T09:10:33Z</time>
      </trkpt>
      <trkpt lat="50.32505" lon="3.64909">
        <ele>88.0980225</ele>
        <time>2011-12-04T09:10:40Z</time>
      </trkpt>
      <trkpt lat="50.32468" lon="3.64889">
        <ele>88.0980225</ele>
        <time>2011-12-04T09:10:48Z</time>
      </trkpt>
      <trkpt lat="50.32427" lon="3.6487">
        <ele>88.0980225</ele>
        <time>2011-12-04T09:10:57Z</time>
      </trkpt>
      <trkpt lat="50.32378" lon="3.6485">
        <ele>88.0980225</ele>
        <time>2011-12-04T09:11:08Z</time>
      </trkpt>
      <trkpt lat="50.32342" lon="3.64837">
        <ele>87.6171875</ele>
        <time>2011-12-04T09:11:16Z</time>
      </trkpt>
      <trkpt lat="50.32304" lon="3.64821">
        <ele>88.0980225</ele>
        <time>2011-12-04T09:11:25Z</time>
      </trkpt>
      <trkpt lat="50.32273" lon="3.64808">
        <ele>89.539917</ele>
        <time>2011-12-04T09:11:33Z</time>
      </trkpt>
      <trkpt lat="50.32232" lon="3.6479">
        <ele>89.539917</ele>
        <time>2011-12-04T09:11:43Z</time>
      </trkpt>
      <trkpt lat="50.3219" lon="3.64777">
        <ele>90.5013428</ele>
        <time>2011-12-04T09:11:52Z</time>
      </trkpt>
      <trkpt lat="50.3218" lon="3.64775">
        <ele>90.5013428</ele>
        <time>2011-12-04T09:11:54Z</time>
      </trkpt>
      <trkpt lat="50.32171" lon="3.64774">
        <ele>90.5013428</ele>
        <time>2011-12-04T09:11:56Z</time>
      </trkpt>
      <trkpt lat="50.32129" lon="3.64763">
        <ele>90.9819336</ele>
        <time>2011-12-04T09:12:05Z</time>
      </trkpt>
      <trkpt lat="50.32096" lon="3.64756">
        <ele>91.9432373</ele>
        <time>2011-12-04T09:12:12Z</time>
      </trkpt>
      <trkpt lat="50.32056" lon="3.6475">
        <ele>91.9432373</ele>
        <time>2011-12-04T09:12:20Z</time>
      </trkpt>
      <trkpt lat="50.32002" lon="3.64742">
        <ele>92.4239502</ele>
        <time>2011-12-04T09:12:30Z</time>
      </trkpt>
      <trkpt lat="50.31951" lon="3.64732">
        <ele>92.4239502</ele>
        <time>2011-12-04T09:12:39Z</time>
      </trkpt>
      <trkpt lat="50.31891" lon="3.64724">
        <ele>91.9432373</ele>
        <time>2011-12-04T09:12:49Z</time>
      </trkpt>
      <trkpt lat="50.31844" lon="3.64726">
        <ele>91.4625244</ele>
        <time>2011-12-04T09:12:57Z</time>
      </trkpt>
      <trkpt lat="50.31782" lon="3.64739">
        <ele>90.5013428</ele>
        <time>2011-12-04T09:13:08Z</time>
      </trkpt>
      <trkpt lat="50.31744" lon="3.6476">
        <ele>90.0206299</ele>
        <time>2011-12-04T09:13:15Z</time>
      </trkpt>
      <trkpt lat="50.31698" lon="3.64799">
        <ele>90.5013428</ele>
        <time>2011-12-04T09:13:25Z</time>
      </trkpt>
      <trkpt lat="50.31656" lon="3.64837">
        <ele>90.9819336</ele>
        <time>2011-12-04T09:13:34Z</time>
      </trkpt>
      <trkpt lat="50.31627" lon="3.64859">
        <ele>91.4625244</ele>
        <time>2011-12-04T09:13:40Z</time>
      </trkpt>
      <trkpt lat="50.31585" lon="3.64869">
        <ele>92.4239502</ele>
        <time>2011-12-04T09:13:48Z</time>
      </trkpt>
      <trkpt lat="50.31545" lon="3.64879">
        <ele>92.904541</ele>
        <time>2011-12-04T09:13:56Z</time>
      </trkpt>
      <trkpt lat="50.31503" lon="3.64899">
        <ele>92.904541</ele>
        <time>2011-12-04T09:14:05Z</time>
      </trkpt>
      <trkpt lat="50.31464" lon="3.64926">
        <ele>93.8658447</ele>
        <time>2011-12-04T09:14:14Z</time>
      </trkpt>
      <trkpt lat="50.3143" lon="3.64954">
        <ele>93.8658447</ele>
        <time>2011-12-04T09:14:22Z</time>
      </trkpt>
      <trkpt lat="50.31396" lon="3.64985">
        <ele>92.4239502</ele>
        <time>2011-12-04T09:14:31Z</time>
      </trkpt>
      <trkpt lat="50.31368" lon="3.65012">
        <ele>91.4625244</ele>
        <time>2011-12-04T09:14:39Z</time>
      </trkpt>
      <trkpt lat="50.31338" lon="3.6504">
        <ele>90.0206299</ele>
        <time>2011-12-04T09:14:48Z</time>
      </trkpt>
      <trkpt lat="50.31315" lon="3.65064">
        <ele>90.0206299</ele>
        <time>2011-12-04T09:14:54Z</time>
      </trkpt>
      <trkpt lat="50.31292" lon="3.65096">
        <ele>90.0206299</ele>
        <time>2011-12-04T09:15:00Z</time>
      </trkpt>
      <trkpt lat="50.31263" lon="3.65148">
        <ele>89.539917</ele>
        <time>2011-12-04T09:15:08Z</time>
      </trkpt>
      <trkpt lat="50.31238" lon="3.65194">
        <ele>90.0206299</ele>
        <time>2011-12-04T09:15:15Z</time>
      </trkpt>
      <trkpt lat="50.31235" lon="3.652">
        <ele>89.539917</ele>
        <time>2011-12-04T09:15:16Z</time>
      </trkpt>
      <trkpt lat="50.31208" lon="3.6525">
        <ele>89.539917</ele>
        <time>2011-12-04T09:15:24Z</time>
      </trkpt>
      <trkpt lat="50.31187" lon="3.65287">
        <ele>89.539917</ele>
        <time>2011-12-04T09:15:31Z</time>
      </trkpt>
      <trkpt lat="50.31157" lon="3.65341">
        <ele>90.5013428</ele>
        <time>2011-12-04T09:15:40Z</time>
      </trkpt>
      <trkpt lat="50.31127" lon="3.65394">
        <ele>90.5013428</ele>
        <time>2011-12-04T09:15:48Z</time>
      </trkpt>
      <trkpt lat="50.31095" lon="3.6546">
        <ele>90.9819336</ele>
        <time>2011-12-04T09:15:57Z</time>
      </trkpt>
      <trkpt lat="50.31062" lon="3.65531">
        <ele>90.9819336</ele>
        <time>2011-12-04T09:16:07Z</time>
      </trkpt>
      <trkpt lat="50.31038" lon="3.65581">
        <ele>91.9432373</ele>
        <time>2011-12-04T09:16:14Z</time>
      </trkpt>
      <trkpt lat="50.31031" lon="3.65598">
        <ele>91.9432373</ele>
        <time>2011-12-04T09:16:16Z</time>
      </trkpt>
      <trkpt lat="50.31005" lon="3.65615">
        <ele>88.5787354</ele>
        <time>2011-12-04T09:16:20Z</time>
      </trkpt>
      <trkpt lat="50.30976" lon="3.65613">
        <ele>83.7719727</ele>
        <time>2011-12-04T09:16:23Z</time>
      </trkpt>
      <trkpt lat="50.30965" lon="3.65615">
        <ele>82.3300781</ele>
        <time>2011-12-04T09:16:24Z</time>
      </trkpt>
      <trkpt lat="50.3091" lon="3.65614">
        <ele>76.5621338</ele>
        <time>2011-12-04T09:16:29Z</time>
      </trkpt>
      <trkpt lat="50.30896" lon="3.65606">
        <ele>76.0814209</ele>
        <time>2011-12-04T09:16:31Z</time>
      </trkpt>
      <trkpt lat="50.3089" lon="3.65601">
        <ele>76.0814209</ele>
        <time>2011-12-04T09:16:33Z</time>
      </trkpt>
      <trkpt lat="50.30887" lon="3.65597">
        <ele>75.6008301</ele>
        <time>2011-12-04T09:16:36Z</time>
      </trkpt>
      <trkpt lat="50.30889" lon="3.65594">
        <ele>76.5621338</ele>
        <time>2011-12-04T09:16:41Z</time>
      </trkpt>
      <trkpt lat="50.30893" lon="3.65578">
        <ele>76.0814209</ele>
        <time>2011-12-04T09:16:46Z</time>
      </trkpt>
      <trkpt lat="50.30892" lon="3.65574">
        <ele>75.6008301</ele>
        <time>2011-12-04T09:16:48Z</time>
      </trkpt>
      <trkpt lat="50.30882" lon="3.65558">
        <ele>74.6395264</ele>
        <time>2011-12-04T09:16:55Z</time>
      </trkpt>
      <trkpt lat="50.30873" lon="3.6554">
        <ele>75.6008301</ele>
        <time>2011-12-04T09:17:01Z</time>
      </trkpt>
      <trkpt lat="50.30868" lon="3.65527">
        <ele>74.6395264</ele>
        <time>2011-12-04T09:17:06Z</time>
      </trkpt>
      <trkpt lat="50.30861" lon="3.65513">
        <ele>75.6008301</ele>
        <time>2011-12-04T09:17:12Z</time>
      </trkpt>
      <trkpt lat="50.30852" lon="3.65497">
        <ele>75.1202393</ele>
        <time>2011-12-04T09:17:17Z</time>
      </trkpt>
      <trkpt lat="50.30835" lon="3.65476">
        <ele>75.6008301</ele>
        <time>2011-12-04T09:17:24Z</time>
      </trkpt>
      <trkpt lat="50.30824" lon="3.65471">
        <ele>74.6395264</ele>
        <time>2011-12-04T09:17:28Z</time>
      </trkpt>
      <trkpt lat="50.30814" lon="3.65461">
        <ele>75.1202393</ele>
        <time>2011-12-04T09:17:32Z</time>
      </trkpt>
      <trkpt lat="50.30802" lon="3.65441">
        <ele>74.6395264</ele>
        <time>2011-12-04T09:17:38Z</time>
      </trkpt>
      <trkpt lat="50.30787" lon="3.65419">
        <ele>76.5621338</ele>
        <time>2011-12-04T09:17:45Z</time>
      </trkpt>
      <trkpt lat="50.30785" lon="3.65416">
        <ele>76.5621338</ele>
        <time>2011-12-04T09:17:46Z</time>
      </trkpt>
      <trkpt lat="50.30778" lon="3.65399">
        <ele>78.4847412</ele>
        <time>2011-12-04T09:17:52Z</time>
      </trkpt>
      <trkpt lat="50.30763" lon="3.65379">
        <ele>78.9654541</ele>
        <time>2011-12-04T09:17:59Z</time>
      </trkpt>
      <trkpt lat="50.30751" lon="3.65367">
        <ele>80.8881836</ele>
        <time>2011-12-04T09:18:05Z</time>
      </trkpt>
      <trkpt lat="50.30742" lon="3.65351">
        <ele>82.3300781</ele>
        <time>2011-12-04T09:18:11Z</time>
      </trkpt>
      <trkpt lat="50.3074" lon="3.65344">
        <ele>82.3300781</ele>
        <time>2011-12-04T09:18:13Z</time>
      </trkpt>
      <trkpt lat="50.3073" lon="3.65329">
        <ele>82.810791</ele>
        <time>2011-12-04T09:18:19Z</time>
      </trkpt>
      <trkpt lat="50.30716" lon="3.65304">
        <ele>83.7719727</ele>
        <time>2011-12-04T09:18:28Z</time>
      </trkpt>
      <trkpt lat="50.30701" lon="3.65277">
        <ele>84.7333984</ele>
        <time>2011-12-04T09:18:37Z</time>
      </trkpt>
      <trkpt lat="50.30689" lon="3.6525">
        <ele>84.7333984</ele>
        <time>2011-12-04T09:18:45Z</time>
      </trkpt>
      <trkpt lat="50.30679" lon="3.65231">
        <ele>85.2139893</ele>
        <time>2011-12-04T09:18:51Z</time>
      </trkpt>
      <trkpt lat="50.30678" lon="3.65214">
        <ele>85.2139893</ele>
        <time>2011-12-04T09:18:55Z</time>
      </trkpt>
      <trkpt lat="50.30683" lon="3.65177">
        <ele>84.2526855</ele>
        <time>2011-12-04T09:19:01Z</time>
      </trkpt>
      <trkpt lat="50.30691" lon="3.65109">
        <ele>83.2913818</ele>
        <time>2011-12-04T09:19:10Z</time>
      </trkpt>
      <trkpt lat="50.30698" lon="3.6505">
        <ele>82.810791</ele>
        <time>2011-12-04T09:19:17Z</time>
      </trkpt>
      <trkpt lat="50.30692" lon="3.64977">
        <ele>84.2526855</ele>
        <time>2011-12-04T09:19:26Z</time>
      </trkpt>
      <trkpt lat="50.30686" lon="3.64946">
        <ele>85.6945801</ele>
        <time>2011-12-04T09:19:31Z</time>
      </trkpt>
      <trkpt lat="50.30682" lon="3.64902">
        <ele>84.7333984</ele>
        <time>2011-12-04T09:19:38Z</time>
      </trkpt>
      <trkpt lat="50.30678" lon="3.64836">
        <ele>84.7333984</ele>
        <time>2011-12-04T09:19:47Z</time>
      </trkpt>
      <trkpt lat="50.30673" lon="3.64805">
        <ele>83.2913818</ele>
        <time>2011-12-04T09:19:51Z</time>
      </trkpt>
      <trkpt lat="50.30672" lon="3.6477">
        <ele>83.2913818</ele>
        <time>2011-12-04T09:19:55Z</time>
      </trkpt>
      <trkpt lat="50.30682" lon="3.64703">
        <ele>81.8493652</ele>
        <time>2011-12-04T09:20:03Z</time>
      </trkpt>
      <trkpt lat="50.30691" lon="3.64647">
        <ele>81.3687744</ele>
        <time>2011-12-04T09:20:10Z</time>
      </trkpt>
      <trkpt lat="50.30698" lon="3.6459">
        <ele>80.8881836</ele>
        <time>2011-12-04T09:20:17Z</time>
      </trkpt>
      <trkpt lat="50.307" lon="3.64543">
        <ele>80.4074707</ele>
        <time>2011-12-04T09:20:23Z</time>
      </trkpt>
      <trkpt lat="50.30707" lon="3.64502">
        <ele>79.4460449</ele>
        <time>2011-12-04T09:20:28Z</time>
      </trkpt>
      <trkpt lat="50.3072" lon="3.64433">
        <ele>79.4460449</ele>
        <time>2011-12-04T09:20:36Z</time>
      </trkpt>
      <trkpt lat="50.30725" lon="3.64411">
        <ele>79.9266357</ele>
        <time>2011-12-04T09:20:39Z</time>
      </trkpt>
      <trkpt lat="50.30732" lon="3.64382">
        <ele>80.4074707</ele>
        <time>2011-12-04T09:20:44Z</time>
      </trkpt>
      <trkpt lat="50.30735" lon="3.64372">
        <ele>80.4074707</ele>
        <time>2011-12-04T09:20:46Z</time>
      </trkpt>
      <trkpt lat="50.30743" lon="3.64325">
        <ele>80.4074707</ele>
        <time>2011-12-04T09:20:54Z</time>
      </trkpt>
      <trkpt lat="50.30747" lon="3.64306">
        <ele>79.9266357</ele>
        <time>2011-12-04T09:20:57Z</time>
      </trkpt>
      <trkpt lat="50.30768" lon="3.64234">
        <ele>78.4847412</ele>
        <time>2011-12-04T09:21:07Z</time>
      </trkpt>
      <trkpt lat="50.30795" lon="3.64151">
        <ele>79.9266357</ele>
        <time>2011-12-04T09:21:18Z</time>
      </trkpt>
      <trkpt lat="50.30814" lon="3.64094">
        <ele>80.4074707</ele>
        <time>2011-12-04T09:21:26Z</time>
      </trkpt>
      <trkpt lat="50.30831" lon="3.64044">
        <ele>80.4074707</ele>
        <time>2011-12-04T09:21:34Z</time>
      </trkpt>
      <trkpt lat="50.30847" lon="3.64006">
        <ele>80.8881836</ele>
        <time>2011-12-04T09:21:41Z</time>
      </trkpt>
      <trkpt lat="50.30852" lon="3.63996">
        <ele>81.3687744</ele>
        <time>2011-12-04T09:21:43Z</time>
      </trkpt>
      <trkpt lat="50.30862" lon="3.63967">
        <ele>81.3687744</ele>
        <time>2011-12-04T09:21:49Z</time>
      </trkpt>
      <trkpt lat="50.30871" lon="3.63942">
        <ele>81.3687744</ele>
        <time>2011-12-04T09:21:54Z</time>
      </trkpt>
      <trkpt lat="50.30884" lon="3.63905">
        <ele>80.8881836</ele>
        <time>2011-12-04T09:22:01Z</time>
      </trkpt>
      <trkpt lat="50.30896" lon="3.63878">
        <ele>80.4074707</ele>
        <time>2011-12-04T09:22:06Z</time>
      </trkpt>
      <trkpt lat="50.30901" lon="3.6386">
        <ele>79.4460449</ele>
        <time>2011-12-04T09:22:09Z</time>
      </trkpt>
      <trkpt lat="50.30911" lon="3.63834">
        <ele>77.0428467</ele>
        <time>2011-12-04T09:22:15Z</time>
      </trkpt>
      <trkpt lat="50.30917" lon="3.63827">
        <ele>75.6008301</ele>
        <time>2011-12-04T09:22:18Z</time>
      </trkpt>
      <trkpt lat="50.30925" lon="3.63804">
        <ele>76.0814209</ele>
        <time>2011-12-04T09:22:24Z</time>
      </trkpt>
      <trkpt lat="50.30933" lon="3.63778">
        <ele>73.6782227</ele>
        <time>2011-12-04T09:22:29Z</time>
      </trkpt>
      <trkpt lat="50.30943" lon="3.63749">
        <ele>72.2362061</ele>
        <time>2011-12-04T09:22:34Z</time>
      </trkpt>
      <trkpt lat="50.30956" lon="3.63713">
        <ele>71.7554932</ele>
        <time>2011-12-04T09:22:40Z</time>
      </trkpt>
      <trkpt lat="50.30958" lon="3.63707">
        <ele>71.2749023</ele>
        <time>2011-12-04T09:22:41Z</time>
      </trkpt>
      <trkpt lat="50.30962" lon="3.63695">
        <ele>71.2749023</ele>
        <time>2011-12-04T09:22:43Z</time>
      </trkpt>
      <trkpt lat="50.30972" lon="3.63667">
        <ele>71.2749023</ele>
        <time>2011-12-04T09:22:48Z</time>
      </trkpt>
      <trkpt lat="50.3098" lon="3.63641">
        <ele>78.9654541</ele>
        <time>2011-12-04T09:22:52Z</time>
      </trkpt>
      <trkpt lat="50.30985" lon="3.6363">
        <ele>81.8493652</ele>
        <time>2011-12-04T09:22:54Z</time>
      </trkpt>
      <trkpt lat="50.30995" lon="3.63609">
        <ele>81.8493652</ele>
        <time>2011-12-04T09:22:58Z</time>
      </trkpt>
      <trkpt lat="50.31006" lon="3.63583">
        <ele>79.4460449</ele>
        <time>2011-12-04T09:23:03Z</time>
      </trkpt>
      <trkpt lat="50.31014" lon="3.63561">
        <ele>78.9654541</ele>
        <time>2011-12-04T09:23:07Z</time>
      </trkpt>
      <trkpt lat="50.31018" lon="3.63549">
        <ele>78.0040283</ele>
        <time>2011-12-04T09:23:09Z</time>
      </trkpt>
      <trkpt lat="50.31027" lon="3.63529">
        <ele>77.0428467</ele>
        <time>2011-12-04T09:23:13Z</time>
      </trkpt>
      <trkpt lat="50.31033" lon="3.63518">
        <ele>77.0428467</ele>
        <time>2011-12-04T09:23:15Z</time>
      </trkpt>
      <trkpt lat="50.31041" lon="3.63502">
        <ele>77.5234375</ele>
        <time>2011-12-04T09:23:18Z</time>
      </trkpt>
      <trkpt lat="50.31058" lon="3.63473">
        <ele>73.6782227</ele>
        <time>2011-12-04T09:23:24Z</time>
      </trkpt>
      <trkpt lat="50.3107" lon="3.63451">
        <ele>70.3134766</ele>
        <time>2011-12-04T09:23:29Z</time>
      </trkpt>
      <trkpt lat="50.31082" lon="3.63431">
        <ele>74.1588135</ele>
        <time>2011-12-04T09:23:33Z</time>
      </trkpt>
      <trkpt lat="50.31098" lon="3.63406">
        <ele>73.6782227</ele>
        <time>2011-12-04T09:23:39Z</time>
      </trkpt>
      <trkpt lat="50.3112" lon="3.63374">
        <ele>83.7719727</ele>
        <time>2011-12-04T09:23:46Z</time>
      </trkpt>
      <trkpt lat="50.31139" lon="3.63348">
        <ele>81.3687744</ele>
        <time>2011-12-04T09:23:52Z</time>
      </trkpt>
      <trkpt lat="50.31149" lon="3.63337">
        <ele>80.4074707</ele>
        <time>2011-12-04T09:23:55Z</time>
      </trkpt>
      <trkpt lat="50.31162" lon="3.63321">
        <ele>78.4847412</ele>
        <time>2011-12-04T09:23:59Z</time>
      </trkpt>
      <trkpt lat="50.3119" lon="3.63289">
        <ele>76.5621338</ele>
        <time>2011-12-04T09:24:08Z</time>
      </trkpt>
      <trkpt lat="50.31203" lon="3.63271">
        <ele>77.0428467</ele>
        <time>2011-12-04T09:24:13Z</time>
      </trkpt>
      <trkpt lat="50.31223" lon="3.63247">
        <ele>78.0040283</ele>
        <time>2011-12-04T09:24:20Z</time>
      </trkpt>
      <trkpt lat="50.31252" lon="3.63211">
        <ele>79.9266357</ele>
        <time>2011-12-04T09:24:31Z</time>
      </trkpt>
      <trkpt lat="50.31267" lon="3.63194">
        <ele>78.4847412</ele>
        <time>2011-12-04T09:24:37Z</time>
      </trkpt>
      <trkpt lat="50.31283" lon="3.63178">
        <ele>77.5234375</ele>
        <time>2011-12-04T09:24:43Z</time>
      </trkpt>
      <trkpt lat="50.31298" lon="3.63163">
        <ele>77.5234375</ele>
        <time>2011-12-04T09:24:49Z</time>
      </trkpt>
      <trkpt lat="50.31308" lon="3.63147">
        <ele>77.5234375</ele>
        <time>2011-12-04T09:24:53Z</time>
      </trkpt>
      <trkpt lat="50.31331" lon="3.63118">
        <ele>78.9654541</ele>
        <time>2011-12-04T09:25:01Z</time>
      </trkpt>
      <trkpt lat="50.31358" lon="3.63086">
        <ele>79.9266357</ele>
        <time>2011-12-04T09:25:10Z</time>
      </trkpt>
      <trkpt lat="50.3138" lon="3.63062">
        <ele>81.3687744</ele>
        <time>2011-12-04T09:25:18Z</time>
      </trkpt>
      <trkpt lat="50.31388" lon="3.63058">
        <ele>82.810791</ele>
        <time>2011-12-04T09:25:22Z</time>
      </trkpt>
      <trkpt lat="50.31393" lon="3.6305">
        <ele>84.2526855</ele>
        <time>2011-12-04T09:25:25Z</time>
      </trkpt>
      <trkpt lat="50.31403" lon="3.6303">
        <ele>88.5787354</ele>
        <time>2011-12-04T09:25:31Z</time>
      </trkpt>
      <trkpt lat="50.31416" lon="3.63013">
        <ele>89.0593262</ele>
        <time>2011-12-04T09:25:37Z</time>
      </trkpt>
      <trkpt lat="50.3144" lon="3.62984">
        <ele>87.6171875</ele>
        <time>2011-12-04T09:25:45Z</time>
      </trkpt>
      <trkpt lat="50.31461" lon="3.62957">
        <ele>85.2139893</ele>
        <time>2011-12-04T09:25:52Z</time>
      </trkpt>
      <trkpt lat="50.31489" lon="3.62925">
        <ele>82.3300781</ele>
        <time>2011-12-04T09:26:01Z</time>
      </trkpt>
      <trkpt lat="50.31507" lon="3.62905">
        <ele>81.8493652</ele>
        <time>2011-12-04T09:26:07Z</time>
      </trkpt>
      <trkpt lat="50.31521" lon="3.62883">
        <ele>81.8493652</ele>
        <time>2011-12-04T09:26:13Z</time>
      </trkpt>
      <trkpt lat="50.31529" lon="3.62864">
        <ele>85.2139893</ele>
        <time>2011-12-04T09:26:17Z</time>
      </trkpt>
      <trkpt lat="50.31551" lon="3.62835">
        <ele>87.6171875</ele>
        <time>2011-12-04T09:26:24Z</time>
      </trkpt>
      <trkpt lat="50.31571" lon="3.62811">
        <ele>88.5787354</ele>
        <time>2011-12-04T09:26:30Z</time>
      </trkpt>
      <trkpt lat="50.31582" lon="3.628">
        <ele>89.0593262</ele>
        <time>2011-12-04T09:26:34Z</time>
      </trkpt>
      <trkpt lat="50.31596" lon="3.62796">
        <ele>88.5787354</ele>
        <time>2011-12-04T09:26:38Z</time>
      </trkpt>
      <trkpt lat="50.31609" lon="3.62778">
        <ele>88.5787354</ele>
        <time>2011-12-04T09:26:42Z</time>
      </trkpt>
      <trkpt lat="50.31626" lon="3.62753">
        <ele>89.0593262</ele>
        <time>2011-12-04T09:26:47Z</time>
      </trkpt>
      <trkpt lat="50.31648" lon="3.62724">
        <ele>90.0206299</ele>
        <time>2011-12-04T09:26:53Z</time>
      </trkpt>
      <trkpt lat="50.31672" lon="3.62699">
        <ele>91.9432373</ele>
        <time>2011-12-04T09:26:59Z</time>
      </trkpt>
      <trkpt lat="50.31686" lon="3.62681">
        <ele>92.904541</ele>
        <time>2011-12-04T09:27:03Z</time>
      </trkpt>
      <trkpt lat="50.31701" lon="3.6266">
        <ele>94.8271484</ele>
        <time>2011-12-04T09:27:08Z</time>
      </trkpt>
      <trkpt lat="50.31714" lon="3.62642">
        <ele>97.2304688</ele>
        <time>2011-12-04T09:27:12Z</time>
      </trkpt>
      <trkpt lat="50.31721" lon="3.62633">
        <ele>99.1530762</ele>
        <time>2011-12-04T09:27:14Z</time>
      </trkpt>
      <trkpt lat="50.31742" lon="3.62608">
        <ele>99.6337891</ele>
        <time>2011-12-04T09:27:20Z</time>
      </trkpt>
      <trkpt lat="50.31744" lon="3.62603">
        <ele>100.114502</ele>
        <time>2011-12-04T09:27:21Z</time>
      </trkpt>
      <trkpt lat="50.31759" lon="3.62584">
        <ele>105.8824463</ele>
        <time>2011-12-04T09:27:26Z</time>
      </trkpt>
      <trkpt lat="50.31772" lon="3.62573">
        <ele>108.2856445</ele>
        <time>2011-12-04T09:27:31Z</time>
      </trkpt>
      <trkpt lat="50.31785" lon="3.6256">
        <ele>107.8050537</ele>
        <time>2011-12-04T09:27:35Z</time>
      </trkpt>
      <trkpt lat="50.31797" lon="3.62545">
        <ele>107.3243408</ele>
        <time>2011-12-04T09:27:39Z</time>
      </trkpt>
      <trkpt lat="50.31818" lon="3.62518">
        <ele>106.3630371</ele>
        <time>2011-12-04T09:27:46Z</time>
      </trkpt>
      <trkpt lat="50.31843" lon="3.62489">
        <ele>104.9210205</ele>
        <time>2011-12-04T09:27:53Z</time>
      </trkpt>
      <trkpt lat="50.31846" lon="3.62485">
        <ele>104.4404297</ele>
        <time>2011-12-04T09:27:54Z</time>
      </trkpt>
      <trkpt lat="50.31867" lon="3.6246">
        <ele>102.998291</ele>
        <time>2011-12-04T09:28:00Z</time>
      </trkpt>
      <trkpt lat="50.31889" lon="3.62435">
        <ele>100.5950928</ele>
        <time>2011-12-04T09:28:06Z</time>
      </trkpt>
      <trkpt lat="50.31909" lon="3.62411">
        <ele>98.1918945</ele>
        <time>2011-12-04T09:28:12Z</time>
      </trkpt>
      <trkpt lat="50.31925" lon="3.6239">
        <ele>96.7498779</ele>
        <time>2011-12-04T09:28:17Z</time>
      </trkpt>
      <trkpt lat="50.31932" lon="3.62382">
        <ele>96.2692871</ele>
        <time>2011-12-04T09:28:19Z</time>
      </trkpt>
      <trkpt lat="50.31951" lon="3.62361">
        <ele>95.7884521</ele>
        <time>2011-12-04T09:28:24Z</time>
      </trkpt>
      <trkpt lat="50.31969" lon="3.62333">
        <ele>95.7884521</ele>
        <time>2011-12-04T09:28:30Z</time>
      </trkpt>
      <trkpt lat="50.31975" lon="3.62324">
        <ele>94.8271484</ele>
        <time>2011-12-04T09:28:32Z</time>
      </trkpt>
      <trkpt lat="50.3199" lon="3.62306">
        <ele>94.8271484</ele>
        <time>2011-12-04T09:28:36Z</time>
      </trkpt>
      <trkpt lat="50.32012" lon="3.62273">
        <ele>96.2692871</ele>
        <time>2011-12-04T09:28:43Z</time>
      </trkpt>
      <trkpt lat="50.32034" lon="3.62251">
        <ele>99.6337891</ele>
        <time>2011-12-04T09:28:48Z</time>
      </trkpt>
      <trkpt lat="50.32039" lon="3.62247">
        <ele>101.5563965</ele>
        <time>2011-12-04T09:28:49Z</time>
      </trkpt>
      <trkpt lat="50.32063" lon="3.62219">
        <ele>102.0371094</ele>
        <time>2011-12-04T09:28:55Z</time>
      </trkpt>
      <trkpt lat="50.32086" lon="3.62189">
        <ele>101.5563965</ele>
        <time>2011-12-04T09:29:01Z</time>
      </trkpt>
      <trkpt lat="50.3209" lon="3.62184">
        <ele>101.0756836</ele>
        <time>2011-12-04T09:29:02Z</time>
      </trkpt>
      <trkpt lat="50.32118" lon="3.6215">
        <ele>100.114502</ele>
        <time>2011-12-04T09:29:09Z</time>
      </trkpt>
      <trkpt lat="50.32148" lon="3.62115">
        <ele>100.114502</ele>
        <time>2011-12-04T09:29:16Z</time>
      </trkpt>
      <trkpt lat="50.32157" lon="3.62105">
        <ele>100.114502</ele>
        <time>2011-12-04T09:29:18Z</time>
      </trkpt>
      <trkpt lat="50.32177" lon="3.62083">
        <ele>97.2304688</ele>
        <time>2011-12-04T09:29:23Z</time>
      </trkpt>
      <trkpt lat="50.32206" lon="3.62048">
        <ele>93.3851318</ele>
        <time>2011-12-04T09:29:30Z</time>
      </trkpt>
      <trkpt lat="50.3225" lon="3.6199">
        <ele>93.3851318</ele>
        <time>2011-12-04T09:29:41Z</time>
      </trkpt>
      <trkpt lat="50.32274" lon="3.6196">
        <ele>92.904541</ele>
        <time>2011-12-04T09:29:47Z</time>
      </trkpt>
      <trkpt lat="50.323" lon="3.61922">
        <ele>93.8658447</ele>
        <time>2011-12-04T09:29:54Z</time>
      </trkpt>
      <trkpt lat="50.32334" lon="3.61878">
        <ele>94.3465576</ele>
        <time>2011-12-04T09:30:03Z</time>
      </trkpt>
      <trkpt lat="50.32355" lon="3.61844">
        <ele>96.7498779</ele>
        <time>2011-12-04T09:30:09Z</time>
      </trkpt>
      <trkpt lat="50.32363" lon="3.61834">
        <ele>97.2304688</ele>
        <time>2011-12-04T09:30:11Z</time>
      </trkpt>
      <trkpt lat="50.32376" lon="3.61816">
        <ele>97.7111816</ele>
        <time>2011-12-04T09:30:15Z</time>
      </trkpt>
      <trkpt lat="50.3239" lon="3.61798">
        <ele>97.7111816</ele>
        <time>2011-12-04T09:30:19Z</time>
      </trkpt>
      <trkpt lat="50.32397" lon="3.61788">
        <ele>97.2304688</ele>
        <time>2011-12-04T09:30:21Z</time>
      </trkpt>
      <trkpt lat="50.32403" lon="3.61777">
        <ele>97.7111816</ele>
        <time>2011-12-04T09:30:23Z</time>
      </trkpt>
      <trkpt lat="50.32441" lon="3.61719">
        <ele>97.2304688</ele>
        <time>2011-12-04T09:30:35Z</time>
      </trkpt>
      <trkpt lat="50.32457" lon="3.61696">
        <ele>98.1918945</ele>
        <time>2011-12-04T09:30:40Z</time>
      </trkpt>
      <trkpt lat="50.32477" lon="3.6166">
        <ele>100.114502</ele>
        <time>2011-12-04T09:30:48Z</time>
      </trkpt>
      <trkpt lat="50.32496" lon="3.61628">
        <ele>101.5563965</ele>
        <time>2011-12-04T09:30:55Z</time>
      </trkpt>
      <trkpt lat="50.32506" lon="3.61608">
        <ele>100.5950928</ele>
        <time>2011-12-04T09:30:59Z</time>
      </trkpt>
      <trkpt lat="50.32523" lon="3.61583">
        <ele>102.0371094</ele>
        <time>2011-12-04T09:31:04Z</time>
      </trkpt>
      <trkpt lat="50.32541" lon="3.61557">
        <ele>107.8050537</ele>
        <time>2011-12-04T09:31:10Z</time>
      </trkpt>
      <trkpt lat="50.32559" lon="3.6153">
        <ele>106.8436279</ele>
        <time>2011-12-04T09:31:16Z</time>
      </trkpt>
      <trkpt lat="50.32562" lon="3.61525">
        <ele>106.3630371</ele>
        <time>2011-12-04T09:31:17Z</time>
      </trkpt>
      <trkpt lat="50.32576" lon="3.61505">
        <ele>103.9597168</ele>
        <time>2011-12-04T09:31:22Z</time>
      </trkpt>
      <trkpt lat="50.32583" lon="3.61498">
        <ele>102.0371094</ele>
        <time>2011-12-04T09:31:24Z</time>
      </trkpt>
      <trkpt lat="50.32606" lon="3.61456">
        <ele>101.5563965</ele>
        <time>2011-12-04T09:31:31Z</time>
      </trkpt>
      <trkpt lat="50.32622" lon="3.6143">
        <ele>98.6724854</ele>
        <time>2011-12-04T09:31:36Z</time>
      </trkpt>
      <trkpt lat="50.32628" lon="3.6142">
        <ele>98.1918945</ele>
        <time>2011-12-04T09:31:38Z</time>
      </trkpt>
      <trkpt lat="50.32641" lon="3.61393">
        <ele>95.3077393</ele>
        <time>2011-12-04T09:31:42Z</time>
      </trkpt>
      <trkpt lat="50.32667" lon="3.61352">
        <ele>92.4239502</ele>
        <time>2011-12-04T09:31:50Z</time>
      </trkpt>
      <trkpt lat="50.32695" lon="3.61307">
        <ele>91.9432373</ele>
        <time>2011-12-04T09:31:58Z</time>
      </trkpt>
      <trkpt lat="50.3272" lon="3.61265">
        <ele>92.4239502</ele>
        <time>2011-12-04T09:32:05Z</time>
      </trkpt>
      <trkpt lat="50.32742" lon="3.61228">
        <ele>91.4625244</ele>
        <time>2011-12-04T09:32:11Z</time>
      </trkpt>
      <trkpt lat="50.32754" lon="3.61209">
        <ele>91.4625244</ele>
        <time>2011-12-04T09:32:14Z</time>
      </trkpt>
      <trkpt lat="50.3279" lon="3.61154">
        <ele>90.5013428</ele>
        <time>2011-12-04T09:32:23Z</time>
      </trkpt>
      <trkpt lat="50.32815" lon="3.61114">
        <ele>90.5013428</ele>
        <time>2011-12-04T09:32:29Z</time>
      </trkpt>
      <trkpt lat="50.32826" lon="3.61094">
        <ele>90.0206299</ele>
        <time>2011-12-04T09:32:32Z</time>
      </trkpt>
      <trkpt lat="50.3284" lon="3.61071">
        <ele>89.539917</ele>
        <time>2011-12-04T09:32:36Z</time>
      </trkpt>
      <trkpt lat="50.32843" lon="3.61067">
        <ele>89.539917</ele>
        <time>2011-12-04T09:32:37Z</time>
      </trkpt>
      <trkpt lat="50.32865" lon="3.61025">
        <ele>91.4625244</ele>
        <time>2011-12-04T09:32:44Z</time>
      </trkpt>
      <trkpt lat="50.3289" lon="3.60983">
        <ele>92.4239502</ele>
        <time>2011-12-04T09:32:50Z</time>
      </trkpt>
      <trkpt lat="50.32908" lon="3.6096">
        <ele>91.4625244</ele>
        <time>2011-12-04T09:32:54Z</time>
      </trkpt>
      <trkpt lat="50.32939" lon="3.60908">
        <ele>89.539917</ele>
        <time>2011-12-04T09:33:02Z</time>
      </trkpt>
      <trkpt lat="50.32967" lon="3.60859">
        <ele>89.539917</ele>
        <time>2011-12-04T09:33:09Z</time>
      </trkpt>
      <trkpt lat="50.33004" lon="3.6079">
        <ele>90.9819336</ele>
        <time>2011-12-04T09:33:19Z</time>
      </trkpt>
      <trkpt lat="50.3302" lon="3.60763">
        <ele>91.9432373</ele>
        <time>2011-12-04T09:33:23Z</time>
      </trkpt>
      <trkpt lat="50.33041" lon="3.60723">
        <ele>93.3851318</ele>
        <time>2011-12-04T09:33:29Z</time>
      </trkpt>
      <trkpt lat="50.33056" lon="3.60693">
        <ele>90.5013428</ele>
        <time>2011-12-04T09:33:33Z</time>
      </trkpt>
      <trkpt lat="50.33069" lon="3.60665">
        <ele>88.5787354</ele>
        <time>2011-12-04T09:33:37Z</time>
      </trkpt>
      <trkpt lat="50.33095" lon="3.60603">
        <ele>85.2139893</ele>
        <time>2011-12-04T09:33:44Z</time>
      </trkpt>
      <trkpt lat="50.33119" lon="3.60543">
        <ele>85.6945801</ele>
        <time>2011-12-04T09:33:51Z</time>
      </trkpt>
      <trkpt lat="50.33146" lon="3.60479">
        <ele>87.6171875</ele>
        <time>2011-12-04T09:33:58Z</time>
      </trkpt>
      <trkpt lat="50.33182" lon="3.6039">
        <ele>87.1365967</ele>
        <time>2011-12-04T09:34:07Z</time>
      </trkpt>
      <trkpt lat="50.33206" lon="3.60327">
        <ele>86.175293</ele>
        <time>2011-12-04T09:34:14Z</time>
      </trkpt>
      <trkpt lat="50.33215" lon="3.60305">
        <ele>85.6945801</ele>
        <time>2011-12-04T09:34:17Z</time>
      </trkpt>
      <trkpt lat="50.33221" lon="3.60294">
        <ele>84.7333984</ele>
        <time>2011-12-04T09:34:19Z</time>
      </trkpt>
      <trkpt lat="50.33232" lon="3.60265">
        <ele>85.2139893</ele>
        <time>2011-12-04T09:34:24Z</time>
      </trkpt>
      <trkpt lat="50.33253" lon="3.60216">
        <ele>85.6945801</ele>
        <time>2011-12-04T09:34:31Z</time>
      </trkpt>
      <trkpt lat="50.3327" lon="3.60175">
        <ele>86.175293</ele>
        <time>2011-12-04T09:34:37Z</time>
      </trkpt>
      <trkpt lat="50.33285" lon="3.60133">
        <ele>86.6560059</ele>
        <time>2011-12-04T09:34:43Z</time>
      </trkpt>
      <trkpt lat="50.33309" lon="3.60077">
        <ele>87.1365967</ele>
        <time>2011-12-04T09:34:50Z</time>
      </trkpt>
      <trkpt lat="50.33315" lon="3.60062">
        <ele>87.1365967</ele>
        <time>2011-12-04T09:34:52Z</time>
      </trkpt>
      <trkpt lat="50.33329" lon="3.60054">
        <ele>87.1365967</ele>
        <time>2011-12-04T09:34:56Z</time>
      </trkpt>
      <trkpt lat="50.33335" lon="3.60064">
        <ele>86.6560059</ele>
        <time>2011-12-04T09:34:58Z</time>
      </trkpt>
      <trkpt lat="50.33358" lon="3.60109">
        <ele>86.6560059</ele>
        <time>2011-12-04T09:35:04Z</time>
      </trkpt>
      <trkpt lat="50.33388" lon="3.60169">
        <ele>86.175293</ele>
        <time>2011-12-04T09:35:11Z</time>
      </trkpt>
      <trkpt lat="50.33404" lon="3.60228">
        <ele>85.6945801</ele>
        <time>2011-12-04T09:35:17Z</time>
      </trkpt>
      <trkpt lat="50.33417" lon="3.603">
        <ele>83.7719727</ele>
        <time>2011-12-04T09:35:24Z</time>
      </trkpt>
      <trkpt lat="50.33431" lon="3.60385">
        <ele>83.2913818</ele>
        <time>2011-12-04T09:35:31Z</time>
      </trkpt>
      <trkpt lat="50.33447" lon="3.60454">
        <ele>83.2913818</ele>
        <time>2011-12-04T09:35:37Z</time>
      </trkpt>
      <trkpt lat="50.33461" lon="3.60496">
        <ele>83.7719727</ele>
        <time>2011-12-04T09:35:41Z</time>
      </trkpt>
      <trkpt lat="50.33494" lon="3.60558">
        <ele>85.2139893</ele>
        <time>2011-12-04T09:35:48Z</time>
      </trkpt>
      <trkpt lat="50.33503" lon="3.60575">
        <ele>85.6945801</ele>
        <time>2011-12-04T09:35:50Z</time>
      </trkpt>
      <trkpt lat="50.33531" lon="3.60606">
        <ele>86.6560059</ele>
        <time>2011-12-04T09:35:55Z</time>
      </trkpt>
      <trkpt lat="50.33564" lon="3.60625">
        <ele>88.5787354</ele>
        <time>2011-12-04T09:36:01Z</time>
      </trkpt>
      <trkpt lat="50.33603" lon="3.60652">
        <ele>89.539917</ele>
        <time>2011-12-04T09:36:09Z</time>
      </trkpt>
      <trkpt lat="50.33654" lon="3.60695">
        <ele>90.0206299</ele>
        <time>2011-12-04T09:36:20Z</time>
      </trkpt>
      <trkpt lat="50.33679" lon="3.60715">
        <ele>90.0206299</ele>
        <time>2011-12-04T09:36:25Z</time>
      </trkpt>
      <trkpt lat="50.33703" lon="3.60735">
        <ele>89.539917</ele>
        <time>2011-12-04T09:36:30Z</time>
      </trkpt>
      <trkpt lat="50.33718" lon="3.60746">
        <ele>90.0206299</ele>
        <time>2011-12-04T09:36:33Z</time>
      </trkpt>
      <trkpt lat="50.33753" lon="3.60767">
        <ele>90.9819336</ele>
        <time>2011-12-04T09:36:40Z</time>
      </trkpt>
      <trkpt lat="50.33796" lon="3.60792">
        <ele>90.9819336</ele>
        <time>2011-12-04T09:36:48Z</time>
      </trkpt>
      <trkpt lat="50.33838" lon="3.60817">
        <ele>90.5013428</ele>
        <time>2011-12-04T09:36:55Z</time>
      </trkpt>
      <trkpt lat="50.33879" lon="3.60839">
        <ele>90.0206299</ele>
        <time>2011-12-04T09:37:01Z</time>
      </trkpt>
      <trkpt lat="50.33929" lon="3.60868">
        <ele>89.0593262</ele>
        <time>2011-12-04T09:37:08Z</time>
      </trkpt>
      <trkpt lat="50.33976" lon="3.60894">
        <ele>88.0980225</ele>
        <time>2011-12-04T09:37:15Z</time>
      </trkpt>
      <trkpt lat="50.33987" lon="3.60901">
        <ele>88.0980225</ele>
        <time>2011-12-04T09:37:17Z</time>
      </trkpt>
      <trkpt lat="50.33995" lon="3.60918">
        <ele>87.6171875</ele>
        <time>2011-12-04T09:37:21Z</time>
      </trkpt>
      <trkpt lat="50.33995" lon="3.60923">
        <ele>87.6171875</ele>
        <time>2011-12-04T09:37:22Z</time>
      </trkpt>
      <trkpt lat="50.33987" lon="3.60976">
        <ele>88.5787354</ele>
        <time>2011-12-04T09:37:29Z</time>
      </trkpt>
      <trkpt lat="50.33977" lon="3.61037">
        <ele>89.0593262</ele>
        <time>2011-12-04T09:37:36Z</time>
      </trkpt>
      <trkpt lat="50.33961" lon="3.61136">
        <ele>89.539917</ele>
        <time>2011-12-04T09:37:47Z</time>
      </trkpt>
      <trkpt lat="50.33952" lon="3.61219">
        <ele>89.539917</ele>
        <time>2011-12-04T09:37:56Z</time>
      </trkpt>
      <trkpt lat="50.33944" lon="3.61311">
        <ele>90.0206299</ele>
        <time>2011-12-04T09:38:06Z</time>
      </trkpt>
      <trkpt lat="50.33933" lon="3.61387">
        <ele>89.539917</ele>
        <time>2011-12-04T09:38:14Z</time>
      </trkpt>
      <trkpt lat="50.33924" lon="3.61444">
        <ele>90.0206299</ele>
        <time>2011-12-04T09:38:20Z</time>
      </trkpt>
      <trkpt lat="50.33915" lon="3.61501">
        <ele>89.539917</ele>
        <time>2011-12-04T09:38:27Z</time>
      </trkpt>
      <trkpt lat="50.33909" lon="3.61534">
        <ele>89.539917</ele>
        <time>2011-12-04T09:38:33Z</time>
      </trkpt>
      <trkpt lat="50.33904" lon="3.61573">
        <ele>90.0206299</ele>
        <time>2011-12-04T09:38:39Z</time>
      </trkpt>
      <trkpt lat="50.33902" lon="3.61581">
        <ele>90.0206299</ele>
        <time>2011-12-04T09:38:40Z</time>
      </trkpt>
      <trkpt lat="50.3389" lon="3.61651">
        <ele>90.0206299</ele>
        <time>2011-12-04T09:38:48Z</time>
      </trkpt>
      <trkpt lat="50.33877" lon="3.61728">
        <ele>90.5013428</ele>
        <time>2011-12-04T09:38:57Z</time>
      </trkpt>
      <trkpt lat="50.33866" lon="3.61804">
        <ele>91.9432373</ele>
        <time>2011-12-04T09:39:06Z</time>
      </trkpt>
      <trkpt lat="50.33855" lon="3.61865">
        <ele>93.3851318</ele>
        <time>2011-12-04T09:39:13Z</time>
      </trkpt>
      <trkpt lat="50.33848" lon="3.61908">
        <ele>94.8271484</ele>
        <time>2011-12-04T09:39:18Z</time>
      </trkpt>
      <trkpt lat="50.33835" lon="3.61973">
        <ele>96.2692871</ele>
        <time>2011-12-04T09:39:26Z</time>
      </trkpt>
      <trkpt lat="50.33831" lon="3.61997">
        <ele>96.7498779</ele>
        <time>2011-12-04T09:39:29Z</time>
      </trkpt>
      <trkpt lat="50.33814" lon="3.62068">
        <ele>96.7498779</ele>
        <time>2011-12-04T09:39:38Z</time>
      </trkpt>
      <trkpt lat="50.33793" lon="3.62138">
        <ele>94.8271484</ele>
        <time>2011-12-04T09:39:46Z</time>
      </trkpt>
      <trkpt lat="50.33772" lon="3.62202">
        <ele>93.3851318</ele>
        <time>2011-12-04T09:39:53Z</time>
      </trkpt>
      <trkpt lat="50.33757" lon="3.62259">
        <ele>92.4239502</ele>
        <time>2011-12-04T09:39:59Z</time>
      </trkpt>
      <trkpt lat="50.33753" lon="3.62324">
        <ele>90.9819336</ele>
        <time>2011-12-04T09:40:05Z</time>
      </trkpt>
      <trkpt lat="50.33749" lon="3.62413">
        <ele>90.0206299</ele>
        <time>2011-12-04T09:40:13Z</time>
      </trkpt>
      <trkpt lat="50.33742" lon="3.62497">
        <ele>89.539917</ele>
        <time>2011-12-04T09:40:21Z</time>
      </trkpt>
      <trkpt lat="50.33736" lon="3.62546">
        <ele>89.0593262</ele>
        <time>2011-12-04T09:40:27Z</time>
      </trkpt>
      <trkpt lat="50.33725" lon="3.62617">
        <ele>89.539917</ele>
        <time>2011-12-04T09:40:35Z</time>
      </trkpt>
      <trkpt lat="50.33705" lon="3.62711">
        <ele>90.5013428</ele>
        <time>2011-12-04T09:40:45Z</time>
      </trkpt>
      <trkpt lat="50.33686" lon="3.62811">
        <ele>90.9819336</ele>
        <time>2011-12-04T09:40:55Z</time>
      </trkpt>
      <trkpt lat="50.33678" lon="3.62884">
        <ele>91.4625244</ele>
        <time>2011-12-04T09:41:02Z</time>
      </trkpt>
      <trkpt lat="50.33678" lon="3.62967">
        <ele>92.4239502</ele>
        <time>2011-12-04T09:41:10Z</time>
      </trkpt>
      <trkpt lat="50.3368" lon="3.63057">
        <ele>94.3465576</ele>
        <time>2011-12-04T09:41:19Z</time>
      </trkpt>
      <trkpt lat="50.33686" lon="3.63166">
        <ele>97.7111816</ele>
        <time>2011-12-04T09:41:31Z</time>
      </trkpt>
      <trkpt lat="50.33684" lon="3.63189">
        <ele>98.1918945</ele>
        <time>2011-12-04T09:41:34Z</time>
      </trkpt>
      <trkpt lat="50.33689" lon="3.63222">
        <ele>98.6724854</ele>
        <time>2011-12-04T09:41:40Z</time>
      </trkpt>
      <trkpt lat="50.33708" lon="3.63255">
        <ele>98.1918945</ele>
        <time>2011-12-04T09:41:46Z</time>
      </trkpt>
      <trkpt lat="50.33733" lon="3.63298">
        <ele>97.7111816</ele>
        <time>2011-12-04T09:41:53Z</time>
      </trkpt>
      <trkpt lat="50.33762" lon="3.63348">
        <ele>98.1918945</ele>
        <time>2011-12-04T09:42:01Z</time>
      </trkpt>
      <trkpt lat="50.33814" lon="3.63428">
        <ele>99.1530762</ele>
        <time>2011-12-04T09:42:14Z</time>
      </trkpt>
      <trkpt lat="50.33848" lon="3.63487">
        <ele>99.6337891</ele>
        <time>2011-12-04T09:42:23Z</time>
      </trkpt>
      <trkpt lat="50.3388" lon="3.63569">
        <ele>100.5950928</ele>
        <time>2011-12-04T09:42:34Z</time>
      </trkpt>
      <trkpt lat="50.33911" lon="3.63647">
        <ele>99.6337891</ele>
        <time>2011-12-04T09:42:44Z</time>
      </trkpt>
      <trkpt lat="50.33925" lon="3.63688">
        <ele>98.6724854</ele>
        <time>2011-12-04T09:42:49Z</time>
      </trkpt>
      <trkpt lat="50.33933" lon="3.63721">
        <ele>98.1918945</ele>
        <time>2011-12-04T09:42:53Z</time>
      </trkpt>
      <trkpt lat="50.33938" lon="3.63729">
        <ele>98.1918945</ele>
        <time>2011-12-04T09:42:55Z</time>
      </trkpt>
      <trkpt lat="50.33952" lon="3.63749">
        <ele>98.1918945</ele>
        <time>2011-12-04T09:43:00Z</time>
      </trkpt>
      <trkpt lat="50.33954" lon="3.63755">
        <ele>98.1918945</ele>
        <time>2011-12-04T09:43:01Z</time>
      </trkpt>
      <trkpt lat="50.33959" lon="3.63768">
        <ele>97.7111816</ele>
        <time>2011-12-04T09:43:03Z</time>
      </trkpt>
      <trkpt lat="50.33981" lon="3.63803">
        <ele>96.7498779</ele>
        <time>2011-12-04T09:43:09Z</time>
      </trkpt>
      <trkpt lat="50.34007" lon="3.63842">
        <ele>94.8271484</ele>
        <time>2011-12-04T09:43:15Z</time>
      </trkpt>
      <trkpt lat="50.34027" lon="3.63869">
        <ele>93.8658447</ele>
        <time>2011-12-04T09:43:19Z</time>
      </trkpt>
      <trkpt lat="50.34069" lon="3.63907">
        <ele>93.3851318</ele>
        <time>2011-12-04T09:43:26Z</time>
      </trkpt>
      <trkpt lat="50.34105" lon="3.63922">
        <ele>92.904541</ele>
        <time>2011-12-04T09:43:31Z</time>
      </trkpt>
      <trkpt lat="50.34159" lon="3.63934">
        <ele>91.4625244</ele>
        <time>2011-12-04T09:43:39Z</time>
      </trkpt>
      <trkpt lat="50.34192" lon="3.63943">
        <ele>90.9819336</ele>
        <time>2011-12-04T09:43:44Z</time>
      </trkpt>
      <trkpt lat="50.34226" lon="3.63954">
        <ele>91.9432373</ele>
        <time>2011-12-04T09:43:50Z</time>
      </trkpt>
      <trkpt lat="50.34235" lon="3.63947">
        <ele>90.5013428</ele>
        <time>2011-12-04T09:43:54Z</time>
      </trkpt>
      <trkpt lat="50.34236" lon="3.63921">
        <ele>88.5787354</ele>
        <time>2011-12-04T09:43:59Z</time>
      </trkpt>
      <trkpt lat="50.34237" lon="3.63916">
        <ele>88.5787354</ele>
        <time>2011-12-04T09:44:00Z</time>
      </trkpt>
      <trkpt lat="50.34241" lon="3.63874">
        <ele>86.6560059</ele>
        <time>2011-12-04T09:44:07Z</time>
      </trkpt>
      <trkpt lat="50.34246" lon="3.63831">
        <ele>88.0980225</ele>
        <time>2011-12-04T09:44:13Z</time>
      </trkpt>
      <trkpt lat="50.34252" lon="3.63788">
        <ele>90.0206299</ele>
        <time>2011-12-04T09:44:18Z</time>
      </trkpt>
      <trkpt lat="50.34264" lon="3.63718">
        <ele>92.904541</ele>
        <time>2011-12-04T09:44:26Z</time>
      </trkpt>
      <trkpt lat="50.34271" lon="3.63664">
        <ele>91.9432373</ele>
        <time>2011-12-04T09:44:32Z</time>
      </trkpt>
      <trkpt lat="50.34274" lon="3.63579">
        <ele>89.0593262</ele>
        <time>2011-12-04T09:44:40Z</time>
      </trkpt>
      <trkpt lat="50.34275" lon="3.63484">
        <ele>87.1365967</ele>
        <time>2011-12-04T09:44:49Z</time>
      </trkpt>
      <trkpt lat="50.34275" lon="3.63474">
        <ele>87.1365967</ele>
        <time>2011-12-04T09:44:50Z</time>
      </trkpt>
      <trkpt lat="50.34274" lon="3.63398">
        <ele>86.175293</ele>
        <time>2011-12-04T09:44:58Z</time>
      </trkpt>
      <trkpt lat="50.34278" lon="3.63334">
        <ele>86.175293</ele>
        <time>2011-12-04T09:45:05Z</time>
      </trkpt>
      <trkpt lat="50.34281" lon="3.63273">
        <ele>86.175293</ele>
        <time>2011-12-04T09:45:13Z</time>
      </trkpt>
      <trkpt lat="50.34285" lon="3.63222">
        <ele>86.175293</ele>
        <time>2011-12-04T09:45:20Z</time>
      </trkpt>
      <trkpt lat="50.3429" lon="3.63159">
        <ele>87.1365967</ele>
        <time>2011-12-04T09:45:29Z</time>
      </trkpt>
      <trkpt lat="50.3429" lon="3.63152">
        <ele>87.1365967</ele>
        <time>2011-12-04T09:45:30Z</time>
      </trkpt>
      <trkpt lat="50.34294" lon="3.63116">
        <ele>88.0980225</ele>
        <time>2011-12-04T09:45:36Z</time>
      </trkpt>
      <trkpt lat="50.34298" lon="3.6307">
        <ele>89.539917</ele>
        <time>2011-12-04T09:45:44Z</time>
      </trkpt>
      <trkpt lat="50.343" lon="3.63016">
        <ele>89.0593262</ele>
        <time>2011-12-04T09:45:53Z</time>
      </trkpt>
      <trkpt lat="50.34301" lon="3.62994">
        <ele>88.0980225</ele>
        <time>2011-12-04T09:45:56Z</time>
      </trkpt>
      <trkpt lat="50.34306" lon="3.62931">
        <ele>85.2139893</ele>
        <time>2011-12-04T09:46:03Z</time>
      </trkpt>
      <trkpt lat="50.34313" lon="3.62853">
        <ele>81.3687744</ele>
        <time>2011-12-04T09:46:10Z</time>
      </trkpt>
      <trkpt lat="50.34321" lon="3.62777">
        <ele>80.4074707</ele>
        <time>2011-12-04T09:46:17Z</time>
      </trkpt>
      <trkpt lat="50.34323" lon="3.6273">
        <ele>80.4074707</ele>
        <time>2011-12-04T09:46:22Z</time>
      </trkpt>
      <trkpt lat="50.34327" lon="3.62647">
        <ele>80.4074707</ele>
        <time>2011-12-04T09:46:31Z</time>
      </trkpt>
      <trkpt lat="50.34338" lon="3.62577">
        <ele>80.4074707</ele>
        <time>2011-12-04T09:46:39Z</time>
      </trkpt>
      <trkpt lat="50.34349" lon="3.62538">
        <ele>80.4074707</ele>
        <time>2011-12-04T09:46:44Z</time>
      </trkpt>
      <trkpt lat="50.34369" lon="3.6247">
        <ele>81.3687744</ele>
        <time>2011-12-04T09:46:53Z</time>
      </trkpt>
      <trkpt lat="50.34377" lon="3.62432">
        <ele>81.8493652</ele>
        <time>2011-12-04T09:46:58Z</time>
      </trkpt>
      <trkpt lat="50.34389" lon="3.62387">
        <ele>83.7719727</ele>
        <time>2011-12-04T09:47:05Z</time>
      </trkpt>
      <trkpt lat="50.34391" lon="3.62376">
        <ele>84.2526855</ele>
        <time>2011-12-04T09:47:07Z</time>
      </trkpt>
      <trkpt lat="50.344" lon="3.62335">
        <ele>86.6560059</ele>
        <time>2011-12-04T09:47:15Z</time>
      </trkpt>
      <trkpt lat="50.34412" lon="3.62289">
        <ele>88.5787354</ele>
        <time>2011-12-04T09:47:24Z</time>
      </trkpt>
      <trkpt lat="50.34427" lon="3.6224">
        <ele>89.539917</ele>
        <time>2011-12-04T09:47:33Z</time>
      </trkpt>
      <trkpt lat="50.34444" lon="3.62189">
        <ele>89.0593262</ele>
        <time>2011-12-04T09:47:42Z</time>
      </trkpt>
      <trkpt lat="50.34461" lon="3.62129">
        <ele>88.0980225</ele>
        <time>2011-12-04T09:47:51Z</time>
      </trkpt>
      <trkpt lat="50.34475" lon="3.62075">
        <ele>86.6560059</ele>
        <time>2011-12-04T09:47:58Z</time>
      </trkpt>
      <trkpt lat="50.34496" lon="3.61997">
        <ele>84.7333984</ele>
        <time>2011-12-04T09:48:07Z</time>
      </trkpt>
      <trkpt lat="50.34517" lon="3.61918">
        <ele>82.3300781</ele>
        <time>2011-12-04T09:48:16Z</time>
      </trkpt>
      <trkpt lat="50.34535" lon="3.61834">
        <ele>80.8881836</ele>
        <time>2011-12-04T09:48:25Z</time>
      </trkpt>
      <trkpt lat="50.34544" lon="3.61755">
        <ele>79.4460449</ele>
        <time>2011-12-04T09:48:33Z</time>
      </trkpt>
      <trkpt lat="50.34551" lon="3.61698">
        <ele>78.0040283</ele>
        <time>2011-12-04T09:48:39Z</time>
      </trkpt>
      <trkpt lat="50.34569" lon="3.61622">
        <ele>77.5234375</ele>
        <time>2011-12-04T09:48:48Z</time>
      </trkpt>
      <trkpt lat="50.34589" lon="3.61547">
        <ele>76.5621338</ele>
        <time>2011-12-04T09:48:57Z</time>
      </trkpt>
      <trkpt lat="50.34606" lon="3.61482">
        <ele>76.5621338</ele>
        <time>2011-12-04T09:49:05Z</time>
      </trkpt>
      <trkpt lat="50.34629" lon="3.61398">
        <ele>76.0814209</ele>
        <time>2011-12-04T09:49:15Z</time>
      </trkpt>
      <trkpt lat="50.34645" lon="3.61342">
        <ele>76.5621338</ele>
        <time>2011-12-04T09:49:22Z</time>
      </trkpt>
      <trkpt lat="50.34663" lon="3.61278">
        <ele>76.5621338</ele>
        <time>2011-12-04T09:49:30Z</time>
      </trkpt>
      <trkpt lat="50.34669" lon="3.61254">
        <ele>76.5621338</ele>
        <time>2011-12-04T09:49:33Z</time>
      </trkpt>
      <trkpt lat="50.34674" lon="3.61239">
        <ele>76.5621338</ele>
        <time>2011-12-04T09:49:35Z</time>
      </trkpt>
      <trkpt lat="50.34687" lon="3.61181">
        <ele>76.0814209</ele>
        <time>2011-12-04T09:49:42Z</time>
      </trkpt>
      <trkpt lat="50.34689" lon="3.61172">
        <ele>76.0814209</ele>
        <time>2011-12-04T09:49:43Z</time>
      </trkpt>
      <trkpt lat="50.34707" lon="3.61102">
        <ele>75.6008301</ele>
        <time>2011-12-04T09:49:52Z</time>
      </trkpt>
      <trkpt lat="50.3472" lon="3.61026">
        <ele>74.6395264</ele>
        <time>2011-12-04T09:50:01Z</time>
      </trkpt>
      <trkpt lat="50.34731" lon="3.60947">
        <ele>73.6782227</ele>
        <time>2011-12-04T09:50:10Z</time>
      </trkpt>
      <trkpt lat="50.34748" lon="3.6087">
        <ele>73.6782227</ele>
        <time>2011-12-04T09:50:19Z</time>
      </trkpt>
      <trkpt lat="50.34763" lon="3.6079">
        <ele>73.6782227</ele>
        <time>2011-12-04T09:50:28Z</time>
      </trkpt>
      <trkpt lat="50.34767" lon="3.60711">
        <ele>73.1976318</ele>
        <time>2011-12-04T09:50:37Z</time>
      </trkpt>
      <trkpt lat="50.34774" lon="3.60651">
        <ele>72.7169189</ele>
        <time>2011-12-04T09:50:44Z</time>
      </trkpt>
      <trkpt lat="50.3478" lon="3.60608">
        <ele>72.7169189</ele>
        <time>2011-12-04T09:50:49Z</time>
      </trkpt>
      <trkpt lat="50.34801" lon="3.60515">
        <ele>72.7169189</ele>
        <time>2011-12-04T09:51:00Z</time>
      </trkpt>
      <trkpt lat="50.34818" lon="3.6043">
        <ele>72.2362061</ele>
        <time>2011-12-04T09:51:10Z</time>
      </trkpt>
      <trkpt lat="50.34823" lon="3.60378">
        <ele>71.2749023</ele>
        <time>2011-12-04T09:51:16Z</time>
      </trkpt>
      <trkpt lat="50.3483" lon="3.60313">
        <ele>70.7941895</ele>
        <time>2011-12-04T09:51:24Z</time>
      </trkpt>
      <trkpt lat="50.34837" lon="3.60259">
        <ele>70.3134766</ele>
        <time>2011-12-04T09:51:31Z</time>
      </trkpt>
      <trkpt lat="50.34847" lon="3.60196">
        <ele>69.3522949</ele>
        <time>2011-12-04T09:51:39Z</time>
      </trkpt>
      <trkpt lat="50.34859" lon="3.60115">
        <ele>68.871582</ele>
        <time>2011-12-04T09:51:49Z</time>
      </trkpt>
      <trkpt lat="50.34866" lon="3.60042">
        <ele>68.3908691</ele>
        <time>2011-12-04T09:51:58Z</time>
      </trkpt>
      <trkpt lat="50.34872" lon="3.59985">
        <ele>67.9102783</ele>
        <time>2011-12-04T09:52:05Z</time>
      </trkpt>
      <trkpt lat="50.34877" lon="3.59908">
        <ele>67.4296875</ele>
        <time>2011-12-04T09:52:14Z</time>
      </trkpt>
      <trkpt lat="50.34879" lon="3.59851">
        <ele>66.9489746</ele>
        <time>2011-12-04T09:52:21Z</time>
      </trkpt>
      <trkpt lat="50.34878" lon="3.59823">
        <ele>66.4682617</ele>
        <time>2011-12-04T09:52:25Z</time>
      </trkpt>
      <trkpt lat="50.34879" lon="3.59781">
        <ele>66.4682617</ele>
        <time>2011-12-04T09:52:31Z</time>
      </trkpt>
      <trkpt lat="50.34881" lon="3.59766">
        <ele>66.4682617</ele>
        <time>2011-12-04T09:52:33Z</time>
      </trkpt>
      <trkpt lat="50.34872" lon="3.59745">
        <ele>66.4682617</ele>
        <time>2011-12-04T09:52:37Z</time>
      </trkpt>
      <trkpt lat="50.34846" lon="3.59721">
        <ele>66.9489746</ele>
        <time>2011-12-04T09:52:43Z</time>
      </trkpt>
      <trkpt lat="50.34814" lon="3.5971">
        <ele>65.9876709</ele>
        <time>2011-12-04T09:52:49Z</time>
      </trkpt>
      <trkpt lat="50.34771" lon="3.59708">
        <ele>65.0263672</ele>
        <time>2011-12-04T09:52:56Z</time>
      </trkpt>
      <trkpt lat="50.34734" lon="3.59704">
        <ele>65.5070801</ele>
        <time>2011-12-04T09:53:03Z</time>
      </trkpt>
      <trkpt lat="50.34726" lon="3.59703">
        <ele>65.5070801</ele>
        <time>2011-12-04T09:53:05Z</time>
      </trkpt>
      <trkpt lat="50.34692" lon="3.59715">
        <ele>65.9876709</ele>
        <time>2011-12-04T09:53:12Z</time>
      </trkpt>
      <trkpt lat="50.34648" lon="3.59739">
        <ele>66.4682617</ele>
        <time>2011-12-04T09:53:21Z</time>
      </trkpt>
      <trkpt lat="50.34618" lon="3.59753">
        <ele>66.9489746</ele>
        <time>2011-12-04T09:53:27Z</time>
      </trkpt>
      <trkpt lat="50.34568" lon="3.59777">
        <ele>68.3908691</ele>
        <time>2011-12-04T09:53:37Z</time>
      </trkpt>
      <trkpt lat="50.34529" lon="3.59796">
        <ele>69.8328857</ele>
        <time>2011-12-04T09:53:45Z</time>
      </trkpt>
      <trkpt lat="50.34487" lon="3.59821">
        <ele>71.7554932</ele>
        <time>2011-12-04T09:53:54Z</time>
      </trkpt>
      <trkpt lat="50.34445" lon="3.59841">
        <ele>72.7169189</ele>
        <time>2011-12-04T09:54:03Z</time>
      </trkpt>
      <trkpt lat="50.34396" lon="3.59855">
        <ele>73.6782227</ele>
        <time>2011-12-04T09:54:14Z</time>
      </trkpt>
      <trkpt lat="50.3436" lon="3.59866">
        <ele>74.1588135</ele>
        <time>2011-12-04T09:54:22Z</time>
      </trkpt>
      <trkpt lat="50.34325" lon="3.59877">
        <ele>75.1202393</ele>
        <time>2011-12-04T09:54:30Z</time>
      </trkpt>
      <trkpt lat="50.34296" lon="3.59886">
        <ele>75.6008301</ele>
        <time>2011-12-04T09:54:37Z</time>
      </trkpt>
      <trkpt lat="50.34262" lon="3.59887">
        <ele>75.6008301</ele>
        <time>2011-12-04T09:54:45Z</time>
      </trkpt>
      <trkpt lat="50.34222" lon="3.5989">
        <ele>75.6008301</ele>
        <time>2011-12-04T09:54:55Z</time>
      </trkpt>
      <trkpt lat="50.34217" lon="3.59891">
        <ele>76.0814209</ele>
        <time>2011-12-04T09:54:56Z</time>
      </trkpt>
      <trkpt lat="50.34205" lon="3.59897">
        <ele>76.0814209</ele>
        <time>2011-12-04T09:54:59Z</time>
      </trkpt>
      <trkpt lat="50.34172" lon="3.59903">
        <ele>77.0428467</ele>
        <time>2011-12-04T09:55:07Z</time>
      </trkpt>
      <trkpt lat="50.34129" lon="3.59906">
        <ele>77.5234375</ele>
        <time>2011-12-04T09:55:17Z</time>
      </trkpt>
      <trkpt lat="50.34121" lon="3.59907">
        <ele>78.0040283</ele>
        <time>2011-12-04T09:55:19Z</time>
      </trkpt>
      <trkpt lat="50.34104" lon="3.59897">
        <ele>78.0040283</ele>
        <time>2011-12-04T09:55:24Z</time>
      </trkpt>
      <trkpt lat="50.34105" lon="3.59886">
        <ele>77.5234375</ele>
        <time>2011-12-04T09:55:26Z</time>
      </trkpt>
      <trkpt lat="50.34123" lon="3.59818">
        <ele>77.0428467</ele>
        <time>2011-12-04T09:55:38Z</time>
      </trkpt>
      <trkpt lat="50.34136" lon="3.59771">
        <ele>77.0428467</ele>
        <time>2011-12-04T09:55:46Z</time>
      </trkpt>
      <trkpt lat="50.34152" lon="3.59709">
        <ele>77.0428467</ele>
        <time>2011-12-04T09:55:56Z</time>
      </trkpt>
      <trkpt lat="50.34166" lon="3.59646">
        <ele>77.5234375</ele>
        <time>2011-12-04T09:56:06Z</time>
      </trkpt>
      <trkpt lat="50.34177" lon="3.59588">
        <ele>78.0040283</ele>
        <time>2011-12-04T09:56:15Z</time>
      </trkpt>
      <trkpt lat="50.34183" lon="3.59563">
        <ele>78.0040283</ele>
        <time>2011-12-04T09:56:19Z</time>
      </trkpt>
      <trkpt lat="50.34195" lon="3.59497">
        <ele>77.5234375</ele>
        <time>2011-12-04T09:56:29Z</time>
      </trkpt>
      <trkpt lat="50.34205" lon="3.59433">
        <ele>78.0040283</ele>
        <time>2011-12-04T09:56:39Z</time>
      </trkpt>
      <trkpt lat="50.34213" lon="3.59359">
        <ele>77.5234375</ele>
        <time>2011-12-04T09:56:50Z</time>
      </trkpt>
      <trkpt lat="50.34219" lon="3.59306">
        <ele>76.5621338</ele>
        <time>2011-12-04T09:56:58Z</time>
      </trkpt>
      <trkpt lat="50.34227" lon="3.59255">
        <ele>75.6008301</ele>
        <time>2011-12-04T09:57:05Z</time>
      </trkpt>
      <trkpt lat="50.34242" lon="3.59177">
        <ele>73.6782227</ele>
        <time>2011-12-04T09:57:15Z</time>
      </trkpt>
      <trkpt lat="50.34258" lon="3.59115">
        <ele>72.7169189</ele>
        <time>2011-12-04T09:57:23Z</time>
      </trkpt>
      <trkpt lat="50.3427" lon="3.59062">
        <ele>72.7169189</ele>
        <time>2011-12-04T09:57:31Z</time>
      </trkpt>
      <trkpt lat="50.3428" lon="3.59012">
        <ele>72.2362061</ele>
        <time>2011-12-04T09:57:39Z</time>
      </trkpt>
      <trkpt lat="50.3429" lon="3.58959">
        <ele>72.2362061</ele>
        <time>2011-12-04T09:57:46Z</time>
      </trkpt>
      <trkpt lat="50.34291" lon="3.58951">
        <ele>72.2362061</ele>
        <time>2011-12-04T09:57:47Z</time>
      </trkpt>
      <trkpt lat="50.34305" lon="3.58886">
        <ele>72.2362061</ele>
        <time>2011-12-04T09:57:56Z</time>
      </trkpt>
      <trkpt lat="50.34311" lon="3.58866">
        <ele>71.7554932</ele>
        <time>2011-12-04T09:57:59Z</time>
      </trkpt>
      <trkpt lat="50.34313" lon="3.58834">
        <ele>71.7554932</ele>
        <time>2011-12-04T09:58:04Z</time>
      </trkpt>
      <trkpt lat="50.34315" lon="3.58815">
        <ele>70.7941895</ele>
        <time>2011-12-04T09:58:07Z</time>
      </trkpt>
      <trkpt lat="50.34328" lon="3.58746">
        <ele>67.4296875</ele>
        <time>2011-12-04T09:58:16Z</time>
      </trkpt>
      <trkpt lat="50.34338" lon="3.58683">
        <ele>66.4682617</ele>
        <time>2011-12-04T09:58:23Z</time>
      </trkpt>
      <trkpt lat="50.34352" lon="3.586">
        <ele>65.9876709</ele>
        <time>2011-12-04T09:58:32Z</time>
      </trkpt>
      <trkpt lat="50.34369" lon="3.58501">
        <ele>64.0650635</ele>
        <time>2011-12-04T09:58:42Z</time>
      </trkpt>
      <trkpt lat="50.34391" lon="3.58423">
        <ele>62.142334</ele>
        <time>2011-12-04T09:58:50Z</time>
      </trkpt>
      <trkpt lat="50.34436" lon="3.58285">
        <ele>59.7391357</ele>
        <time>2011-12-04T09:59:04Z</time>
      </trkpt>
      <trkpt lat="50.34468" lon="3.58177">
        <ele>58.77771</ele>
        <time>2011-12-04T09:59:15Z</time>
      </trkpt>
      <trkpt lat="50.34488" lon="3.58103">
        <ele>57.8165283</ele>
        <time>2011-12-04T09:59:23Z</time>
      </trkpt>
      <trkpt lat="50.34509" lon="3.58022">
        <ele>57.3358154</ele>
        <time>2011-12-04T09:59:32Z</time>
      </trkpt>
      <trkpt lat="50.34525" lon="3.57966">
        <ele>56.8551025</ele>
        <time>2011-12-04T09:59:39Z</time>
      </trkpt>
      <trkpt lat="50.34527" lon="3.57959">
        <ele>56.8551025</ele>
        <time>2011-12-04T09:59:40Z</time>
      </trkpt>
      <trkpt lat="50.34525" lon="3.57939">
        <ele>56.3745117</ele>
        <time>2011-12-04T09:59:43Z</time>
      </trkpt>
      <trkpt lat="50.3452" lon="3.57935">
        <ele>55.8937988</ele>
        <time>2011-12-04T09:59:44Z</time>
      </trkpt>
      <trkpt lat="50.34511" lon="3.5793">
        <ele>55.8937988</ele>
        <time>2011-12-04T09:59:46Z</time>
      </trkpt>
      <trkpt lat="50.34495" lon="3.57922">
        <ele>55.4130859</ele>
        <time>2011-12-04T09:59:50Z</time>
      </trkpt>
      <trkpt lat="50.34466" lon="3.57904">
        <ele>56.3745117</ele>
        <time>2011-12-04T09:59:57Z</time>
      </trkpt>
      <trkpt lat="50.34434" lon="3.57894">
        <ele>58.2971191</ele>
        <time>2011-12-04T10:00:05Z</time>
      </trkpt>
      <trkpt lat="50.34414" lon="3.57891">
        <ele>59.7391357</ele>
        <time>2011-12-04T10:00:10Z</time>
      </trkpt>
      <trkpt lat="50.34379" lon="3.57887">
        <ele>61.6617432</ele>
        <time>2011-12-04T10:00:18Z</time>
      </trkpt>
      <trkpt lat="50.34365" lon="3.57873">
        <ele>62.142334</ele>
        <time>2011-12-04T10:00:22Z</time>
      </trkpt>
      <trkpt lat="50.34365" lon="3.57866">
        <ele>61.6617432</ele>
        <time>2011-12-04T10:00:23Z</time>
      </trkpt>
      <trkpt lat="50.34366" lon="3.57799">
        <ele>60.2197266</ele>
        <time>2011-12-04T10:00:32Z</time>
      </trkpt>
      <trkpt lat="50.34364" lon="3.57753">
        <ele>59.2584229</ele>
        <time>2011-12-04T10:00:38Z</time>
      </trkpt>
      <trkpt lat="50.34361" lon="3.57703">
        <ele>58.77771</ele>
        <time>2011-12-04T10:00:44Z</time>
      </trkpt>
      <trkpt lat="50.34368" lon="3.57671">
        <ele>58.77771</ele>
        <time>2011-12-04T10:00:48Z</time>
      </trkpt>
      <trkpt lat="50.34372" lon="3.57637">
        <ele>58.77771</ele>
        <time>2011-12-04T10:00:53Z</time>
      </trkpt>
      <trkpt lat="50.34367" lon="3.57618">
        <ele>59.2584229</ele>
        <time>2011-12-04T10:00:56Z</time>
      </trkpt>
      <trkpt lat="50.3436" lon="3.57601">
        <ele>59.2584229</ele>
        <time>2011-12-04T10:00:59Z</time>
      </trkpt>
      <trkpt lat="50.34355" lon="3.5757">
        <ele>60.2197266</ele>
        <time>2011-12-04T10:01:05Z</time>
      </trkpt>
      <trkpt lat="50.34355" lon="3.57535">
        <ele>60.7003174</ele>
        <time>2011-12-04T10:01:10Z</time>
      </trkpt>
      <trkpt lat="50.34357" lon="3.57513">
        <ele>61.1810303</ele>
        <time>2011-12-04T10:01:13Z</time>
      </trkpt>
      <trkpt lat="50.34355" lon="3.57475">
        <ele>61.1810303</ele>
        <time>2011-12-04T10:01:18Z</time>
      </trkpt>
      <trkpt lat="50.34352" lon="3.57423">
        <ele>61.1810303</ele>
        <time>2011-12-04T10:01:25Z</time>
      </trkpt>
      <trkpt lat="50.3435" lon="3.57392">
        <ele>61.1810303</ele>
        <time>2011-12-04T10:01:29Z</time>
      </trkpt>
      <trkpt lat="50.3435" lon="3.57344">
        <ele>61.1810303</ele>
        <time>2011-12-04T10:01:36Z</time>
      </trkpt>
      <trkpt lat="50.34359" lon="3.57325">
        <ele>61.1810303</ele>
        <time>2011-12-04T10:01:40Z</time>
      </trkpt>
      <trkpt lat="50.34391" lon="3.57289">
        <ele>60.2197266</ele>
        <time>2011-12-04T10:01:48Z</time>
      </trkpt>
      <trkpt lat="50.34417" lon="3.57244">
        <ele>59.7391357</ele>
        <time>2011-12-04T10:01:55Z</time>
      </trkpt>
      <trkpt lat="50.34442" lon="3.5719">
        <ele>59.7391357</ele>
        <time>2011-12-04T10:02:03Z</time>
      </trkpt>
      <trkpt lat="50.34468" lon="3.5713">
        <ele>59.7391357</ele>
        <time>2011-12-04T10:02:12Z</time>
      </trkpt>
      <trkpt lat="50.34492" lon="3.57078">
        <ele>59.7391357</ele>
        <time>2011-12-04T10:02:20Z</time>
      </trkpt>
      <trkpt lat="50.34519" lon="3.57027">
        <ele>57.8165283</ele>
        <time>2011-12-04T10:02:27Z</time>
      </trkpt>
      <trkpt lat="50.3455" lon="3.56979">
        <ele>55.4130859</ele>
        <time>2011-12-04T10:02:33Z</time>
      </trkpt>
      <trkpt lat="50.34571" lon="3.56968">
        <ele>54.932373</ele>
        <time>2011-12-04T10:02:36Z</time>
      </trkpt>
      <trkpt lat="50.34583" lon="3.56978">
        <ele>54.4517822</ele>
        <time>2011-12-04T10:02:38Z</time>
      </trkpt>
      <trkpt lat="50.34614" lon="3.57022">
        <ele>55.4130859</ele>
        <time>2011-12-04T10:02:45Z</time>
      </trkpt>
      <trkpt lat="50.34647" lon="3.57068">
        <ele>56.3745117</ele>
        <time>2011-12-04T10:02:53Z</time>
      </trkpt>
      <trkpt lat="50.34694" lon="3.57132">
        <ele>57.8165283</ele>
        <time>2011-12-04T10:03:04Z</time>
      </trkpt>
      <trkpt lat="50.34717" lon="3.57161">
        <ele>56.8551025</ele>
        <time>2011-12-04T10:03:09Z</time>
      </trkpt>
      <trkpt lat="50.34749" lon="3.57203">
        <ele>56.8551025</ele>
        <time>2011-12-04T10:03:16Z</time>
      </trkpt>
      <trkpt lat="50.34765" lon="3.57207">
        <ele>57.3358154</ele>
        <time>2011-12-04T10:03:20Z</time>
      </trkpt>
      <trkpt lat="50.34769" lon="3.57203">
        <ele>57.3358154</ele>
        <time>2011-12-04T10:03:21Z</time>
      </trkpt>
      <trkpt lat="50.34799" lon="3.57161">
        <ele>56.8551025</ele>
        <time>2011-12-04T10:03:29Z</time>
      </trkpt>
      <trkpt lat="50.34827" lon="3.57129">
        <ele>54.932373</ele>
        <time>2011-12-04T10:03:35Z</time>
      </trkpt>
      <trkpt lat="50.34868" lon="3.57098">
        <ele>54.4517822</ele>
        <time>2011-12-04T10:03:42Z</time>
      </trkpt>
      <trkpt lat="50.34922" lon="3.5706">
        <ele>53.9711914</ele>
        <time>2011-12-04T10:03:51Z</time>
      </trkpt>
      <trkpt lat="50.34974" lon="3.57023">
        <ele>52.5291748</ele>
        <time>2011-12-04T10:04:00Z</time>
      </trkpt>
      <trkpt lat="50.34984" lon="3.57016">
        <ele>52.048584</ele>
        <time>2011-12-04T10:04:02Z</time>
      </trkpt>
      <trkpt lat="50.35007" lon="3.56999">
        <ele>51.5678711</ele>
        <time>2011-12-04T10:04:07Z</time>
      </trkpt>
      <trkpt lat="50.35015" lon="3.56991">
        <ele>51.0871582</ele>
        <time>2011-12-04T10:04:09Z</time>
      </trkpt>
      <trkpt lat="50.35028" lon="3.56968">
        <ele>51.0871582</ele>
        <time>2011-12-04T10:04:13Z</time>
      </trkpt>
      <trkpt lat="50.35052" lon="3.56933">
        <ele>47.7225342</ele>
        <time>2011-12-04T10:04:20Z</time>
      </trkpt>
      <trkpt lat="50.35075" lon="3.56898">
        <ele>47.2418213</ele>
        <time>2011-12-04T10:04:27Z</time>
      </trkpt>
      <trkpt lat="50.35094" lon="3.5688">
        <ele>47.7225342</ele>
        <time>2011-12-04T10:04:32Z</time>
      </trkpt>
      <trkpt lat="50.3511" lon="3.56895">
        <ele>47.7225342</ele>
        <time>2011-12-04T10:04:36Z</time>
      </trkpt>
      <trkpt lat="50.35118" lon="3.56906">
        <ele>48.2033691</ele>
        <time>2011-12-04T10:04:38Z</time>
      </trkpt>
      <trkpt lat="50.35132" lon="3.56926">
        <ele>48.2033691</ele>
        <time>2011-12-04T10:04:42Z</time>
      </trkpt>
      <trkpt lat="50.35139" lon="3.56936">
        <ele>48.68396</ele>
        <time>2011-12-04T10:04:44Z</time>
      </trkpt>
      <trkpt lat="50.35155" lon="3.56954">
        <ele>49.1645508</ele>
        <time>2011-12-04T10:04:48Z</time>
      </trkpt>
      <trkpt lat="50.35167" lon="3.56968">
        <ele>49.6452637</ele>
        <time>2011-12-04T10:04:51Z</time>
      </trkpt>
      <trkpt lat="50.35185" lon="3.56978">
        <ele>50.1259766</ele>
        <time>2011-12-04T10:04:55Z</time>
      </trkpt>
      <trkpt lat="50.35191" lon="3.56978">
        <ele>50.6065674</ele>
        <time>2011-12-04T10:04:56Z</time>
      </trkpt>
      <trkpt lat="50.35242" lon="3.56978">
        <ele>49.6452637</ele>
        <time>2011-12-04T10:05:05Z</time>
      </trkpt>
      <trkpt lat="50.35313" lon="3.56977">
        <ele>47.7225342</ele>
        <time>2011-12-04T10:05:16Z</time>
      </trkpt>
      <trkpt lat="50.35389" lon="3.5698">
        <ele>46.2806396</ele>
        <time>2011-12-04T10:05:27Z</time>
      </trkpt>
      <trkpt lat="50.3543" lon="3.56992">
        <ele>45.3192139</ele>
        <time>2011-12-04T10:05:33Z</time>
      </trkpt>
      <trkpt lat="50.35489" lon="3.57016">
        <ele>42.4354248</ele>
        <time>2011-12-04T10:05:41Z</time>
      </trkpt>
      <trkpt lat="50.35535" lon="3.57024">
        <ele>40.9934082</ele>
        <time>2011-12-04T10:05:47Z</time>
      </trkpt>
      <trkpt lat="50.35576" lon="3.5703">
        <ele>40.9934082</ele>
        <time>2011-12-04T10:05:53Z</time>
      </trkpt>
      <trkpt lat="50.35621" lon="3.57028">
        <ele>40.5128174</ele>
        <time>2011-12-04T10:06:00Z</time>
      </trkpt>
      <trkpt lat="50.35627" lon="3.57026">
        <ele>40.0321045</ele>
        <time>2011-12-04T10:06:01Z</time>
      </trkpt>
      <trkpt lat="50.35639" lon="3.57019">
        <ele>40.5128174</ele>
        <time>2011-12-04T10:06:03Z</time>
      </trkpt>
      <trkpt lat="50.35659" lon="3.56999">
        <ele>40.9934082</ele>
        <time>2011-12-04T10:06:07Z</time>
      </trkpt>
      <trkpt lat="50.35689" lon="3.56944">
        <ele>41.9547119</ele>
        <time>2011-12-04T10:06:15Z</time>
      </trkpt>
      <trkpt lat="50.35708" lon="3.56898">
        <ele>44.3580322</ele>
        <time>2011-12-04T10:06:22Z</time>
      </trkpt>
      <trkpt lat="50.35729" lon="3.56854">
        <ele>45.3192139</ele>
        <time>2011-12-04T10:06:30Z</time>
      </trkpt>
      <trkpt lat="50.35747" lon="3.56829">
        <ele>46.2806396</ele>
        <time>2011-12-04T10:06:36Z</time>
      </trkpt>
      <trkpt lat="50.3577" lon="3.56812">
        <ele>47.2418213</ele>
        <time>2011-12-04T10:06:44Z</time>
      </trkpt>
      <trkpt lat="50.35799" lon="3.56806">
        <ele>47.7225342</ele>
        <time>2011-12-04T10:06:53Z</time>
      </trkpt>
      <trkpt lat="50.35826" lon="3.56804">
        <ele>48.2033691</ele>
        <time>2011-12-04T10:07:00Z</time>
      </trkpt>
      <trkpt lat="50.35861" lon="3.56802">
        <ele>49.1645508</ele>
        <time>2011-12-04T10:07:07Z</time>
      </trkpt>
      <trkpt lat="50.35904" lon="3.56795">
        <ele>48.68396</ele>
        <time>2011-12-04T10:07:15Z</time>
      </trkpt>
      <trkpt lat="50.35944" lon="3.56774">
        <ele>48.68396</ele>
        <time>2011-12-04T10:07:22Z</time>
      </trkpt>
      <trkpt lat="50.35993" lon="3.56735">
        <ele>47.7225342</ele>
        <time>2011-12-04T10:07:31Z</time>
      </trkpt>
      <trkpt lat="50.36034" lon="3.56695">
        <ele>47.2418213</ele>
        <time>2011-12-04T10:07:39Z</time>
      </trkpt>
      <trkpt lat="50.3604" lon="3.56692">
        <ele>47.2418213</ele>
        <time>2011-12-04T10:07:40Z</time>
      </trkpt>
      <trkpt lat="50.36073" lon="3.56677">
        <ele>46.2806396</ele>
        <time>2011-12-04T10:07:46Z</time>
      </trkpt>
      <trkpt lat="50.36108" lon="3.56665">
        <ele>46.7612305</ele>
        <time>2011-12-04T10:07:51Z</time>
      </trkpt>
      <trkpt lat="50.36125" lon="3.56652">
        <ele>45.7999268</ele>
        <time>2011-12-04T10:07:54Z</time>
      </trkpt>
      <trkpt lat="50.36147" lon="3.56613">
        <ele>45.7999268</ele>
        <time>2011-12-04T10:07:59Z</time>
      </trkpt>
      <trkpt lat="50.36158" lon="3.5659">
        <ele>44.838623</ele>
        <time>2011-12-04T10:08:02Z</time>
      </trkpt>
      <trkpt lat="50.36171" lon="3.56571">
        <ele>43.8773193</ele>
        <time>2011-12-04T10:08:05Z</time>
      </trkpt>
      <trkpt lat="50.36203" lon="3.56542">
        <ele>43.8773193</ele>
        <time>2011-12-04T10:08:11Z</time>
      </trkpt>
      <trkpt lat="50.36251" lon="3.56507">
        <ele>43.8773193</ele>
        <time>2011-12-04T10:08:20Z</time>
      </trkpt>
      <trkpt lat="50.36294" lon="3.56476">
        <ele>40.0321045</ele>
        <time>2011-12-04T10:08:28Z</time>
      </trkpt>
      <trkpt lat="50.36305" lon="3.56464">
        <ele>39.5512695</ele>
        <time>2011-12-04T10:08:30Z</time>
      </trkpt>
      <trkpt lat="50.3632" lon="3.56456">
        <ele>39.0706787</ele>
        <time>2011-12-04T10:08:33Z</time>
      </trkpt>
      <trkpt lat="50.36326" lon="3.56452">
        <ele>40.0321045</ele>
        <time>2011-12-04T10:08:37Z</time>
      </trkpt>
      <trkpt lat="50.36325" lon="3.56458">
        <ele>44.838623</ele>
        <time>2011-12-04T10:08:46Z</time>
      </trkpt>
      <trkpt lat="50.36325" lon="3.56457">
        <ele>46.7612305</ele>
        <time>2011-12-04T10:08:56Z</time>
      </trkpt>
      <trkpt lat="50.36326" lon="3.56455">
        <ele>45.7999268</ele>
        <time>2011-12-04T10:09:09Z</time>
      </trkpt>
      <trkpt lat="50.36328" lon="3.56454">
        <ele>47.7225342</ele>
        <time>2011-12-04T10:09:16Z</time>
      </trkpt>
      <trkpt lat="50.36324" lon="3.56439">
        <ele>40.9934082</ele>
        <time>2011-12-04T10:09:38Z</time>
      </trkpt>
      <trkpt lat="50.36325" lon="3.56443">
        <ele>42.9160156</ele>
        <time>2011-12-04T10:09:45Z</time>
      </trkpt>
      <trkpt lat="50.36324" lon="3.56449">
        <ele>45.7999268</ele>
        <time>2011-12-04T10:09:52Z</time>
      </trkpt>
      <trkpt lat="50.36326" lon="3.56453">
        <ele>46.2806396</ele>
        <time>2011-12-04T10:10:04Z</time>
      </trkpt>
      <trkpt lat="50.36325" lon="3.56457">
        <ele>47.7225342</ele>
        <time>2011-12-04T10:10:15Z</time>
      </trkpt>
      <trkpt lat="50.36325" lon="3.56461">
        <ele>53.4904785</ele>
        <time>2011-12-04T10:10:30Z</time>
      </trkpt>
      <trkpt lat="50.36324" lon="3.56462">
        <ele>52.5291748</ele>
        <time>2011-12-04T10:10:46Z</time>
      </trkpt>
      <trkpt lat="50.36324" lon="3.56456">
        <ele>51.5678711</ele>
        <time>2011-12-04T10:11:13Z</time>
      </trkpt>
      <trkpt lat="50.36322" lon="3.56451">
        <ele>47.2418213</ele>
        <time>2011-12-04T10:11:24Z</time>
      </trkpt>
      <trkpt lat="50.36325" lon="3.56462">
        <ele>48.68396</ele>
        <time>2011-12-04T10:11:43Z</time>
      </trkpt>
      <trkpt lat="50.36324" lon="3.56459">
        <ele>42.4354248</ele>
        <time>2011-12-04T10:12:21Z</time>
      </trkpt>
      <trkpt lat="50.36324" lon="3.56459">
        <ele>41.9547119</ele>
        <time>2011-12-04T10:12:41Z</time>
      </trkpt>
      <trkpt lat="50.36326" lon="3.56464">
        <ele>49.1645508</ele>
        <time>2011-12-04T10:13:06Z</time>
      </trkpt>
      <trkpt lat="50.36325" lon="3.56461">
        <ele>47.2418213</ele>
        <time>2011-12-04T10:13:22Z</time>
      </trkpt>
      <trkpt lat="50.36325" lon="3.56457">
        <ele>46.2806396</ele>
        <time>2011-12-04T10:13:33Z</time>
      </trkpt>
      <trkpt lat="50.36325" lon="3.56457">
        <ele>46.7612305</ele>
        <time>2011-12-04T10:13:50Z</time>
      </trkpt>
      <trkpt lat="50.36325" lon="3.56455">
        <ele>46.2806396</ele>
        <time>2011-12-04T10:14:00Z</time>
      </trkpt>
      <trkpt lat="50.36323" lon="3.56452">
        <ele>41.473999</ele>
        <time>2011-12-04T10:14:23Z</time>
      </trkpt>
      <trkpt lat="50.3632" lon="3.56454">
        <ele>40.5128174</ele>
        <time>2011-12-04T10:14:35Z</time>
      </trkpt>
      <trkpt lat="50.36321" lon="3.56462">
        <ele>43.3966064</ele>
        <time>2011-12-04T10:14:46Z</time>
      </trkpt>
      <trkpt lat="50.36322" lon="3.56467">
        <ele>45.3192139</ele>
        <time>2011-12-04T10:14:56Z</time>
      </trkpt>
      <trkpt lat="50.36322" lon="3.56468">
        <ele>45.7999268</ele>
        <time>2011-12-04T10:15:02Z</time>
      </trkpt>
      <trkpt lat="50.36321" lon="3.56463">
        <ele>45.7999268</ele>
        <time>2011-12-04T10:15:10Z</time>
      </trkpt>
      <trkpt lat="50.36321" lon="3.56459">
        <ele>41.9547119</ele>
        <time>2011-12-04T10:15:22Z</time>
      </trkpt>
      <trkpt lat="50.36323" lon="3.5646">
        <ele>44.3580322</ele>
        <time>2011-12-04T10:15:40Z</time>
      </trkpt>
      <trkpt lat="50.36325" lon="3.56462">
        <ele>46.2806396</ele>
        <time>2011-12-04T10:15:49Z</time>
      </trkpt>
      <trkpt lat="50.36322" lon="3.56456">
        <ele>44.838623</ele>
        <time>2011-12-04T10:16:01Z</time>
      </trkpt>
      <trkpt lat="50.36322" lon="3.56449">
        <ele>42.4354248</ele>
        <time>2011-12-04T10:16:36Z</time>
      </trkpt>
      <trkpt lat="50.36325" lon="3.5645">
        <ele>42.9160156</ele>
        <time>2011-12-04T10:16:42Z</time>
      </trkpt>
      <trkpt lat="50.36327" lon="3.56449">
        <ele>41.473999</ele>
        <time>2011-12-04T10:16:46Z</time>
      </trkpt>
      <trkpt lat="50.36328" lon="3.56448">
        <ele>40.9934082</ele>
        <time>2011-12-04T10:16:47Z</time>
      </trkpt>
      <trkpt lat="50.36345" lon="3.56439">
        <ele>42.4354248</ele>
        <time>2011-12-04T10:16:53Z</time>
      </trkpt>
      <trkpt lat="50.36381" lon="3.56414">
        <ele>40.9934082</ele>
        <time>2011-12-04T10:17:02Z</time>
      </trkpt>
      <trkpt lat="50.36413" lon="3.56391">
        <ele>39.5512695</ele>
        <time>2011-12-04T10:17:10Z</time>
      </trkpt>
      <trkpt lat="50.36444" lon="3.56368">
        <ele>37.6286621</ele>
        <time>2011-12-04T10:17:17Z</time>
      </trkpt>
      <trkpt lat="50.36484" lon="3.56338">
        <ele>36.1867676</ele>
        <time>2011-12-04T10:17:25Z</time>
      </trkpt>
      <trkpt lat="50.36538" lon="3.56304">
        <ele>34.744873</ele>
        <time>2011-12-04T10:17:35Z</time>
      </trkpt>
      <trkpt lat="50.3656" lon="3.56292">
        <ele>34.2641602</ele>
        <time>2011-12-04T10:17:40Z</time>
      </trkpt>
      <trkpt lat="50.36571" lon="3.56287">
        <ele>34.2641602</ele>
        <time>2011-12-04T10:17:43Z</time>
      </trkpt>
      <trkpt lat="50.36596" lon="3.56274">
        <ele>33.7834473</ele>
        <time>2011-12-04T10:17:49Z</time>
      </trkpt>
      <trkpt lat="50.36636" lon="3.56252">
        <ele>32.3415527</ele>
        <time>2011-12-04T10:17:58Z</time>
      </trkpt>
      <trkpt lat="50.36658" lon="3.56238">
        <ele>31.8607178</ele>
        <time>2011-12-04T10:18:03Z</time>
      </trkpt>
      <trkpt lat="50.36668" lon="3.56221">
        <ele>32.8222656</ele>
        <time>2011-12-04T10:18:07Z</time>
      </trkpt>
      <trkpt lat="50.3667" lon="3.56211">
        <ele>33.3028564</ele>
        <time>2011-12-04T10:18:09Z</time>
      </trkpt>
      <trkpt lat="50.36674" lon="3.56169">
        <ele>33.3028564</ele>
        <time>2011-12-04T10:18:16Z</time>
      </trkpt>
      <trkpt lat="50.36672" lon="3.56141">
        <ele>33.3028564</ele>
        <time>2011-12-04T10:18:22Z</time>
      </trkpt>
      <trkpt lat="50.36665" lon="3.56124">
        <ele>32.8222656</ele>
        <time>2011-12-04T10:18:26Z</time>
      </trkpt>
      <trkpt lat="50.36649" lon="3.56115">
        <ele>32.8222656</ele>
        <time>2011-12-04T10:18:30Z</time>
      </trkpt>
      <trkpt lat="50.36626" lon="3.56097">
        <ele>33.7834473</ele>
        <time>2011-12-04T10:18:35Z</time>
      </trkpt>
      <trkpt lat="50.36604" lon="3.5607">
        <ele>35.7060547</ele>
        <time>2011-12-04T10:18:41Z</time>
      </trkpt>
      <trkpt lat="50.36582" lon="3.5603">
        <ele>37.6286621</ele>
        <time>2011-12-04T10:18:48Z</time>
      </trkpt>
      <trkpt lat="50.36559" lon="3.55977">
        <ele>40.5128174</ele>
        <time>2011-12-04T10:18:57Z</time>
      </trkpt>
      <trkpt lat="50.36547" lon="3.55958">
        <ele>41.473999</ele>
        <time>2011-12-04T10:19:01Z</time>
      </trkpt>
      <trkpt lat="50.3653" lon="3.55934">
        <ele>41.9547119</ele>
        <time>2011-12-04T10:19:07Z</time>
      </trkpt>
      <trkpt lat="50.36531" lon="3.55923">
        <ele>41.473999</ele>
        <time>2011-12-04T10:19:09Z</time>
      </trkpt>
      <trkpt lat="50.36535" lon="3.55892">
        <ele>40.9934082</ele>
        <time>2011-12-04T10:19:15Z</time>
      </trkpt>
      <trkpt lat="50.36527" lon="3.55876">
        <ele>40.5128174</ele>
        <time>2011-12-04T10:19:20Z</time>
      </trkpt>
      <trkpt lat="50.36524" lon="3.55872">
        <ele>40.5128174</ele>
        <time>2011-12-04T10:19:24Z</time>
      </trkpt>
      <trkpt lat="50.36525" lon="3.5587">
        <ele>40.0321045</ele>
        <time>2011-12-04T10:19:31Z</time>
      </trkpt>
      <trkpt lat="50.36525" lon="3.55866">
        <ele>39.5512695</ele>
        <time>2011-12-04T10:19:40Z</time>
      </trkpt>
      <trkpt lat="50.36524" lon="3.55868">
        <ele>38.5900879</ele>
        <time>2011-12-04T10:19:45Z</time>
      </trkpt>
      <trkpt lat="50.36524" lon="3.55869">
        <ele>38.109375</ele>
        <time>2011-12-04T10:19:47Z</time>
      </trkpt>
    </trkseg>
  </trk>
</gpx>